[[{"header":{"parameterUnit":"m.s-1","parameterCategory":1,"la1":31.0,"la2":29.5877,"lo1":-88.7671,"lo2":-86.6584,"dy":0.0162,"dx":0.0185,"nx":115,"ny":88,"refTime":"2026-03-03T12:00:00:Z","depth":0,"parameterNumber":2,"parameterNumberName":"U-component_of_WINDS"},"data":[0.0,0.0,0.0,0.0,0.0,0.0,0.0,0.0,0.0,0.0,0.0,0.0,0.0,0.0,0.0,0.0,0.0,0.0,0.0,0.0,0.0,0.0,0.0,0.0,0.0,0.0,0.0,0.0,0.0,0.0,0.0,0.0,0.0,0.0,0.0,0.0,0.0,0.0,0.0,0.0,0.0,0.0,0.0,0.0,0.0,0.0,0.0,0.0,0.0,0.0,0.0,0.0,0.0,0.0,0.0,0.0,0.0,0.0,0.0,0.0,0.0,0.0,0.0,0.0,0.0,0.0,0.0,0.0,0.0,0.0,0.0,0.0,0.0,0.0,0.0,0.0,0.0,0.0,0.0,0.0,0.0,0.0,0.0,0.0,0.0,0.0,0.0,0.0,0.0,0.0,0.0,0.0,0.0,0.0,0.0,0.0,0.0,0.0,0.0,0.0,0.0,0.0,0.0,0.0,0.0,0.0,0.0,0.0,0.0,0.0,0.0,0.0,0.0,0.0,0.0,0.0,0.0,0.0,0.0,0.0,0.0,0.0,0.0,0.0,0.0,0.0,0.0,0.0,0.0,0.0,0.0,0.0,0.0,0.0,0.0,0.0,0.0,0.0,0.0,0.0,0.0,0.0,0.0,0.0,0.0,0.0,0.0,0.0,0.0,0.0,0.0,0.0,0.0,0.0,0.0,0.0,0.0,0.0,0.0,0.0,0.0,0.0,0.0,0.0,0.0,0.0,0.0,0.0,0.0,0.0,0.0,0.0,0.0,0.0,0.0,0.0,0.0,0.0,0.0,0.0,0.0,0.0,0.0,0.0,0.0,0.0,0.0,0.0,0.0,0.0,0.0,0.0,0.0,0.0,0.0,0.0,0.0,0.0,0.0,0.0,0.0,0.0,0.0,0.0,0.0,0.0,0.0,0.0,0.0,0.0,0.0,0.0,0.0,0.0,0.0,0.0,0.0,0.0,0.0,0.0,0.0,0.0,0.0,0.0,0.0,0.0,0.0,0.0,0.0,0.0,0.0,0.0,0.0,0.0,0.0,0.0,0.0,0.0,0.0,0.0,0.0,0.0,0.0,0.0,0.0,0.0,0.0,0.0,0.0,0.0,0.0,0.0,0.0,0.0,0.0,0.0,0.0,0.0,0.0,0.0,0.0,0.0,0.0,0.0,0.0,0.0,0.0,0.0,0.0,0.0,0.0,0.0,0.0,0.0,0.0,0.0,0.0,0.0,0.0,0.0,0.0,0.0,0.0,0.0,0.0,0.0,0.0,0.0,0.0,0.0,0.0,0.0,0.0,0.0,0.0,0.0,0.0,0.0,0.0,0.0,0.0,0.0,0.0,0.0,0.0,0.0,0.0,0.0,0.0,0.0,0.0,0.0,0.0,0.0,0.0,0.0,0.0,0.0,0.0,0.0,0.0,0.0,0.0,0.0,0.0,0.0,0.0,0.0,0.0,0.0,0.0,0.0,0.0,0.0,0.0,0.0,0.0,0.0,0.0,0.0,0.0,0.0,0.0,0.0,0.0,0.0,0.0,0.0,0.0,0.0,0.0,0.0,0.0,0.0,0.0,0.0,0.0,0.0,0.0,0.0,0.0,0.0,0.0,0.0,0.0,0.0,0.0,0.0,0.0,0.0,0.0,0.0,0.0,0.0,0.0,0.0,0.0,0.0,0.0,0.0,0.0,0.0,0.0,0.0,0.0,0.0,0.0,0.0,0.0,0.0,0.0,0.0,0.0,0.0,0.0,0.0,0.0,0.0,0.0,0.0,0.0,0.0,0.0,0.0,0.0,0.0,0.0,0.0,0.0,0.0,0.0,0.0,0.0,0.0,0.0,0.0,0.0,0.0,0.0,0.0,0.0,0.0,0.0,0.0,0.0,0.0,0.0,0.0,0.0,0.0,0.0,0.0,0.0,0.0,0.0,0.0,0.0,0.0,0.0,0.0,0.0,0.0,0.0,0.0,0.0,0.0,0.0,0.0,0.0,0.0,0.0,0.0,0.0,0.0,0.0,0.0,0.0,0.0,0.0,0.0,0.0,0.0,0.0,0.0,0.0,0.0,0.0,0.0,0.0,0.0,0.0,0.0,0.0,0.0,0.0,0.0,0.0,0.0,0.0,0.0,0.0,0.0,0.0,0.0,0.0,0.0,0.0,0.0,0.0,0.0,0.0,0.0,0.0,0.0,0.0,0.0,0.0,0.0,0.0,0.0,0.0,0.0,0.0,0.0,0.0,0.0,0.0,0.0,0.0,0.0,0.0,0.0,0.0,0.0,0.0,0.0,0.0,0.0,0.0,0.0,0.0,0.0,0.0,0.0,0.0,0.0,0.0,0.0,0.0,0.0,0.0,0.0,0.0,0.0,0.0,0.0,0.0,0.0,0.0,0.0,0.0,0.0,0.0,0.0,0.0,0.0,0.0,0.0,0.0,0.0,0.0,0.0,0.0,0.0,0.0,0.0,0.0,0.0,0.0,0.0,0.0,0.0,0.0,0.0,0.0,0.0,0.0,0.0,0.0,0.0,0.0,0.0,0.0,0.0,0.0,0.0,0.0,0.0,0.0,0.0,0.0,0.0,0.0,0.0,0.0,0.0,0.0,0.0,0.0,0.0,0.0,0.0,0.0,0.0,0.0,0.0,0.0,0.0,0.0,0.0,0.0,0.0,0.0,0.0,0.0,0.0,0.0,0.0,0.0,0.0,0.0,0.0,0.0,0.0,0.0,0.0,0.0,0.0,0.0,0.0,0.0,0.0,0.0,0.0,0.0,0.0,0.0,0.0,0.0,0.0,0.0,0.0,0.0,0.0,0.0,0.0,0.0,0.0,0.0,0.0,0.0,0.0,0.0,0.0,0.0,0.0,0.0,0.0,0.0,0.0,0.0,0.0,0.0,0.0,0.0,0.0,0.0,0.0,0.0,0.0,0.0,0.0,0.0,0.0,0.0,0.0,0.0,0.0,0.0,0.0,0.0,0.0,0.0,0.0,0.0,0.0,0.0,0.0,0.0,0.0,0.0,0.0,0.0,0.0,0.0,0.0,0.0,0.0,0.0,0.0,0.0,0.0,0.0,0.0,0.0,0.0,0.0,0.0,0.0,0.0,0.0,0.0,0.0,0.0,0.0,0.0,0.0,0.0,0.0,0.0,0.0,0.0,0.0,0.0,0.0,0.0,0.0,0.0,0.0,0.0,0.0,0.0,0.0,0.0,0.0,0.0,0.0,0.0,0.0,0.0,0.0,0.0,0.0,0.0,0.0,0.0,0.0,0.0,0.0,0.0,0.0,0.0,0.0,0.0,0.0,0.0,0.0,0.0,0.0,0.0,0.0,0.0,0.0,0.0,0.0,0.0,0.0,0.0,0.0,0.0,0.0,0.0,0.0,0.0,0.0,0.0,0.0,0.0,0.0,0.0,0.0,0.0,0.0,0.0,0.0,0.0,0.0,0.0,0.0,0.0,0.0,0.0,0.0,0.0,0.0,0.0,0.0,0.0,0.0,0.0,0.0,0.0,0.0,0.0,0.0,0.0,0.0,0.0,0.0,0.0,0.0,0.0,0.0,0.0,0.0,0.0,0.0,0.0,0.0,0.0,0.0,0.0,0.0,0.0,0.0,0.0,0.0,0.0,0.0,0.0,0.0,0.0,0.0,0.0,0.0,0.0,0.0,0.0,0.0,0.0,0.0,0.0,0.0,0.0,0.0,0.0,0.0,0.0,0.0,0.0,0.0,0.0,0.0,0.0,0.0,0.0,0.0,0.0,0.0,0.0,0.0,0.0,0.0,0.0,0.0,0.0,0.0,0.0,0.0,0.0,0.0,0.0,0.0,0.0,0.0,0.0,0.0,0.0,0.0,0.0,0.0,0.0,0.0,0.0,0.0,0.0,0.0,0.0,0.0,0.0,0.0,0.0,0.0,0.0,0.0,0.0,0.0,0.0,0.0,0.0,0.0,0.0,0.0,0.0,0.0,0.0,0.0,0.0,0.0,0.0,0.0,0.0,0.0,0.0,0.0,0.0,0.0,0.0,0.0,0.0,0.0,0.0,0.0,0.0,0.0,0.0,0.0,0.0,0.0,0.0,0.0,0.0,0.0,0.0,0.0,0.0,0.0,0.0,0.0,0.0,0.0,0.0,0.0,0.0,0.0,0.0,0.0,0.0,0.0,0.0,0.0,0.0,0.0,0.0,0.0,0.0,0.0,0.0,0.0,0.0,0.0,0.0,0.0,0.0,0.0,0.0,0.0,0.0,0.0,0.0,0.0,0.0,0.0,0.0,0.0,0.0,-0.9969,0.0,0.0,0.0,0.0,0.0,0.0,0.0,0.0,0.0,0.0,0.0,0.0,0.0,0.0,0.0,0.0,0.0,0.0,0.0,0.0,0.0,0.0,0.0,0.0,0.0,0.0,0.0,0.0,0.0,0.0,0.0,0.0,0.0,0.0,0.0,0.0,0.0,0.0,0.0,0.0,0.0,0.0,0.0,0.0,0.0,0.0,0.0,0.0,0.0,0.0,0.0,0.0,0.0,0.0,0.0,0.0,0.0,0.0,0.0,0.0,0.0,0.0,0.0,0.0,0.0,0.0,0.0,0.0,0.0,0.0,0.0,0.0,0.0,0.0,0.0,0.0,0.0,0.0,0.0,0.0,0.0,0.0,0.0,0.0,0.0,0.0,0.0,0.0,0.0,0.0,0.0,0.0,0.0,0.0,0.0,0.0,0.0,0.0,0.0,0.0,0.0,0.0,0.0,0.0,0.0,0.0,0.0,0.0,0.0,0.0,-1.1141,-1.094,-1.0802,-1.0457,-0.9943,0.0,0.0,0.0,0.0,0.0,0.0,0.0,0.0,0.0,0.0,0.0,0.0,0.0,0.0,0.0,0.0,0.0,0.0,0.0,0.0,0.0,0.0,0.0,0.0,0.0,0.0,0.0,0.0,0.0,0.0,0.0,0.0,0.0,0.0,0.0,0.0,0.0,0.0,0.0,0.0,0.0,0.0,0.0,0.0,0.0,0.0,0.0,0.0,0.0,0.0,0.0,0.0,0.0,0.0,0.0,0.0,0.0,0.0,0.0,0.0,0.0,0.0,0.0,0.0,0.0,0.0,0.0,0.0,0.0,0.0,0.0,0.0,0.0,0.0,0.0,0.0,0.0,0.0,0.0,0.0,0.0,0.0,0.0,0.0,0.0,0.0,0.0,0.0,0.0,0.0,0.0,0.0,0.0,0.0,0.0,0.0,0.0,0.0,0.0,0.0,0.0,0.0,0.0,0.0,0.0,0.0,0.0,0.0,0.0,0.0,0.0,0.0,-1.0977,-1.077,-1.0507,0.0,0.0,0.0,0.0,0.0,0.0,0.0,0.0,0.0,0.0,0.0,0.0,0.0,0.0,0.0,0.0,0.0,0.0,0.0,0.0,0.0,0.0,0.0,0.0,0.0,0.0,0.0,0.0,0.0,0.0,0.0,0.0,0.0,0.0,0.0,0.0,0.0,0.0,0.0,0.0,0.0,0.0,0.0,0.0,0.0,0.0,0.0,0.0,0.0,0.0,0.0,0.0,0.0,0.0,0.0,0.0,0.0,0.0,0.0,0.0,0.0,0.0,0.0,0.0,0.0,0.0,0.0,0.0,0.0,0.0,0.0,0.0,0.0,0.0,0.0,0.0,0.0,0.0,0.0,0.0,0.0,0.0,0.0,0.0,0.0,0.0,0.0,0.0,0.0,0.0,0.0,0.0,0.0,0.0,0.0,0.0,0.0,0.0,0.0,0.0,0.0,0.0,0.0,0.0,0.0,0.0,0.0,0.0,0.0,0.0,-1.0579,-1.1579,-1.1545,0.0,-1.2178,0.0,0.0,0.0,0.0,0.0,0.0,0.0,0.0,0.0,0.0,0.0,0.0,0.0,0.0,0.0,0.0,0.0,0.0,0.0,0.0,0.0,0.0,0.0,0.0,0.0,0.0,0.0,0.0,0.0,0.0,0.0,0.0,0.0,0.0,0.0,0.0,0.0,0.0,0.0,0.0,0.0,0.0,0.0,0.0,0.0,0.0,0.0,0.0,0.0,0.0,0.0,0.0,0.0,0.0,0.0,0.0,0.0,0.0,0.0,0.0,0.0,0.0,0.0,0.0,0.0,0.0,0.0,0.0,0.0,0.0,0.0,0.0,0.0,0.0,0.0,0.0,0.0,0.0,0.0,0.0,0.0,0.0,0.0,0.0,0.0,0.0,0.0,0.0,0.0,0.0,0.0,0.0,0.0,0.0,0.0,0.0,0.0,0.0,0.0,0.0,0.0,0.0,0.0,0.0,0.0,0.0,0.0,0.0,0.0,0.0,-1.1167,-1.1635,-1.1618,-1.1477,0.0,0.0,0.0,0.0,0.0,0.0,0.0,0.0,0.0,0.0,0.0,0.0,0.0,0.0,0.0,0.0,0.0,0.0,0.0,0.0,0.0,0.0,0.0,0.0,0.0,0.0,0.0,0.0,0.0,0.0,0.0,0.0,0.0,0.0,0.0,0.0,0.0,0.0,0.0,0.0,0.0,0.0,0.0,0.0,0.0,0.0,0.0,0.0,0.0,0.0,0.0,0.0,0.0,0.0,0.0,0.0,0.0,0.0,0.0,0.0,0.0,0.0,0.0,0.0,0.0,0.0,0.0,0.0,0.0,0.0,0.0,0.0,0.0,0.0,0.0,0.0,0.0,0.0,0.0,0.0,0.0,0.0,0.0,0.0,0.0,0.0,0.0,0.0,0.0,0.0,0.0,0.0,0.0,0.0,0.0,0.0,0.0,0.0,0.0,0.0,0.0,0.0,0.0,0.0,0.0,0.0,0.0,0.0,0.0,0.0,-1.1173,0.0,-1.1789,-1.1826,-1.1542,-1.0982,0.0,0.0,0.0,0.0,0.0,0.0,0.0,0.0,0.0,0.0,0.0,0.0,0.0,0.0,0.0,0.0,0.0,0.0,0.0,0.0,0.0,0.0,0.0,0.0,0.0,0.0,0.0,0.0,0.0,0.0,0.0,0.0,0.0,0.0,0.0,0.0,0.0,0.0,0.0,0.0,0.0,0.0,0.0,0.0,0.0,0.0,0.0,0.0,0.0,0.0,0.0,0.0,0.0,0.0,0.0,0.0,0.0,0.0,0.0,0.0,0.0,0.0,0.0,0.0,0.0,0.0,0.0,0.0,0.0,0.0,0.0,0.0,0.0,0.0,0.0,0.0,0.0,0.0,0.0,0.0,0.0,0.0,0.0,0.0,0.0,0.0,0.0,0.0,0.0,0.0,0.0,0.0,0.0,0.0,0.0,0.0,0.0,0.0,0.0,0.0,0.0,0.0,0.0,0.0,0.0,0.0,0.0,0.0,0.0,-1.1533,-1.1257,-1.2309,-1.235,-1.2334,0.0,0.0,0.0,0.0,0.0,0.0,0.0,0.0,0.0,0.0,0.0,0.0,0.0,0.0,0.0,0.0,0.0,0.0,0.0,0.0,0.0,0.0,0.0,0.0,0.0,0.0,0.0,0.0,0.0,0.0,0.0,0.0,0.0,0.0,0.0,0.0,0.0,0.0,0.0,0.0,0.0,0.0,0.0,0.0,0.0,0.0,0.0,0.0,0.0,0.0,0.0,0.0,0.0,0.0,0.0,0.0,0.0,0.0,0.0,0.0,0.0,0.0,0.0,0.0,0.0,0.0,0.0,0.0,0.0,0.0,0.0,0.0,0.0,0.0,0.0,0.0,0.0,0.0,0.0,0.0,0.0,0.0,0.0,0.0,0.0,0.0,0.0,0.0,0.0,0.0,0.0,0.0,0.0,0.0,0.0,0.0,0.0,0.0,0.0,0.0,0.0,0.0,0.0,0.0,0.0,0.0,0.0,0.0,0.0,-1.1046,-1.0996,-1.1403,-1.2278,-1.183,-1.1491,0.0,0.0,0.0,0.0,0.0,0.0,0.0,0.0,0.0,0.0,0.0,0.0,0.0,0.0,0.0,0.0,0.0,0.0,0.0,0.0,0.0,0.0,0.0,0.0,0.0,0.0,0.0,0.0,0.0,0.0,0.0,0.0,0.0,0.0,0.0,0.0,0.0,0.0,0.0,0.0,0.0,0.0,0.0,0.0,0.0,0.0,0.0,0.0,0.0,0.0,0.0,0.0,0.0,0.0,0.0,0.0,0.0,0.0,0.0,0.0,0.0,0.0,0.0,0.0,0.0,0.0,0.0,0.0,0.0,0.0,0.0,0.0,0.0,0.0,0.0,0.0,0.0,0.0,0.0,0.0,0.0,0.0,0.0,0.0,0.0,0.0,0.0,0.0,0.0,0.0,0.0,0.0,0.0,0.0,0.0,0.0,0.0,0.0,0.0,0.0,0.0,0.0,0.0,0.0,0.0,0.0,0.0,0.0,0.0,-1.028,0.0,-1.1542,0.0,-1.1223,-1.0688,0.0,0.0,0.0,0.0,0.0,0.0,0.0,0.0,0.0,0.0,0.0,0.0,0.0,0.0,0.0,0.0,0.0,0.0,0.0,0.0,0.0,0.0,0.0,0.0,0.0,0.0,0.0,0.0,0.0,0.0,0.0,0.0,0.0,0.0,0.0,0.0,0.0,0.0,0.0,0.0,0.0,0.0,0.0,0.0,0.0,0.0,0.0,0.0,0.0,0.0,0.0,0.0,0.0,0.0,0.0,0.0,0.0,0.0,0.0,0.0,0.0,0.0,0.0,0.0,0.0,0.0,0.0,0.0,0.0,0.0,0.0,0.0,0.0,0.0,0.0,0.0,0.0,0.0,0.0,0.0,0.0,0.0,0.0,0.0,0.0,0.0,0.0,0.0,0.0,0.0,0.0,0.0,0.0,0.0,0.0,0.0,0.0,0.0,0.0,0.0,0.0,0.0,0.0,0.0,0.0,0.0,0.0,0.0,-1.0226,-1.0953,-1.1658,-1.1572,-1.0658,-1.0601,-1.0103,0.0,0.0,0.0,0.0,0.0,0.0,0.0,0.0,0.0,0.0,0.0,0.0,0.0,0.0,0.0,0.0,0.0,0.0,0.0,0.0,0.0,0.0,0.0,0.0,0.0,0.0,0.0,0.0,0.0,0.0,0.0,0.0,0.0,0.0,0.0,0.0,0.0,0.0,0.0,0.0,0.0,0.0,0.0,0.0,0.0,0.0,0.0,0.0,0.0,0.0,0.0,0.0,0.0,0.0,0.0,0.0,0.0,0.0,0.0,0.0,0.0,0.0,0.0,0.0,0.0,0.0,0.0,0.0,0.0,0.0,0.0,0.0,0.0,0.0,0.0,0.0,0.0,0.0,0.0,0.0,0.0,0.0,0.0,0.0,0.0,0.0,0.0,0.0,0.0,0.0,0.0,0.0,0.0,0.0,0.0,0.0,0.0,0.0,0.0,0.0,0.0,0.0,0.0,0.0,0.0,0.0,0.0,0.0,0.0,-0.9851,-1.0693,-1.1045,-1.0798,-1.0081,-0.998,0.0,0.0,0.0,0.0,0.0,0.0,0.0,0.0,0.0,0.0,0.0,0.0,0.0,0.0,0.0,0.0,0.0,0.0,0.0,0.0,0.0,0.0,0.0,0.0,0.0,0.0,0.0,0.0,0.0,0.0,0.0,0.0,0.0,0.0,0.0,0.0,0.0,0.0,0.0,0.0,0.0,0.0,0.0,0.0,0.0,0.0,0.0,0.0,0.0,0.0,0.0,0.0,0.0,0.0,0.0,0.0,0.0,0.0,0.0,0.0,0.0,0.0,0.0,0.0,0.0,0.0,0.0,0.0,0.0,0.0,0.0,0.0,0.0,0.0,0.0,0.0,0.0,0.0,0.0,0.0,0.0,0.0,0.0,0.0,0.0,0.0,0.0,0.0,0.0,0.0,0.0,0.0,0.0,0.0,0.0,0.0,0.0,0.0,0.0,0.0,0.0,0.0,0.0,0.0,0.0,0.0,0.0,0.0,0.0,-0.9973,-1.0815,-1.116,-1.0871,-1.0228,-1.0008,-1.0291,0.0,0.0,0.0,0.0,0.0,0.0,0.0,0.0,0.0,0.0,0.0,0.0,0.0,0.0,0.0,0.0,0.0,0.0,0.0,0.0,0.0,0.0,0.0,0.0,0.0,0.0,0.0,0.0,0.0,0.0,0.0,0.0,0.0,0.0,0.0,0.0,0.0,0.0,0.0,0.0,0.0,0.0,0.0,0.0,0.0,0.0,0.0,0.0,0.0,0.0,0.0,0.0,0.0,0.0,0.0,0.0,0.0,0.0,0.0,0.0,0.0,0.0,0.0,0.0,0.0,0.0,0.0,0.0,0.0,0.0,0.0,0.0,0.0,0.0,0.0,0.0,0.0,0.0,0.0,0.0,0.0,0.0,0.0,0.0,0.0,0.0,0.0,0.0,0.0,0.0,0.0,0.0,0.0,0.0,0.0,0.0,0.0,0.0,0.0,0.0,0.0,0.0,0.0,0.0,0.0,0.0,0.0,0.0,-1.1036,-1.1934,-1.1923,-1.0967,-1.0912,-1.0267,0.0,0.0,0.0,0.0,0.0,0.0,0.0,0.0,0.0,0.0,0.0,0.0,0.0,0.0,0.0,0.0,0.0,0.0,0.0,0.0,0.0,0.0,0.0,0.0,0.0,0.0,0.0,0.0,0.0,0.0,0.0,0.0,0.0,0.0,0.0,0.0,0.0,0.0,0.0,0.0,0.0,0.0,0.0,0.0,0.0,0.0,0.0,0.0,0.0,0.0,0.0,0.0,0.0,0.0,0.0,0.0,0.0,0.0,0.0,0.0,0.0,0.0,0.0,0.0,0.0,0.0,0.0,0.0,0.0,0.0,0.0,0.0,0.0,0.0,0.0,0.0,0.0,0.0,0.0,0.0,0.0,0.0,0.0,0.0,0.0,0.0,0.0,0.0,0.0,0.0,0.0,0.0,0.0,0.0,0.0,0.0,0.0,0.0,0.0,0.0,0.0,0.0,0.0,0.0,0.0,0.0,0.0,0.0,0.0,-1.2559,-1.3189,-1.3131,-1.2366,-1.1377,-1.0996,0.0,0.0,0.0,0.0,0.0,0.0,0.0,0.0,0.0,0.0,0.0,0.0,0.0,0.0,0.0,0.0,0.0,0.0,0.0,0.0,0.0,0.0,0.0,0.0,0.0,0.0,0.0,0.0,0.0,0.0,0.0,0.0,0.0,0.0,0.0,0.0,0.0,0.0,0.0,0.0,0.0,0.0,0.0,0.0,0.0,0.0,0.0,0.0,0.0,0.0,0.0,0.0,0.0,0.0,0.0,0.0,0.0,0.0,0.0,0.0,0.0,0.0,0.0,0.0,0.0,0.0,0.0,0.0,0.0,0.0,0.0,0.0,0.0,0.0,0.0,0.0,0.0,0.0,0.0,0.0,0.0,0.0,0.0,0.0,0.0,0.0,0.0,0.0,0.0,0.0,0.0,0.0,0.0,0.0,0.0,0.0,0.0,0.0,0.0,0.0,0.0,0.0,0.0,0.0,0.0,0.0,0.0,0.0,-1.1778,-1.3017,-1.36,-1.3605,-1.3042,-1.2426,-1.1896,0.0,0.0,0.0,0.0,0.0,0.0,0.0,0.0,0.0,0.0,0.0,0.0,0.0,0.0,0.0,0.0,0.0,0.0,0.0,0.0,0.0,0.0,0.0,0.0,0.0,0.0,0.0,0.0,0.0,0.0,0.0,0.0,0.0,0.0,0.0,0.0,0.0,0.0,0.0,0.0,0.0,0.0,0.0,0.0,0.0,0.0,0.0,0.0,0.0,0.0,0.0,0.0,0.0,0.0,0.0,0.0,0.0,0.0,0.0,0.0,0.0,0.0,0.0,0.0,0.0,0.0,0.0,0.0,0.0,0.0,0.0,0.0,0.0,0.0,0.0,0.0,0.0,0.0,0.0,0.0,0.0,0.0,0.0,0.0,0.0,0.0,0.0,0.0,0.0,0.0,0.0,0.0,0.0,0.0,0.0,0.0,0.0,0.0,0.0,0.0,0.0,0.0,0.0,0.0,0.0,0.0,0.0,0.0,-1.2141,-1.2866,-1.36,-1.3746,-1.3256,-1.3611,-1.2792,0.0,0.0,0.0,0.0,0.0,0.0,0.0,0.0,0.0,0.0,0.0,0.0,0.0,0.0,0.0,0.0,0.0,0.0,0.0,0.0,0.0,0.0,0.0,0.0,0.0,0.0,0.0,0.0,0.0,0.0,0.0,0.0,0.0,0.0,0.0,0.0,0.0,0.0,0.0,0.0,0.0,0.0,0.0,0.0,0.0,0.0,0.0,0.0,0.0,0.0,0.0,0.0,0.0,0.0,0.0,0.0,0.0,0.0,0.0,0.0,0.0,0.0,0.0,0.0,0.0,0.0,0.0,0.0,0.0,0.0,0.0,0.0,0.0,0.0,0.0,0.0,0.0,0.0,0.0,0.0,0.0,0.0,0.0,0.0,0.0,0.0,0.0,0.0,0.0,0.0,0.0,0.0,0.0,0.0,0.0,0.0,0.0,0.0,0.0,0.0,0.0,0.0,0.0,0.0,0.0,0.0,0.0,0.0,-1.2248,-1.3337,-1.4178,-1.423,-1.3455,-1.3343,-1.2729,0.0,0.0,0.0,0.0,0.0,0.0,0.0,0.0,0.0,0.0,0.0,0.0,0.0,0.0,0.0,0.0,0.0,0.0,0.0,0.0,0.0,0.0,0.0,0.0,0.0,0.0,0.0,0.0,0.0,0.0,0.0,0.0,0.0,0.0,0.0,0.0,0.0,0.0,0.0,0.0,0.0,0.0,0.0,0.0,0.0,0.0,0.0,0.0,-0.841,0.0,0.0,0.0,0.0,0.0,0.0,0.0,0.0,0.0,0.0,0.0,0.0,0.0,0.0,0.0,0.0,0.0,0.0,0.0,0.0,0.0,0.0,0.0,0.0,0.0,0.0,0.0,0.0,0.0,0.0,0.0,0.0,0.0,0.0,0.0,0.0,0.0,0.0,0.0,0.0,0.0,0.0,0.0,0.0,0.0,0.0,0.0,0.0,0.0,0.0,0.0,0.0,0.0,0.0,0.0,0.0,0.0,0.0,0.0,-1.244,-1.3303,-1.4069,-1.4082,-1.3262,-1.3455,-1.3017,0.0,0.0,0.0,0.0,0.0,0.0,0.0,0.0,0.0,0.0,0.0,0.0,0.0,0.0,0.0,0.0,0.0,0.0,0.0,0.0,0.0,0.0,0.0,0.0,0.0,0.0,0.0,0.0,0.0,0.0,0.0,0.0,0.0,0.0,0.0,0.0,0.0,0.0,0.0,0.0,0.0,0.0,0.0,0.0,0.0,0.0,0.0,0.0,0.0,0.0,0.0,0.0,0.0,0.0,0.0,0.0,0.0,0.0,0.0,0.0,0.0,0.0,0.0,0.0,0.0,0.0,0.0,0.0,0.0,0.0,0.0,0.0,0.0,0.0,0.0,0.0,0.0,0.0,0.0,0.0,0.0,0.0,0.0,0.0,0.0,0.0,0.0,0.0,0.0,0.0,0.0,0.0,0.0,0.0,0.0,0.0,0.0,0.0,0.0,0.0,0.0,0.0,0.0,0.0,0.0,0.0,0.0,-1.19,-1.2582,-1.3061,-1.3821,-1.3782,-1.2954,-1.376,-1.3389,-1.1675,0.0,0.0,0.0,0.0,0.0,0.0,0.0,0.0,0.0,0.0,0.0,0.0,0.0,0.0,0.0,0.0,0.0,0.0,0.0,0.0,0.0,0.0,0.0,0.0,0.0,0.0,0.0,0.0,0.0,0.0,0.0,0.0,0.0,0.0,0.0,0.0,0.0,0.0,-0.7476,-0.8287,0.0,0.0,0.0,0.0,0.0,0.0,0.0,0.0,-0.8483,0.0,0.0,0.0,0.0,0.0,0.0,0.0,0.0,0.0,0.0,0.0,0.0,0.0,0.0,0.0,0.0,0.0,0.0,0.0,0.0,0.0,0.0,0.0,0.0,0.0,0.0,0.0,0.0,0.0,0.0,0.0,0.0,0.0,0.0,0.0,0.0,0.0,0.0,0.0,0.0,0.0,0.0,0.0,0.0,0.0,0.0,0.0,0.0,0.0,0.0,0.0,0.0,0.0,0.0,0.0,0.0,-1.2096,-1.2198,-1.2475,-1.2939,-1.4079,-1.4102,-1.2993,-1.4079,-1.3727,-1.1702,0.0,0.0,0.0,0.0,0.0,0.0,0.0,0.0,0.0,0.0,0.0,0.0,0.0,0.0,0.0,0.0,0.0,0.0,0.0,0.0,0.0,0.0,0.0,0.0,0.0,0.0,0.0,0.0,0.0,0.0,0.0,0.0,0.0,0.0,0.0,0.0,0.0,0.0,0.0,-0.9667,-0.9999,0.0,0.0,0.0,0.0,0.0,0.0,0.0,0.0,-0.8767,0.0,0.0,0.0,0.0,0.0,0.0,0.0,0.0,0.0,0.0,0.0,0.0,0.0,0.0,0.0,0.0,0.0,0.0,0.0,0.0,0.0,0.0,0.0,0.0,0.0,0.0,0.0,0.0,0.0,0.0,0.0,0.0,0.0,0.0,0.0,0.0,0.0,0.0,0.0,0.0,0.0,0.0,0.0,0.0,0.0,0.0,0.0,0.0,0.0,0.0,0.0,0.0,0.0,0.0,0.0,-1.197,-1.2381,-1.2783,-1.3203,-1.3809,-1.3721,-1.2944,-1.3502,-1.3111,0.0,0.0,0.0,0.0,0.0,0.0,0.0,0.0,0.0,0.0,0.0,0.0,0.0,0.0,0.0,0.0,0.0,0.0,0.0,0.0,0.0,0.0,0.0,0.0,0.0,0.0,0.0,0.0,0.0,0.0,0.0,0.0,0.0,0.0,0.0,0.0,0.0,0.0,0.0,0.0,-1.0,-1.0381,-1.0596,0.0,0.0,0.0,0.0,0.0,0.0,-0.9258,-0.8984,0.0,0.0,0.0,0.0,0.0,0.0,0.0,0.0,0.0,0.0,0.0,0.0,0.0,0.0,0.0,0.0,0.0,0.0,0.0,0.0,0.0,0.0,0.0,0.0,0.0,0.0,0.0,0.0,0.0,0.0,0.0,0.0,0.0,0.0,0.0,0.0,0.0,0.0,0.0,0.0,0.0,0.0,0.0,0.0,0.0,0.0,0.0,0.0,0.0,0.0,0.0,0.0,0.0,0.0,0.0,-1.181,-1.2439,-1.2998,-1.3486,-1.3584,-1.3389,-1.2935,-1.3213,-1.2846,0.0,0.0,0.0,0.0,0.0,0.0,0.0,0.0,0.0,0.0,0.0,0.0,0.0,0.0,0.0,0.0,0.0,0.0,0.0,0.0,0.0,0.0,0.0,0.0,0.0,0.0,0.0,0.0,0.0,0.0,0.0,0.0,0.0,0.0,0.0,0.0,0.0,0.0,0.0,0.0,0.0,-1.0909,-1.1143,-1.082,0.0,0.0,0.0,0.0,-1.0723,-1.0156,0.0,0.0,0.0,0.0,0.0,0.0,0.0,0.0,0.0,0.0,0.0,0.0,0.0,0.0,0.0,0.0,0.0,0.0,0.0,0.0,0.0,0.0,0.0,0.0,0.0,0.0,0.0,0.0,0.0,0.0,0.0,0.0,0.0,0.0,0.0,0.0,0.0,0.0,0.0,0.0,0.0,0.0,0.0,0.0,0.0,0.0,0.0,0.0,0.0,0.0,0.0,0.0,0.0,0.0,0.0,0.0,-1.2249,-1.2302,-1.2681,-1.3467,-1.3841,-1.3682,-1.2954,-1.4336,-1.3994,0.0,0.0,0.0,0.0,0.0,0.0,0.0,0.0,0.0,0.0,0.0,0.0,0.0,0.0,0.0,0.0,0.0,0.0,0.0,0.0,0.0,0.0,0.0,0.0,0.0,0.0,0.0,0.0,0.0,0.0,0.0,0.0,0.0,0.0,0.0,0.0,0.0,0.0,0.0,0.0,0.0,-1.2451,-1.2096,-1.1721,-1.1555,0.0,0.0,-1.1653,-1.2475,-1.2168,0.0,0.0,0.0,0.0,0.0,0.0,0.0,0.0,0.0,0.0,0.0,0.0,0.0,0.0,0.0,0.0,0.0,0.0,0.0,0.0,0.0,0.0,0.0,0.0,0.0,0.0,0.0,0.0,0.0,0.0,0.0,0.0,0.0,0.0,0.0,0.0,0.0,0.0,0.0,0.0,0.0,0.0,0.0,0.0,0.0,0.0,0.0,0.0,0.0,0.0,0.0,0.0,0.0,0.0,0.0,-1.0981,-1.2624,-1.2631,-1.3125,-1.417,-1.3936,-1.3603,-1.3267,-1.3721,-1.3105,0.0,0.0,0.0,0.0,0.0,0.0,0.0,0.0,0.0,0.0,0.0,0.0,0.0,0.0,0.0,0.0,0.0,0.0,0.0,0.0,0.0,0.0,0.0,0.0,0.0,0.0,0.0,0.0,0.0,0.0,0.0,0.0,0.0,0.0,0.0,0.0,0.0,0.0,0.0,0.0,0.0,0.0,-1.2871,-1.2783,0.0,0.0,0.0,-1.2817,-1.3184,0.0,0.0,0.0,0.0,0.0,0.0,0.0,0.0,0.0,0.0,0.0,0.0,0.0,0.0,0.0,0.0,0.0,0.0,0.0,0.0,0.0,0.0,0.0,0.0,0.0,0.0,0.0,0.0,0.0,0.0,0.0,0.0,0.0,0.0,0.0,0.0,0.0,0.0,0.0,0.0,0.0,0.0,0.0,0.0,0.0,0.0,0.0,0.0,0.0,0.0,0.0,0.0,0.0,0.0,0.0,0.0,0.0,-1.2856,-1.2915,-1.3531,-1.4745,-1.4053,-1.3623,-1.3506,-1.3433,0.0,0.0,0.0,0.0,0.0,0.0,0.0,0.0,0.0,0.0,0.0,0.0,0.0,0.0,0.0,0.0,0.0,0.0,0.0,0.0,0.0,0.0,0.0,0.0,0.0,0.0,0.0,-0.5566,0.0,0.0,0.0,0.0,0.0,0.0,0.0,0.0,0.0,0.0,0.0,0.0,0.0,0.0,-1.2338,-1.3506,-1.3636,-1.3623,0.0,0.0,-1.3857,-1.3975,-1.3447,-1.271,0.0,0.0,0.0,0.0,0.0,0.0,0.0,0.0,0.0,0.0,0.0,0.0,0.0,0.0,0.0,0.0,0.0,0.0,0.0,0.0,0.0,0.0,0.0,0.0,0.0,0.0,0.0,0.0,0.0,0.0,0.0,0.0,0.0,0.0,0.0,0.0,0.0,0.0,0.0,0.0,0.0,0.0,0.0,0.0,0.0,0.0,0.0,0.0,0.0,0.0,0.0,0.0,0.0,0.0,0.0,-1.2837,-1.2915,-1.3531,-1.4717,-1.4299,-1.388,-1.3535,-1.4258,-1.3652,0.0,0.0,0.0,0.0,0.0,0.0,0.0,0.0,0.0,0.0,0.0,0.0,0.0,0.0,0.0,0.0,0.0,0.0,0.0,0.0,0.0,0.0,0.0,0.0,0.0,0.0,0.0,0.0,0.0,0.0,0.0,0.0,0.0,0.0,0.0,0.0,0.0,0.0,0.0,0.0,0.0,-1.3115,-1.3948,-1.4065,-1.4338,0.0,0.0,-1.4834,-1.5215,-1.5186,-1.4512,-1.2496,0.0,0.0,0.0,0.0,0.0,0.0,0.0,0.0,0.0,0.0,0.0,0.0,0.0,0.0,0.0,0.0,0.0,0.0,0.0,0.0,0.0,0.0,0.0,0.0,0.0,0.0,0.0,0.0,0.0,0.0,0.0,0.0,0.0,0.0,0.0,0.0,0.0,0.0,0.0,0.0,0.0,0.0,0.0,0.0,0.0,0.0,0.0,0.0,0.0,0.0,0.0,0.0,0.0,-1.1164,-1.2876,-1.3135,-1.3887,-1.5088,-1.4756,-1.4336,-1.388,-1.4209,-1.3369,0.0,0.0,0.0,0.0,0.0,0.0,0.0,0.0,0.0,0.0,0.0,0.0,0.0,0.0,0.0,0.0,0.0,0.0,0.0,0.0,0.0,0.0,0.0,0.0,0.0,0.0,0.0,0.0,-0.7617,-0.7896,-0.7906,0.0,0.0,0.0,0.0,0.0,0.0,0.0,0.0,0.0,0.0,-1.3369,-1.4699,-1.4894,0.0,0.0,-1.5273,-1.5322,-1.5772,-1.5146,-1.4319,-1.351,-1.2881,0.0,0.0,0.0,0.0,0.0,0.0,0.0,0.0,0.0,0.0,0.0,0.0,0.0,0.0,0.0,0.0,0.0,0.0,0.0,0.0,0.0,0.0,0.0,0.0,0.0,0.0,0.0,0.0,0.0,0.0,0.0,0.0,0.0,0.0,0.0,0.0,0.0,0.0,0.0,0.0,0.0,0.0,0.0,0.0,0.0,0.0,0.0,0.0,0.0,0.0,0.0,0.0,-1.1291,-1.2886,-1.3301,-1.4121,-1.5381,-1.5,-1.4639,-1.4346,-1.4172,-1.3276,0.0,0.0,0.0,0.0,0.0,0.0,0.0,0.0,0.0,0.0,0.0,0.0,0.0,0.0,0.0,0.0,0.0,0.0,0.0,0.0,0.0,0.0,0.0,0.0,0.0,0.0,0.0,0.0,-0.8271,-0.8346,-0.8203,0.0,0.0,0.0,0.0,0.0,0.0,0.0,0.0,0.0,0.0,-1.3828,-1.5381,-1.5723,-1.5771,-1.5771,-1.5693,-1.5713,-1.6046,-1.5332,-1.4543,-1.4172,0.0,0.0,0.0,0.0,0.0,0.0,0.0,0.0,0.0,0.0,0.0,0.0,0.0,0.0,0.0,0.0,0.0,0.0,0.0,0.0,0.0,0.0,0.0,0.0,0.0,0.0,0.0,0.0,0.0,0.0,-1.0592,0.0,0.0,0.0,0.0,0.0,0.0,0.0,0.0,0.0,0.0,0.0,0.0,0.0,0.0,0.0,0.0,0.0,0.0,0.0,0.0,0.0,0.0,-1.1553,-1.2886,-1.333,-1.4141,-1.5352,-1.5028,-1.4785,-1.4784,-1.4328,-1.3721,-1.2837,0.0,0.0,0.0,0.0,0.0,0.0,0.0,0.0,0.0,0.0,0.0,0.0,0.0,0.0,0.0,0.0,0.0,0.0,0.0,0.0,0.0,0.0,0.0,0.0,0.0,0.0,-0.8889,-0.863,-0.8238,0.0,0.0,0.0,0.0,0.0,0.0,0.0,0.0,0.0,0.0,-1.3603,-1.459,-1.5899,-1.6426,-1.6638,-1.6658,-1.6338,-1.6085,-1.6114,-1.6065,-1.5625,0.0,0.0,0.0,0.0,0.0,0.0,0.0,0.0,0.0,0.0,0.0,0.0,0.0,0.0,0.0,0.0,0.0,0.0,0.0,0.0,0.0,0.0,0.0,0.0,0.0,0.0,0.0,-1.253,-1.2322,0.0,0.0,0.0,0.0,0.0,0.0,0.0,0.0,0.0,0.0,0.0,-1.4346,-1.4465,0.0,0.0,0.0,0.0,0.0,0.0,0.0,0.0,0.0,0.0,0.0,0.0,-1.2005,-1.3262,-1.3994,-1.4697,-1.5362,-1.5273,-1.5068,-1.4823,-1.4666,-1.3896,-1.2467,0.0,0.0,0.0,0.0,0.0,0.0,0.0,0.0,0.0,0.0,0.0,0.0,0.0,0.0,0.0,0.0,0.0,0.0,0.0,0.0,0.0,0.0,0.0,0.0,0.0,-0.8403,0.0,0.0,0.0,0.0,0.0,0.0,0.0,0.0,0.0,0.0,0.0,-1.2744,-1.3603,-1.4697,-1.5821,-1.6829,-1.6816,-1.6804,0.0,0.0,0.0,0.0,0.0,0.0,0.0,0.0,0.0,0.0,0.0,0.0,0.0,0.0,-1.4533,-1.2774,-1.1973,-1.1709,-1.2162,0.0,0.0,0.0,0.0,0.0,0.0,0.0,0.0,0.0,0.0,0.0,0.0,0.0,0.0,-1.3965,0.0,-1.3629,0.0,0.0,0.0,0.0,0.0,0.0,0.0,0.0,-1.4648,-1.5293,-1.6084,-1.5947,-1.5547,0.0,-1.4728,-1.3594,0.0,0.0,0.0,0.0,0.0,0.0,0.0,0.0,-1.2533,-1.3496,-1.4346,-1.499,-1.5391,-1.542,-1.5273,-1.501,-1.4863,-1.4079,-1.2486,-1.1777,-1.1154,0.0,0.0,0.0,0.0,0.0,0.0,0.0,0.0,0.0,0.0,0.0,0.0,0.0,0.0,0.0,0.0,0.0,0.0,0.0,0.0,0.0,0.0,0.0,-0.9062,0.0,0.0,0.0,0.0,0.0,0.0,0.0,0.0,0.0,-1.0761,-1.234,-1.3743,-1.4465,-1.5566,-1.6562,-1.7285,0.0,0.0,0.0,0.0,0.0,0.0,0.0,-1.6289,-1.6865,-1.6377,-1.5811,-1.5508,-1.6289,-1.6816,-1.6367,0.0,0.0,-1.3995,-1.3027,-1.2678,-1.3136,-1.3312,-1.3159,-1.24,-1.2364,-1.2158,0.0,0.0,0.0,0.0,0.0,0.0,0.0,0.0,-1.4998,-1.5156,0.0,-1.5068,0.0,0.0,0.0,0.0,0.0,-1.4678,0.0,0.0,-1.6738,-1.7383,-1.7353,-1.6963,-1.6736,-1.6736,-1.6697,-1.581,-1.4124,-1.2096,0.0,0.0,0.0,0.0,0.0,0.0,-1.3169,-1.3603,-1.4453,-1.5059,-1.543,-1.5449,-1.543,-1.5362,-1.5,-1.4209,-1.3062,-1.3252,-1.2695,-1.1094,-1.0907,0.0,0.0,0.0,0.0,0.0,0.0,0.0,0.0,0.0,0.0,0.0,0.0,0.0,0.0,0.0,0.0,0.0,0.0,0.0,0.0,-1.0273,0.0,0.0,0.0,0.0,0.0,0.0,0.0,0.0,0.0,0.0,-1.3042,-1.3379,-1.4072,-1.5293,0.0,0.0,0.0,0.0,-1.8027,-1.8047,-1.7715,-1.7451,-1.7504,-1.7432,-1.7422,-1.7484,0.0,0.0,-1.6921,-1.7798,-1.8198,-1.7028,-1.7463,-1.7629,-1.6449,-1.4669,-1.3559,-1.389,-1.3695,-1.3254,-1.3068,-1.3337,-1.3343,-1.7762,0.0,0.0,0.0,0.0,-1.6596,-1.7105,-1.8003,-1.7666,-1.7399,-1.7236,-1.6826,0.0,0.0,0.0,0.0,0.0,0.0,-1.6523,-1.6836,-1.7207,-1.7539,-1.7822,-1.7695,-1.7646,-1.7603,-1.7334,-1.6787,-1.5937,-1.5049,-1.3463,-1.1271,0.0,0.0,0.0,0.0,-1.4443,-1.4893,-1.5703,-1.62,-1.6317,-1.6035,-1.5723,-1.542,-1.5,-1.4609,-1.4275,-1.3502,-1.2978,-1.2754,-1.155,0.0,0.0,0.0,0.0,0.0,0.0,0.0,0.0,0.0,0.0,0.0,0.0,0.0,0.0,0.0,0.0,0.0,0.0,0.0,-1.0147,-1.0264,-1.04,0.0,0.0,0.0,0.0,0.0,0.0,0.0,0.0,0.0,-1.5038,-1.5537,-1.5917,0.0,0.0,-1.7769,-1.8223,-1.8344,-1.8529,-1.8867,-1.8818,0.0,0.0,-1.8477,-1.8389,-1.8691,-1.8848,-1.8838,-1.8594,-1.8857,-1.8984,-1.8594,-1.8323,-1.8005,-1.7667,-1.6609,-1.5877,-1.6197,-1.5523,-1.4801,-1.4796,-1.467,-1.4361,-2.0176,-1.8701,-1.7808,-1.7881,-1.8496,-1.8418,-1.8828,-1.9531,-1.9434,-1.917,-1.875,-1.8496,-1.7852,-1.6934,-1.6758,0.0,0.0,0.0,-1.7978,-1.8379,-1.8213,-1.8447,-1.8975,-1.8682,-1.8516,-1.8486,-1.8086,-1.7656,-1.7204,-1.6973,-1.5782,-1.3682,0.0,0.0,-1.351,-1.4521,-1.5156,-1.542,-1.5907,-1.6258,-1.6455,-1.6377,-1.6123,-1.5684,-1.5459,-1.5165,-1.4795,-1.4209,-1.376,-1.3516,-1.2652,-1.1797,0.0,0.0,0.0,0.0,0.0,0.0,0.0,0.0,0.0,0.0,0.0,-0.888,0.0,0.0,0.0,0.0,-1.0021,-1.0747,-1.1151,-1.1276,0.0,0.0,0.0,0.0,0.0,0.0,0.0,-1.458,-1.496,-1.5488,-1.6711,-1.7207,-1.7389,-1.7233,-1.7978,-1.8603,-1.8867,0.0,-1.8994,-1.9258,-1.9277,-1.9277,-1.9277,-1.9072,-1.9043,-1.9463,-1.9687,-1.9832,-1.9832,-1.9795,-1.9832,-1.9748,-1.9457,-1.9033,-1.8691,-1.7857,-1.7056,-1.6783,-1.608,-1.547,-1.5219,-1.4935,-1.4675,-2.1963,-2.1768,-1.9738,-1.9189,-1.957,-1.9922,-2.0098,-2.0156,-2.0508,-2.0439,-2.003,-1.999,-1.9717,-1.9258,-1.887,0.0,-1.8724,-1.9189,-1.9561,-1.9902,-1.9521,-1.9736,-2.0449,-1.9686,-1.9343,-1.9326,-1.8861,-1.8451,-1.8125,-1.8105,-1.7695,-1.6853,-1.6073,-1.5635,-1.5478,-1.5537,-1.5576,-1.5576,-1.5615,-1.5801,-1.6193,-1.6572,-1.6562,-1.6105,-1.6125,-1.5703,-1.4902,-1.5137,-1.4785,-1.3701,-1.389,-1.3149,-1.126,0.0,0.0,0.0,0.0,0.0,0.0,0.0,0.0,0.0,0.0,0.0,0.0,0.0,0.0,0.0,-1.1543,0.0,-1.2816,-1.289,0.0,0.0,0.0,-1.2162,-1.3111,-1.3848,-1.4445,-1.4941,0.0,0.0,-1.7974,-1.8412,-1.8559,-1.8213,-1.8818,-1.9297,-1.9336,-1.9336,-1.9336,-1.9424,-1.9404,-1.9394,-1.9473,-1.9443,-1.9551,-1.9912,-2.0303,-2.0546,-2.0556,-2.0556,-2.0586,-2.0556,-2.0605,-2.0343,-1.952,-1.8757,-1.7735,-1.642,-1.5853,-1.5436,-1.4842,-1.4653,-1.4653,-2.2656,-2.2324,-2.1797,-2.165,-2.1728,-2.1504,-2.1592,-2.1875,-2.167,-2.1514,-2.1377,-2.0752,-2.0038,-1.9297,-1.9512,-1.9609,-1.9629,-2.0059,-2.0175,-1.9912,-1.9805,-1.9707,-1.958,-1.9385,-1.9453,-1.9727,-1.9336,-1.9082,-1.8984,-1.8984,-1.8711,-1.8178,-1.8301,-1.7572,-1.6026,-1.6604,-1.6904,-1.6914,-1.7227,-1.7285,-1.7112,-1.7178,-1.6855,-1.6124,-1.6125,-1.584,-1.5283,-1.4689,-1.4426,-1.4463,-1.3955,-1.3418,-1.292,-1.1626,0.0,0.0,0.0,0.0,0.0,0.0,0.0,0.0,0.0,-1.0488,-0.8965,0.0,-1.1183,0.0,-1.2158,-1.3114,-1.4048,-1.3381,0.0,0.0,-1.4297,-1.4094,-1.5605,-1.5684,-1.5938,-1.668,-1.7412,-1.8018,-1.8403,-1.9141,-1.9533,-1.9436,-1.9355,-1.9404,-1.9707,-1.9766,-1.9883,-2.0166,-2.0282,-2.0302,-2.0282,-2.0302,-2.0341,-2.04,-2.0546,-2.0605,-2.0615,-2.0615,-2.0615,-2.0615,-2.0615,-2.0527,-2.0294,-2.0089,-1.9601,-1.8565,-1.6862,-1.5427,-1.5196,-1.5196,-1.5155,-2.353,-2.3359,-2.3359,-2.3359,-2.3301,-2.25,-2.2295,-2.249,-2.2266,-2.206,-2.1865,-2.1562,-2.1172,-2.0762,-2.1122,-2.121,-2.1084,-2.1123,-2.0918,-2.0498,-2.0293,-2.0116,-1.9901,-1.9891,-1.9873,-1.9902,-1.9678,-1.957,-1.9561,-1.9561,-1.9346,-1.8909,-1.9355,-1.8779,-1.7295,-1.7695,-1.7852,-1.7676,-1.7705,-1.7617,-1.7435,-1.7568,-1.7334,-1.6721,-1.6682,-1.6378,-1.5713,-1.5244,-1.4844,-1.4502,-1.4219,-1.3844,-1.3252,-1.2483,-1.1872,0.0,0.0,0.0,0.0,0.0,0.0,0.0,0.0,0.0,0.0,0.0,-1.172,-1.1872,-1.303,-1.4053,-1.4716,-1.458,-1.4973,-1.623,-1.5683,-1.5722,-1.6904,-1.6963,-1.722,-1.7861,-1.832,-1.873,-1.9124,-1.9582,-1.999,-2.0176,-2.0048,-1.9979,-2.0184,-2.0205,-2.0293,-2.0566,-2.0772,-2.0869,-2.0869,-2.1065,-2.1084,-2.0918,-2.1025,-2.1192,-2.1192,-2.1192,-2.1094,-2.0918,-2.0859,-2.0731,-2.0366,-2.0286,-2.0045,-1.929,-1.7796,-1.6477,-1.605,-1.5989,-1.5906,-2.4424,-2.4424,-2.4424,-2.4424,-2.4336,-2.3223,-2.2725,-2.2676,-2.2617,-2.2353,-2.1982,-2.2353,-2.248,-2.2461,-2.2769,-2.2783,-2.2412,-2.2051,-2.168,-2.1259,-2.0918,-2.0703,-2.0693,-2.0693,-2.042,-2.001,-1.999,-1.9961,-1.9884,-1.9971,-1.9785,-1.9441,-1.9795,-1.9619,-1.887,-1.8792,-1.8529,-1.8096,-1.7676,-1.7461,-1.7471,-1.7812,-1.7812,-1.7445,-1.7357,-1.6946,-1.6144,-1.6036,-1.5469,-1.4367,-1.4658,-1.4392,-1.3281,-1.3396,-1.3157,0.0,-1.2264,0.0,0.0,0.0,0.0,0.0,0.0,0.0,0.0,-1.2319,-1.2346,-1.2569,-1.4138,-1.519,-1.5343,-1.6045,-1.6674,-1.6977,-1.698,-1.7116,-1.7578,-1.7959,-1.8311,-1.8646,-1.9102,-1.9521,-1.9824,-1.9961,-2.0166,-2.0566,-2.0674,-2.0664,-2.0772,-2.0732,-2.0723,-2.0752,-2.1064,-2.1318,-2.1348,-2.1621,-2.1719,-2.1395,-2.1582,-2.1885,-2.1836,-2.1846,-2.1748,-2.1416,-2.1318,-2.1067,-2.0298,-2.0094,-1.9866,-1.9558,-1.876,-1.7886,-1.704,-1.6648,-1.6428,-2.4424,-2.4424,-2.4424,-2.4424,-2.4394,-2.416,-2.3867,-2.3516,-2.313,-2.2783,-2.2402,-2.2471,-2.2314,-2.2021,-2.208,-2.209,-2.2002,-2.1924,-2.1846,-2.1748,-2.168,-2.1445,-2.1083,-2.1073,-2.0879,-2.0498,-2.0478,-2.0254,-1.9894,-2.0273,-2.0215,-1.9814,-2.0234,-2.04,-2.0233,0.0,0.0,0.0,-1.8105,-1.7891,-1.79,-1.7969,-1.7803,-1.7393,-1.7041,0.0,-1.6124,-1.5723,-1.543,-1.5157,-1.5254,0.0,0.0,0.0,0.0,0.0,0.0,0.0,0.0,0.0,0.0,0.0,-1.3777,-1.3435,-1.288,-1.3983,-1.4713,-1.4687,-1.5678,-1.6609,-1.722,-1.7222,-1.7642,-1.8652,-1.8486,-1.8412,-1.8877,-1.8994,-1.9082,-1.916,-1.9541,-1.9824,-1.9941,-2.0215,-2.0605,-2.1035,-2.1103,-2.126,-2.1582,-2.1318,-2.125,-2.1562,-2.1709,-2.1758,-2.1768,-2.1846,-2.1943,-2.1787,-2.1807,-2.1904,-2.1934,-2.1924,-2.1894,-2.1758,-2.1768,-2.1717,-2.1501,-2.0861,-2.0378,-2.0241,-2.0047,-1.9417,-1.7908,-1.6988,-1.6402,-2.5031,0.0,-2.5068,-2.5021,0.0,-2.4844,-2.4609,-2.4394,-2.3955,-2.3535,-2.3135,-2.2867,-2.2662,-2.25,-2.25,-2.251,-2.25,-2.2285,-2.2197,-2.2187,-2.1982,-2.1777,-2.1522,-2.1522,-2.1435,-2.1251,-2.0996,-2.0781,-2.0537,-2.0566,-2.038,-1.9884,-2.039,-2.0498,-2.0244,-2.0019,-1.9455,-1.8607,-1.8188,-1.8008,-1.8008,-1.8008,-1.791,-1.7686,0.0,0.0,0.0,0.0,0.0,0.0,0.0,0.0,0.0,0.0,0.0,-1.4757,-1.457,-1.4322,-1.4163,-1.4643,-1.5099,-1.5313,-1.5671,-1.5399,-1.4228,-1.5058,-1.5675,-1.5757,-1.6461,-1.7197,-1.7865,-1.8077,-1.8479,-1.9189,-1.9092,-1.9131,-1.9512,-1.959,-1.9678,-1.9902,-2.0107,-2.0312,-2.0537,-2.0742,-2.1064,-2.1475,-2.1522,-2.1709,-2.206,-2.1826,-2.1719,-2.2119,-2.2197,-2.2197,-2.2217,-2.2393,-2.2412,-2.2275,-2.2363,-2.248,-2.25,-2.2457,-2.2441,-2.2256,-2.2197,-2.2187,-2.2155,-2.1757,-2.1509,-2.156,-2.095,-2.0114,-1.9121,-1.8337,-1.7739,-2.5684,-2.5684,-2.5684,-2.5684,-2.5654,-2.5342,-2.5185,-2.5146,0.0,0.0,0.0,-2.3481,-2.3315,-2.3315,-2.3247,-2.3208,-2.3179,-2.2769,-2.2584,-2.2607,-2.2266,-2.207,-2.2002,-2.2002,-2.1953,-2.1865,-2.1523,-2.1268,-2.1181,-2.0859,-2.0469,-2.0098,-2.0391,-2.0342,-1.9941,-1.9912,-1.9494,-1.8734,-1.834,-1.8125,-1.8081,-1.8047,-1.8008,-1.8008,-1.7607,-1.7217,-1.6833,-1.6494,-1.5997,-1.5332,-1.5576,-1.5605,-1.5322,-1.587,-1.6212,-1.6222,-1.6502,-1.6531,-1.6251,-1.667,-1.6865,-1.6672,-1.7337,-1.7212,-1.5943,-1.619,-1.6533,-1.6822,-1.7234,-1.775,-1.8358,-1.8853,-1.925,-1.9492,-1.959,-1.9785,-2.0098,-2.0225,-2.0439,-2.0762,-2.086,-2.0928,-2.1279,-2.1338,-2.1473,-2.1885,-2.1992,-2.2148,-2.2471,-2.2353,-2.2256,-2.2549,-2.2627,-2.2627,-2.2666,-2.2818,-2.2935,-2.2685,-2.29,-2.3081,-2.3101,-2.3101,-2.2955,-2.2633,-2.2627,-2.2627,-2.2584,-2.236,-2.2476,-2.2795,-2.1641,-2.0458,-2.0406,-1.9973,-1.941,-2.5684,-2.5684,-2.5684,-2.5684,-2.5684,-2.5625,-2.5586,-2.5576,-2.4766,-2.4394,-2.4316,-2.4268,-2.4238,-2.4209,-2.3857,-2.3701,-2.3672,-2.3252,-2.3003,0.0,-2.2945,-2.2773,-2.2432,-2.2422,-2.2236,-2.1904,-2.1826,-2.1602,-2.122,-2.1132,-2.0908,-2.0576,-2.0576,-2.0352,-1.9951,-1.9912,-1.9678,-1.9199,-1.8724,-1.851,-1.85,-1.8169,-1.8008,-1.7988,-1.7617,-1.7396,-1.7295,-1.7227,-1.7181,-1.7054,-1.7112,-1.707,-1.7044,-1.6755,-1.6609,-1.6609,-1.6668,-1.6668,-1.667,-1.735,-1.8125,-1.8769,-1.8991,-1.8617,-1.7741,-1.7981,-1.8415,-1.8831,-1.8881,-1.9147,-1.9613,-1.973,-1.9991,-2.0361,-2.0723,-2.0947,-2.0995,-2.1328,-2.1553,-2.1621,-2.175,-2.1721,-2.1768,-2.1797,-2.1943,-2.2314,-2.2422,-2.2568,-2.2847,-2.2964,-2.2945,-2.2994,-2.3003,-2.3013,-2.2974,-2.3033,-2.3052,-2.3033,-2.3033,-2.3101,-2.3101,-2.3101,-2.3052,-2.3003,-2.2964,-2.2974,-2.2974,-2.2328,-2.2108,-2.2094,-2.1641,-2.1418,-2.1373,-2.122,-2.0437,-2.5684,-2.5684,-2.5684,-2.5684,-2.5684,-2.5684,-2.5684,-2.5654,-2.5265,-2.499,-2.4746,-2.4521,-2.4424,-2.4404,-2.4209,-2.4121,-2.4121,-2.3916,-2.3711,-2.3496,-2.3452,-2.3218,-2.2838,-2.2808,-2.2701,-2.2559,-2.2334,-2.2119,-2.1924,-2.1709,-2.1484,-2.1279,-2.1045,-2.0713,-2.0331,-2.0264,-2.0176,-1.9999,-1.9326,-1.8984,-1.8984,-1.8799,-1.8701,-1.8711,-1.8291,-1.8066,-1.8066,-1.7842,-1.7725,-1.7725,-1.7949,-1.7959,-1.7744,-1.7969,-1.8008,-1.7759,-1.7954,-1.8115,-1.8081,-1.8477,-1.8877,-1.9258,-1.9502,-1.9473,-1.9072,-1.8662,-1.8666,-1.9229,-1.9373,-1.9713,-2.0371,-2.0751,-2.1064,-2.13,-2.1475,-2.1592,-2.1602,-2.1748,-2.1885,-2.1936,-2.1936,-2.1973,-2.2197,-2.2227,-2.2383,-2.2721,-2.2808,-2.2896,-2.3071,-2.3101,-2.3101,-2.3091,-2.3091,-2.3091,-2.3101,-2.3101,-2.3101,-2.3101,-2.3101,-2.3101,-2.3101,-2.3101,-2.3101,-2.3101,-2.3101,-2.3101,-2.3101,-2.2775,-2.2511,-2.2413,-2.1971,-2.1793,-2.1695,-2.1329,-2.0195,-2.5684,-2.5684,-2.5684,-2.5684,-2.5684,-2.5684,-2.5684,-2.5684,-2.5674,-2.5537,-2.5195,-2.4853,-2.467,-2.4707,-2.4619,-2.456,-2.4551,-2.4463,-2.4238,-2.3955,-2.3926,-2.3701,-2.332,-2.3237,-2.3198,-2.3071,-2.276,-2.2607,-2.248,-2.2187,-2.1973,-2.1865,-2.1553,-2.1211,-2.0909,-2.0801,-2.0723,-2.0664,-1.9961,-1.9531,-1.9424,-1.9336,-1.9277,-1.9258,-1.8955,-1.8744,-1.8734,-1.8467,-1.8301,-1.8311,-1.8613,-1.8643,-1.835,-1.8926,-1.9141,-1.8831,-1.9092,-1.9363,-1.9414,-1.9424,-1.9473,-1.958,-1.998,-2.0205,-2.0129,-1.9551,-1.9249,-1.9666,-2.0045,-2.0448,-2.1043,-2.1549,-2.1936,-2.1936,-2.1982,-2.2021,-2.2031,-2.21,-2.2168,-2.2168,-2.2158,-2.2314,-2.2559,-2.2656,-2.2773,-2.2994,-2.3101,-2.3101,-2.3101,-2.3101,-2.3101,-2.3101,-2.3101,-2.3101,-2.3101,-2.3101,-2.3101,-2.3101,-2.3101,-2.3101,-2.3101,-2.3101,-2.3101,-2.3101,-2.3101,-2.3101,-2.3101,-2.3091,-2.3047,-2.296,-2.2511,-2.2094,-2.205,-2.1373,-2.0195,-2.5693,-2.5684,-2.5771,-2.5684,-2.5713,-2.5713,-2.5723,-2.5713,-2.5684,-2.5674,-2.5615,-2.5577,-2.5538,-2.5508,-2.5185,-2.5057,-2.498,-2.46,-2.4414,-2.4365,-2.4365,-2.4131,-2.376,-2.373,-2.3516,-2.3149,-2.3062,-2.2847,-2.2559,-2.248,-2.2266,-2.1934,-2.1846,-2.1807,-2.175,-2.1367,-2.1132,-2.1122,-2.0693,-2.0254,-1.9863,-1.9482,-1.9277,-1.9277,-1.9258,-1.9228,-1.9258,-1.9189,-1.9206,-1.9216,-1.9219,-1.9219,-1.9189,-1.9268,-1.9277,-1.9248,-1.9277,-1.9453,-1.9814,-1.9853,-2.0039,-2.0458,-2.083,-2.1054,-2.1064,-2.1374,-2.1361,-2.1168,-2.1421,-2.1642,-2.1785,-2.1904,-2.1973,-2.2021,-2.2266,-2.2451,-2.249,-2.2793,-2.2984,-2.2984,-2.2877,-2.2994,-2.2974,-2.2984,-2.3023,-2.3071,-2.3101,-2.3101,-2.3101,-2.3101,-2.3101,-2.3101,-2.3101,-2.3101,-2.3101,-2.3101,-2.3101,-2.3101,-2.3101,-2.3101,-2.3101,-2.3101,-2.3101,-2.3101,-2.3101,-2.3101,-2.3101,-2.3101,-2.3101,-2.3101,-2.296,-2.2916,-2.2872,-2.2192,-2.1006,-2.6993,-2.6993,-2.6784,-2.6584,-2.6494,-2.6494,-2.6494,-2.6475,-2.623,-2.6113,-2.6074,-2.5801,-2.5684,-2.5684,-2.5537,-2.5459,-2.5449,-2.5273,-2.5049,-2.4814,-2.4805,-2.458,-2.4189,-2.416,-2.3935,-2.3545,-2.3525,-2.331,-2.2949,-2.2838,-2.2623,-2.2295,-2.2256,-2.2129,-2.1894,-2.1699,-2.1621,-2.1621,-2.1476,-2.126,-2.1025,-2.04,-2.0077,-2.0087,-2.0077,-2.0087,-2.0049,-2.0087,-2.0077,-2.0077,-2.0077,-2.0087,-2.0049,-2.0087,-2.0087,-2.0077,-2.0077,-2.0155,-2.0331,-2.0547,-2.0771,-2.0957,-2.1367,-2.1621,-2.1631,-2.2012,-2.2178,-2.206,-2.2158,-2.2256,-2.2275,-2.248,-2.2617,-2.2604,-2.2783,-2.2838,-2.2847,-2.2984,-2.3101,-2.3101,-2.3101,-2.3101,-2.3101,-2.3101,-2.3101,-2.3101,-2.3101,-2.3101,-2.3101,-2.3101,-2.3101,-2.3101,-2.3101,-2.3101,-2.3101,-2.3101,-2.3101,-2.3101,-2.3101,-2.3101,-2.3101,-2.3101,-2.3101,-2.3101,-2.3101,-2.3101,-2.3101,-2.3101,-2.3101,-2.3101,-2.3101,-2.3101,-2.3101,-2.2775,-2.1917,-2.7885,-2.7834,-2.7551,-2.7307,-2.7104,-2.7012,-2.7012,-2.6982,-2.668,-2.6562,-2.6523,-2.6171,-2.6044,-2.6005,-2.5801,-2.5684,-2.5684,-2.5684,-2.5566,-2.5273,-2.5302,-2.5019,-2.4619,-2.46,-2.4375,-2.4023,-2.3965,-2.375,-2.3296,-2.314,-2.2935,-2.2672,-2.2676,-2.2539,-2.2246,-2.2129,-2.206,-2.2051,-2.1995,-2.1936,-2.1787,-2.13,-2.0909,-2.0752,-2.0664,-2.0615,-2.0615,-2.0615,-2.0615,-2.0605,-2.0615,-2.0615,-2.0615,-2.0615,-2.0654,-2.0752,-2.0909,-2.0967,-2.0967,-2.123,-2.1366,-2.1445,-2.1816,-2.206,-2.2129,-2.2441,-2.2666,-2.2633,-2.2643,-2.2685,-2.2725,-2.2916,-2.3081,-2.3101,-2.3101,-2.3101,-2.3091,-2.3101,-2.3101,-2.3101,-2.3101,-2.3101,-2.3101,-2.3101,-2.3101,-2.3101,-2.3101,-2.3101,-2.3101,-2.3101,-2.3101,-2.3101,-2.3101,-2.3101,-2.3101,-2.3101,-2.3101,-2.3101,-2.3101,-2.3101,-2.3101,-2.3101,-2.3101,-2.3101,-2.3101,-2.3101,-2.3101,-2.3101,-2.3101,-2.3101,-2.3101,-2.3101,-2.3101,-2.3047,-2.2828,-2.7885,-2.7854,-2.7571,-2.7449,-2.7358,-2.7153,-2.7041,-2.71,-2.7012,-2.6992,-2.6992,-2.6934,-2.6934,-2.6855,-2.6143,-2.5713,-2.5693,-2.5693,-2.5664,-2.5664,-2.5625,-2.5469,-2.5059,-2.5086,-2.4814,-2.4424,-2.4394,-2.417,-2.375,-2.3325,-2.3091,-2.3071,-2.3071,-2.3042,-2.2925,-2.2646,-2.249,-2.2461,-2.2148,-2.1934,-2.1924,-2.1865,-2.1611,-2.121,-2.081,-2.0674,-2.0654,-2.0635,-2.0635,-2.0625,-2.0674,-2.0654,-2.0635,-2.0644,-2.0801,-2.1182,-2.1582,-2.1797,-2.1777,-2.1826,-2.1855,-2.1914,-2.2246,-2.248,-2.251,-2.2779,-2.2994,-2.3052,-2.3013,-2.3023,-2.3023,-2.3042,-2.3101,-2.3101,-2.3101,-2.3101,-2.3101,-2.3101,-2.3101,-2.3101,-2.3101,-2.3101,-2.3101,-2.3101,-2.3101,-2.3101,-2.3101,-2.314,-2.3169,-2.314,-2.3149,-2.314,-2.313,-2.3101,-2.3101,-2.3101,-2.3101,-2.3101,-2.3101,-2.3101,-2.3101,-2.3101,-2.3101,-2.3101,-2.3101,-2.3101,-2.3101,-2.3101,-2.3101,-2.3101,-2.3101,-2.3101,-2.3101,-2.3101,-2.296,-2.9033,-2.8617,-2.8356,-2.8147,-2.798,-2.7885,-2.7832,-2.7803,-2.7549,-2.7432,-2.7373,-2.7148,-2.7012,-2.6992,-2.6699,-2.6406,-2.6143,-2.582,-2.5684,-2.5684,-2.5684,-2.5654,-2.5469,-2.5498,-2.5273,-2.4883,-2.4824,-2.4619,-2.4219,-2.3978,-2.3818,-2.3594,-2.3555,-2.3428,-2.312,-2.2945,-2.2867,-2.2857,-2.2711,-2.2685,-2.2637,-2.2432,-2.2207,-2.2041,-2.1641,-2.1416,-2.1456,-2.1456,-2.1447,-2.1416,-2.1416,-2.1416,-2.1447,-2.1456,-2.1515,-2.1641,-2.1797,-2.1936,-2.1924,-2.2139,-2.2285,-2.2314,-2.2676,-2.2857,-2.2886,-2.3003,-2.3101,-2.3101,-2.3101,-2.3101,-2.3101,-2.3101,-2.3101,-2.3101,-2.3101,-2.3101,-2.3101,-2.3101,-2.3101,-2.3101,-2.3101,-2.3101,-2.3101,-2.3101,-2.3101,-2.312,-2.3369,-2.3525,-2.3555,-2.3555,-2.3555,-2.3496,-2.333,-2.3188,-2.3555,-2.3237,-2.3101,-2.3101,-2.3101,-2.313,-2.314,-2.3149,-2.3159,-2.3169,-2.3149,-2.3101,-2.3101,-2.3101,-2.3101,-2.3101,-2.3101,-2.3101,-2.3101,-2.3101,-2.3101,-2.9784,-2.9353,-2.9089,-2.8877,-2.8708,-2.8601,-2.8548,-2.8518,-2.8157,-2.8029,-2.797,-2.7611,-2.7422,-2.7393,-2.7285,-2.708,-2.6768,-2.6357,-2.6025,-2.5957,-2.5947,-2.5879,-2.5703,-2.5684,-2.5576,-2.5283,-2.5165,-2.4912,-2.4639,-2.4482,-2.4268,-2.4014,-2.3994,-2.3779,-2.3418,-2.335,-2.3247,-2.313,-2.3101,-2.3091,-2.3062,-2.2818,-2.2715,-2.2676,-2.2432,-2.2148,-2.1914,-2.1936,-2.1936,-2.1936,-2.1936,-2.1936,-2.1894,-2.2012,-2.209,-2.21,-2.2227,-2.2295,-2.2314,-2.2559,-2.2715,-2.2682,-2.2916,-2.3101,-2.3101,-2.3218,-2.3296,-2.3325,-2.3461,-2.351,-2.351,-2.352,-2.3403,-2.3179,-2.3101,-2.3101,-2.3101,-2.3101,-2.3101,-2.3101,-2.3101,-2.3101,-2.312,-2.3227,-2.3296,-2.334,-2.3721,-2.3975,-2.3994,-2.3994,-2.3994,-2.3965,-2.3779,-2.376,-2.3926,-2.3818,-2.3676,-2.3666,-2.3569,-2.3471,-2.3374,-2.3344,-2.3276,-2.3266,-2.3198,-2.313,-2.3101,-2.3101,-2.3101,-2.3101,-2.3101,-2.3101,-2.3101,-2.3101,-2.3101,-2.9994,-2.9889,-2.9711,-2.9501,-2.9396,-2.9132,-2.9069,-2.9016,-2.8814,-2.8658,-2.8585,-2.8382,-2.8207,-2.8207,-2.7865,-2.7699,-2.7539,-2.7187,-2.6787,-2.6426,-2.6387,-2.6191,-2.582,-2.5781,-2.5713,-2.5606,-2.5283,-2.5145,-2.5059,-2.4736,-2.4521,-2.4434,-2.4378,-2.4209,-2.3799,-2.3779,-2.3594,-2.3286,-2.3208,-2.3149,-2.3101,-2.3071,-2.3033,-2.3052,-2.3013,-2.2705,-2.1992,-2.1973,-2.2012,-2.1973,-2.1973,-2.1924,-2.2051,-2.2314,-2.2477,-2.2526,-2.2828,-2.3033,-2.3042,-2.3042,-2.3023,-2.3042,-2.3101,-2.3179,-2.3237,-2.3574,-2.3789,-2.3838,-2.4092,-2.4336,-2.4316,-2.4297,-2.4023,-2.3296,-2.3257,-2.3257,-2.3159,-2.311,-2.3101,-2.3101,-2.314,-2.312,-2.3198,-2.3535,-2.3769,-2.3857,-2.415,-2.4434,-2.4424,-2.4424,-2.4424,-2.4414,-2.4268,-2.4189,-2.4307,-2.4414,-2.4424,-2.4414,-2.4277,-2.416,-2.4023,-2.3945,-2.3711,-2.3633,-2.3218,-2.313,-2.3101,-2.3101,-2.3101,-2.3101,-2.3101,-2.3101,-2.3101,-2.3101,-2.3101,-2.9722,-2.9669,-2.9396,-2.9227,-2.9237,-2.9132,-2.9132,-2.9132,-2.8983,-2.8973,-2.8983,-2.8867,-2.8771,-2.8601,-2.842,-2.8255,-2.8086,-2.793,-2.751,-2.6924,-2.6826,-2.6748,-2.6572,-2.6318,-2.6035,-2.5713,-2.5605,-2.5518,-2.5488,-2.5333,-2.5185,-2.4922,-2.4863,-2.4629,-2.4248,-2.4219,-2.4131,-2.3968,-2.373,-2.3584,-2.3555,-2.3247,-2.3101,-2.3101,-2.3091,-2.2988,-2.2721,-2.2711,-2.2701,-2.2725,-2.2744,-2.2744,-2.2764,-2.2818,-2.2906,-2.2916,-2.3013,-2.3101,-2.3101,-2.3101,-2.3101,-2.3149,-2.3364,-2.3564,-2.3623,-2.3984,-2.4209,-2.4219,-2.4346,-2.4424,-2.4424,-2.4424,-2.427,-2.4007,-2.4023,-2.3848,-2.3564,-2.334,-2.312,-2.313,-2.3398,-2.3564,-2.3662,-2.3955,-2.4209,-2.4258,-2.46,-2.4863,-2.4863,-2.4863,-2.4863,-2.4863,-2.4697,-2.4619,-2.4775,-2.4902,-2.4941,-2.4902,-2.4795,-2.4707,-2.459,-2.4394,-2.416,-2.3857,-2.3442,-2.3218,-2.3169,-2.3149,-2.3179,-2.311,-2.3101,-2.3101,-2.3101,-2.3101,-2.3101,-2.9774,-2.9722,-2.9501,-2.9459,-2.9448,-2.9406,-2.9459,-2.9396,-2.9343,-2.928,-2.9237,-2.9026,-2.893,-2.8834,-2.8621,-2.8514,-2.8451,-2.8344,-2.8008,-2.751,-2.7305,-2.7187,-2.6982,-2.6582,-2.626,-2.5996,-2.5762,-2.5684,-2.5684,-2.5674,-2.5547,-2.5361,-2.5312,-2.5098,-2.4707,-2.4648,-2.4609,-2.4404,-2.416,-2.4023,-2.3965,-2.375,-2.3569,-2.3578,-2.3613,-2.3569,-2.3578,-2.3569,-2.3422,-2.3169,-2.3101,-2.3101,-2.3101,-2.3091,-2.3101,-2.3101,-2.3091,-2.3101,-2.3101,-2.3101,-2.3179,-2.3389,-2.3633,-2.3867,-2.4043,-2.4414,-2.4648,-2.4658,-2.4834,-2.4855,-2.4922,-2.4912,-2.4912,-2.4855,-2.457,-2.4258,-2.3867,-2.3701,-2.35,-2.3555,-2.376,-2.3975,-2.4102,-2.4385,-2.4639,-2.4717,-2.5039,-2.5312,-2.5322,-2.5322,-2.5312,-2.5273,-2.5195,-2.5195,-2.5283,-2.5361,-2.543,-2.5361,-2.5216,-2.5138,-2.504,-2.4834,-2.458,-2.4258,-2.3851,-2.3691,-2.3623,-2.3496,-2.3457,-2.3286,-2.3179,-2.3101,-2.3101,-2.3101,-2.313,-2.9994,-2.9994,-2.9994,-2.9942,-2.9942,-2.9942,-2.9942,-2.9942,-2.9711,-2.9606,-2.9448,-2.9099,-2.893,-2.892,-2.8611,-2.8514,-2.8631,-2.8408,-2.8271,-2.8105,-2.7861,-2.751,-2.7109,-2.6768,-2.6553,-2.6377,-2.6015,-2.584,-2.5898,-2.582,-2.5723,-2.5723,-2.5645,-2.5527,-2.5176,-2.5155,-2.4932,-2.4658,-2.4512,-2.4453,-2.4453,-2.4365,-2.4346,-2.4346,-2.4326,-2.4307,-2.4287,-2.4268,-2.3919,-2.3266,-2.3188,-2.3169,-2.311,-2.311,-2.3179,-2.3198,-2.3159,-2.3237,-2.3198,-2.3305,-2.3413,-2.3789,-2.3935,-2.4014,-2.4453,-2.4844,-2.5107,-2.5127,-2.542,-2.5596,-2.5586,-2.5577,-2.5586,-2.5557,-2.4971,-2.4385,-2.3994,-2.4189,-2.4111,-2.3965,-2.417,-2.4453,-2.4473,-2.4844,-2.5049,-2.5166,-2.5439,-2.5596,-2.5596,-2.5615,-2.5645,-2.5586,-2.546,-2.5469,-2.5527,-2.5537,-2.5596,-2.5566,-2.546,-2.543,-2.5352,-2.5146,-2.4922,-2.4609,-2.4346,-2.416,-2.3994,-2.3877,-2.373,-2.3569,-2.3413,-2.3198,-2.3237,-2.3383,-2.3452,-2.9994,-2.9994,-2.9994,-2.9994,-2.9994,-2.9994,-2.9994,-2.9994,-2.9942,-2.9774,-2.9606,-2.9448,-2.9248,-2.9079,-2.8771,-2.8631,-2.8621,-2.8398,-2.8301,-2.8281,-2.8203,-2.7891,-2.7559,-2.7383,-2.7139,-2.6865,-2.6689,-2.668,-2.665,-2.6348,-2.6221,-2.6201,-2.5859,-2.5703,-2.5528,-2.5557,-2.5469,-2.5352,-2.5039,-2.4902,-2.4853,-2.459,-2.4424,-2.4424,-2.4443,-2.4453,-2.4424,-2.4424,-2.4189,-2.3691,-2.3623,-2.3457,-2.3208,-2.3413,-2.3613,-2.3643,-2.3842,-2.4017,-2.4053,-2.4043,-2.4121,-2.4258,-2.4492,-2.4822,-2.4883,-2.5303,-2.5518,-2.5576,-2.5693,-2.5684,-2.5684,-2.5684,-2.5684,-2.5674,-2.5215,-2.4834,-2.4734,-2.4521,-2.4365,-2.4316,-2.4639,-2.4844,-2.499,-2.5225,-2.5508,-2.5547,-2.5625,-2.5684,-2.5684,-2.5684,-2.5684,-2.5684,-2.5615,-2.5645,-2.5664,-2.5664,-2.5664,-2.5654,-2.5625,-2.5606,-2.5518,-2.5312,-2.5117,-2.4902,-2.4707,-2.4521,-2.4385,-2.4258,-2.4102,-2.3955,-2.3935,-2.3867,-2.4004,-2.4131,-2.4102,-2.9994,-2.9994,-2.9994,-2.9994,-2.9994,-2.9994,-2.9994,-2.9994,-2.9994,-2.9942,-2.9774,-2.9659,-2.9554,-2.9459,-2.894,-2.8781,-2.8834,-2.8451,-2.8291,-2.8301,-2.8281,-2.8144,-2.793,-2.7845,-2.7529,-2.7295,-2.7109,-2.7002,-2.6963,-2.6758,-2.667,-2.6572,-2.6221,-2.6016,-2.5996,-2.5762,-2.5684,-2.5625,-2.5469,-2.5352,-2.5322,-2.5107,-2.501,-2.498,-2.4971,-2.4971,-2.4923,-2.498,-2.4707,-2.4209,-2.4043,-2.3935,-2.374,-2.3906,-2.4053,-2.4062,-2.4297,-2.4404,-2.4424,-2.4424,-2.4512,-2.4668,-2.4998,-2.5146,-2.5332,-2.5605,-2.5684,-2.5674,-2.5684,-2.5684,-2.5684,-2.5684,-2.5684,-2.5703,-2.5498,-2.5283,-2.5155,-2.5019,-2.4873,-2.4863,-2.5059,-2.5352,-2.5342,-2.5538,-2.5635,-2.5674,-2.5645,-2.5684,-2.5684,-2.5684,-2.5684,-2.5684,-2.5684,-2.5684,-2.5684,-2.5684,-2.5684,-2.5684,-2.5684,-2.5684,-2.5596,-2.5469,-2.541,-2.5254,-2.5068,-2.4902,-2.4775,-2.4648,-2.4512,-2.4434,-2.4482,-2.4453,-2.4482,-2.4609,-2.4609,-2.9994,-2.9994,-2.9994,-2.9994,-2.9994,-2.9994,-2.9994,-2.9994,-2.9994,-2.9994,-2.9889,-2.9711,-2.9659,-2.9879,-2.9099,-2.8887,-2.9026,-2.8611,-2.8408,-2.8301,-2.8301,-2.8252,-2.8193,-2.7939,-2.7845,-2.7738,-2.7324,-2.7256,-2.7256,-2.7168,-2.708,-2.6982,-2.666,-2.6475,-2.6367,-2.6015,-2.5781,-2.5791,-2.5684,-2.5654,-2.5596,-2.5547,-2.5518,-2.5518,-2.5518,-2.5538,-2.5567,-2.5567,-2.5332,-2.4553,-2.4512,-2.4424,-2.4414,-2.4414,-2.4482,-2.4521,-2.4609,-2.4668,-2.46,-2.4697,-2.4756,-2.5078,-2.5194,-2.5293,-2.5605,-2.5664,-2.5684,-2.5684,-2.5684,-2.5684,-2.5684,-2.5684,-2.5684,-2.5674,-2.5664,-2.5527,-2.5332,-2.5498,-2.5576,-2.5272,-2.5518,-2.5635,-2.5684,-2.5684,-2.5684,-2.5684,-2.5684,-2.5684,-2.5684,-2.5684,-2.5684,-2.5684,-2.5684,-2.5684,-2.5684,-2.5684,-2.5684,-2.5684,-2.5684,-2.5684,-2.5684,-2.5596,-2.5635,-2.5547,-2.5343,-2.5264,-2.5185,-2.5049,-2.4922,-2.4902,-2.4941,-2.4775,-2.4648,-2.4863,-2.4951,-2.9994,-2.9994,-2.9994,-2.9994,-2.9994,-2.9994,-2.9994,-2.9994,-2.9994,-2.9889,-2.9722,-2.9606,-2.9659,-2.9659,-2.9237,-2.9026,-2.9079,-2.8771,-2.8514,-2.8301,-2.8301,-2.8301,-2.8281,-2.8154,-2.8154,-2.8096,-2.8066,-2.7998,-2.7939,-2.7656,-2.7529,-2.7471,-2.7119,-2.6885,-2.6816,-2.6475,-2.625,-2.6191,-2.5947,-2.5752,-2.5732,-2.5732,-2.5713,-2.5693,-2.5684,-2.5684,-2.5684,-2.5684,-2.5586,-2.542,-2.5107,-2.4805,-2.4629,-2.4785,-2.4922,-2.5,-2.5244,-2.5362,-2.5382,-2.5333,-2.5421,-2.5508,-2.5537,-2.5635,-2.5645,-2.5684,-2.5684,-2.5684,-2.5684,-2.5684,-2.5684,-2.5684,-2.5713,-2.5723,-2.5732,-2.5703,-2.5596,-2.5635,-2.5606,-2.5577,-2.5596,-2.5684,-2.5684,-2.5684,-2.5684,-2.5684,-2.5684,-2.5684,-2.5684,-2.5684,-2.5684,-2.5684,-2.5684,-2.5684,-2.5684,-2.5684,-2.5684,-2.5684,-2.5684,-2.5684,-2.5684,-2.5684,-2.5684,-2.5684,-2.5645,-2.5586,-2.5449,-2.5498,-2.5391,-2.5343,-2.5323,-2.5226,-2.5157,-2.5303,-2.5283,-2.9994,-2.9994,-2.9994,-2.9994,-2.9994,-2.9994,-2.9994,-2.9994,-2.9994,-2.9931,-2.9827,-2.9774,-2.9774,-2.9774,-2.9448,-2.9343,-2.9237,-2.9036,-2.8727,-2.8568,-2.8461,-2.8408,-2.8291,-2.8301,-2.8301,-2.8291,-2.8281,-2.8301,-2.8223,-2.8086,-2.7959,-2.793,-2.7539,-2.7344,-2.7256,-2.6894,-2.6699,-2.666,-2.6475,-2.626,-2.6084,-2.6045,-2.5849,-2.5723,-2.5684,-2.5684,-2.5684,-2.5684,-2.5684,-2.5625,-2.5508,-2.5293,-2.5107,-2.5234,-2.5361,-2.5439,-2.5566,-2.5684,-2.5674,-2.5684,-2.5664,-2.5684,-2.5684,-2.5684,-2.5684,-2.5684,-2.5684,-2.5684,-2.5684,-2.5684,-2.5684,-2.5684,-2.5742,-2.6006,-2.6035,-2.6113,-2.6171,-2.5947,-2.5684,-2.5684,-2.5674,-2.5684,-2.5684,-2.5801,-2.5752,-2.5771,-2.5723,-2.5713,-2.5693,-2.5693,-2.5684,-2.5684,-2.5684,-2.5684,-2.5684,-2.5684,-2.5684,-2.5684,-2.5684,-2.5684,-2.5684,-2.5684,-2.5684,-2.5684,-2.5684,-2.5684,-2.5596,-2.5684,-2.5684,-2.5586,-2.5547,-2.5645,-2.5635,-2.5508,-2.5479,-2.9994,-2.9994,-2.9994,-2.9994,-2.9994,-2.9994,-2.9994,-2.9994,-2.9994,-2.9994,-2.9994,-2.9994,-2.9942,-2.9942,-2.9774,-2.9659,-2.9501,-2.9248,-2.893,-2.8781,-2.8781,-2.8674,-2.8504,-2.8461,-2.8408,-2.8354,-2.8344,-2.8291,-2.8301,-2.8291,-2.8213,-2.8213,-2.7959,-2.7773,-2.7666,-2.7353,-2.7119,-2.71,-2.6963,-2.6777,-2.6543,-2.6475,-2.6279,-2.5967,-2.5898,-2.5771,-2.5723,-2.5684,-2.5713,-2.5771,-2.5723,-2.5732,-2.5771,-2.5703,-2.5684,-2.5664,-2.5674,-2.5674,-2.5684,-2.5684,-2.5684,-2.5684,-2.5781,-2.5801,-2.5869,-2.5927,-2.5947,-2.5859,-2.5889,-2.5849,-2.5791,-2.5966,-2.6182,-2.6387,-2.6484,-2.666,-2.6787,-2.6298,-2.6044,-2.5966,-2.6093,-2.6142,-2.6074,-2.6152,-2.5976,-2.5869,-2.583,-2.581,-2.583,-2.5752,-2.5771,-2.5762,-2.5781,-2.5703,-2.5684,-2.5732,-2.5732,-2.5771,-2.5752,-2.5752,-2.5732,-2.5684,-2.5684,-2.5684,-2.5684,-2.5684,-2.5684,-2.5684,-2.5684,-2.5684,-2.5684,-2.5684,-2.5684,-2.5684,-2.5684,-2.9994,-2.9994,-2.9994,-2.9994,-2.9994,-2.9994,-2.9994,-2.9994,-2.9994,-2.9994,-2.9994,-2.9994,-2.9994,-2.9994,-2.9942,-2.9827,-2.9606,-2.9353,-2.9132,-2.9036,-2.9036,-2.8983,-2.8877,-2.8727,-2.8621,-2.8578,-2.8461,-2.8344,-2.8291,-2.8301,-2.8301,-2.8271,-2.8203,-2.8154,-2.8027,-2.7793,-2.7559,-2.751,-2.7305,-2.708,-2.6953,-2.6846,-2.6689,-2.6318,-2.6279,-2.6133,-2.582,-2.5742,-2.5898,-2.6201,-2.5928,-2.5986,-2.6143,-2.5986,-2.5771,-2.5693,-2.5732,-2.5771,-2.5762,-2.5752,-2.5703,-2.5762,-2.6074,-2.6269,-2.6357,-2.6543,-2.6504,-2.6357,-2.6279,-2.6279,-2.6289,-2.6484,-2.6717,-2.6894,-2.6924,-2.6973,-2.7021,-2.6943,-2.6807,-2.6756,-2.6756,-2.6699,-2.6582,-2.6523,-2.6504,-2.6416,-2.6348,-2.6416,-2.6504,-2.626,-2.6016,-2.5986,-2.5957,-2.5791,-2.5684,-2.5762,-2.581,-2.5898,-2.5918,-2.5927,-2.5869,-2.5732,-2.5693,-2.5801,-2.5752,-2.5684,-2.5684,-2.5684,-2.5684,-2.5684,-2.5684,-2.5693,-2.5684,-2.5684,-2.5684,-2.9994,-2.9994,-2.9994,-2.9994,-2.9994,-2.9994,-2.9994,-2.9994,-2.9994,-2.9994,-2.9994,-2.9994,-2.9994,-2.9994,-2.9994,-2.9942,-2.9774,-2.9679,-2.9511,-2.9396,-2.9343,-2.9237,-2.9132,-2.8983,-2.893,-2.8824,-2.8674,-2.8408,-2.8344,-2.8291,-2.8301,-2.8291,-2.8301,-2.8301,-2.8262,-2.8096,-2.7988,-2.792,-2.7764,-2.7549,-2.7344,-2.7178,-2.6894,-2.6777,-2.6719,-2.6602,-2.6484,-2.6356,-2.6444,-2.6631,-2.6514,-2.6533,-2.6572,-2.6494,-2.6132,-2.5849,-2.5957,-2.6074,-2.6133,-2.623,-2.6426,-2.6386,-2.6611,-2.6699,-2.6748,-2.6855,-2.6924,-2.6797,-2.6709,-2.6709,-2.6719,-2.6924,-2.71,-2.7305,-2.7353,-2.7451,-2.7598,-2.7646,-2.7617,-2.7529,-2.7217,-2.7012,-2.6934,-2.6914,-2.6973,-2.6924,-2.6836,-2.6924,-2.708,-2.6738,-2.6348,-2.6377,-2.6377,-2.6318,-2.6201,-2.6191,-2.6182,-2.6161,-2.6191,-2.625,-2.624,-2.6172,-2.6113,-2.6133,-2.6016,-2.5859,-2.5693,-2.5703,-2.5693,-2.5713,-2.5762,-2.5791,-2.5713,-2.5684,-2.5732,-2.9994,-2.9994,-2.9994,-2.9994,-2.9994,-2.9994,-2.9994,-2.9994,-2.9994,-2.9994,-2.9994,-2.9994,-2.9994,-2.9994,-2.9994,-2.9994,-2.9994,-3.0005,-2.9837,-2.9722,-2.9669,-2.9501,-2.9343,-2.9237,-2.9175,-2.9195,-2.894,-2.8621,-2.8451,-2.8344,-2.8291,-2.8301,-2.8301,-2.8301,-2.8271,-2.8242,-2.8291,-2.8301,-2.8281,-2.8086,-2.7783,-2.7471,-2.7217,-2.7158,-2.7148,-2.71,-2.6934,-2.6904,-2.7002,-2.707,-2.7051,-2.7021,-2.7109,-2.706,-2.6649,-2.6142,-2.6338,-2.6465,-2.6582,-2.6738,-2.6875,-2.6865,-2.707,-2.7139,-2.7148,-2.7178,-2.7168,-2.7148,-2.7148,-2.7148,-2.7158,-2.7246,-2.7451,-2.7666,-2.7812,-2.7891,-2.8076,-2.8154,-2.8115,-2.791,-2.7529,-2.7412,-2.7422,-2.7471,-2.7568,-2.7461,-2.7363,-2.7383,-2.7451,-2.708,-2.6807,-2.6855,-2.6885,-2.6875,-2.6816,-2.6748,-2.6719,-2.668,-2.6699,-2.6699,-2.6699,-2.668,-2.6602,-2.6504,-2.6387,-2.626,-2.5976,-2.5849,-2.6064,-2.6123,-2.6025,-2.6064,-2.6221,-2.6103,-2.6016,-2.9994,-2.9994,-2.9994,-2.9994,-2.9994,-2.9994,-2.9994,-2.9994,-2.9994,-2.9994,-2.9994,-2.9994,-2.9994,-2.9994,-2.9994,-2.9994,-2.9994,-2.9994,-3.0005,-2.9889,-2.9889,-2.9889,-2.9837,-2.9669,-2.9554,-2.9448,-2.9185,-2.893,-2.8727,-2.8504,-2.8344,-2.8291,-2.8301,-2.8301,-2.8301,-2.8301,-2.8301,-2.8301,-2.8301,-2.8262,-2.8184,-2.8096,-2.7881,-2.7685,-2.7568,-2.7461,-2.7217,-2.7197,-2.7275,-2.7529,-2.7236,-2.7246,-2.7441,-2.7217,-2.7041,-2.6894,-2.6914,-2.6934,-2.6963,-2.709,-2.7168,-2.7256,-2.7402,-2.7611,-2.7588,-2.7588,-2.7588,-2.764,-2.764,-2.7588,-2.7646,-2.7891,-2.8105,-2.8135,-2.8135,-2.8164,-2.8301,-2.8301,-2.8301,-2.8271,-2.79,-2.7978,-2.8047,-2.8105,-2.8154,-2.8018,-2.791,-2.79,-2.7822,-2.749,-2.7285,-2.7344,-2.7363,-2.7363,-2.7383,-2.7324,-2.7285,-2.7207,-2.7207,-2.7197,-2.7187,-2.7168,-2.7012,-2.6914,-2.6777,-2.668,-2.6543,-2.6494,-2.6543,-2.6533,-2.6494,-2.666,-2.6875,-2.665,-2.6318,-2.9994,-2.9994,-2.9994,-2.9994,-2.9994,-2.9994,-2.9994,-2.9994,-2.9994,-2.9994,-2.9994,-2.9994,-2.9994,-2.9994,-2.9994,-2.9994,-2.9994,-2.9994,-2.9994,-2.9994,-2.9994,-2.9994,-2.9942,-2.9879,-2.9827,-2.9722,-2.9554,-2.9396,-2.9099,-2.8791,-2.8461,-2.8291,-2.8291,-2.8301,-2.8301,-2.8301,-2.8301,-2.8301,-2.8301,-2.8301,-2.8301,-2.8281,-2.8203,-2.8037,-2.8018,-2.7881,-2.7764,-2.7744,-2.7803,-2.7988,-2.7793,-2.7812,-2.7949,-2.7851,-2.7744,-2.7754,-2.7744,-2.7637,-2.7451,-2.7598,-2.7656,-2.7734,-2.7891,-2.8008,-2.8018,-2.7998,-2.8008,-2.8018,-2.807,-2.8008,-2.8008,-2.8184,-2.8252,-2.8301,-2.8301,-2.8301,-2.8301,-2.8301,-2.8301,-2.8301,-2.8301,-2.8301,-2.8301,-2.8271,-2.8252,-2.8184,-2.8105,-2.8105,-2.8115,-2.8018,-2.7881,-2.7842,-2.7851,-2.7842,-2.7881,-2.7881,-2.7871,-2.7822,-2.7832,-2.7803,-2.7734,-2.7656,-2.7471,-2.7266,-2.709,-2.7021,-2.7021,-2.6953,-2.6875,-2.6934,-2.7002,-2.7119,-2.7207,-2.7002,-2.6569,-2.9891,-2.9994,-2.9994,-2.9994,-2.9994,-2.9994,-2.9994,-2.9994,-2.9994,-2.9994,-2.9994,-2.9994,-2.9994,-2.9994,-2.9994,-2.9994,-2.9994,-2.9994,-2.9994,-2.9994,-2.9994,-2.9994,-2.9994,-2.9994,-2.9994,-3.0015,-2.9774,-2.9698,-2.9632,-2.9313,-2.893,-2.8408,-2.8461,-2.8344,-2.8291,-2.8301,-2.8301,-2.8301,-2.8301,-2.8301,-2.8301,-2.8301,-2.8291,-2.8281,-2.8291,-2.8301,-2.8301,-2.8262,-2.8262,-2.8252,-2.8232,-2.8193,-2.8223,-2.8193,-2.8164,-2.8174,-2.8164,-2.8066,-2.7949,-2.8027,-2.8262,-2.8301,-2.8301,-2.8232,-2.8252,-2.8301,-2.8291,-2.8242,-2.8242,-2.8262,-2.8291,-2.8291,-2.8291,-2.8301,-2.8301,-2.8301,-2.8301,-2.8301,-2.8301,-2.8301,-2.8301,-2.8301,-2.8301,-2.8301,-2.8291,-2.8291,-2.8291,-2.8301,-2.8281,-2.8271,-2.8213,-2.8105,-2.8105,-2.8096,-2.8135,-2.8213,-2.8281,-2.8301,-2.8301,-2.8252,-2.8086,-2.7988,-2.7861,-2.7646,-2.7451,-2.7539,-2.7637,-2.7412,-2.7217,-2.7441,-2.7588,-2.7471,-2.7412,-2.7246,-2.6654,-2.9601,-2.9994,-2.9994,-2.9994,-2.9994,-2.9994,-2.9994,-2.9994,-2.9994,-2.9994,-2.9994,-2.9994,-2.9994,-2.9994,-2.9994,-2.9994,-2.9994,-2.9994,-3.0036,-3.0036,-3.0015,-3.0108,-3.016,-3.0191,-3.0118,-3.0118,-3.0159,-3.0165,-3.0138,-3.0176,-2.9524,-2.8797,-2.8902,-2.8603,-2.8427,-2.8393,-2.8301,-2.8301,-2.8301,-2.8301,-2.8301,-2.8301,-2.8301,-2.8301,-2.8301,-2.8301,-2.8301,-2.8301,-2.8301,-2.8301,-2.8301,-2.8301,-2.8301,-2.8301,-2.8301,-2.8301,-2.8301,-2.8232,-2.8213,-2.8213,-2.8271,-2.8301,-2.8301,-2.8301,-2.8301,-2.8301,-2.8301,-2.8301,-2.8301,-2.8301,-2.8301,-2.8301,-2.8301,-2.8301,-2.8301,-2.8301,-2.8301,-2.8301,-2.8301,-2.8301,-2.8301,-2.8301,-2.8301,-2.8301,-2.8301,-2.8301,-2.8301,-2.8301,-2.8301,-2.8281,-2.8291,-2.8242,-2.8252,-2.8252,-2.8262,-2.8301,-2.8301,-2.8301,-2.8301,-2.8301,-2.8242,-2.8184,-2.8105,-2.8086,-2.793,-2.8096,-2.8154,-2.7851,-2.7744,-2.8066,-2.8154,-2.792,-2.7754,-2.7617,-2.666,-2.958,-2.9984,-2.9994,-2.9994,-2.9994,-2.9994,-2.9994,-2.9994,-2.9994,-2.9994,-2.9994,-2.9994,-2.9994,-2.9994,-2.9994,-2.9994,-2.9994,-2.9994,-3.017,-3.0356,-3.0429,-3.0584,-3.0708,-3.0791,-3.0853,-3.0812,-3.0833,-3.0884,-3.0962,-3.0874,-3.0639,-3.0106,-2.9749,-2.9322,-2.9031,-2.8594,-2.8369,-2.834,-2.832,-2.831,-2.8301,-2.8301,-2.8301,-2.8301,-2.8301,-2.8301,-2.8301,-2.8301,-2.8301,-2.8301,-2.8301,-2.8301,-2.8301,-2.8301,-2.8301,-2.8301,-2.8301,-2.8301,-2.8301,-2.8301,-2.8301,-2.8301,-2.8301,-2.8301,-2.8301,-2.8301,-2.8301,-2.8301,-2.8301,-2.8301,-2.8301,-2.8301,-2.8301,-2.8301,-2.832,-2.834,-2.8418,-2.8476,-2.8476,-2.8564,-2.8408,-2.8301,-2.8301,-2.8301,-2.8301,-2.8301,-2.8301,-2.8301,-2.8301,-2.8301,-2.8301,-2.8301,-2.8301,-2.8301,-2.8301,-2.8301,-2.8301,-2.8301,-2.8301,-2.8301,-2.8301,-2.8291,-2.8232,-2.8291,-2.8301,-2.8262,-2.8213,-2.8135,-2.8154,-2.8252,-2.8291,-2.8232,-2.8096,-2.7949,-2.672,-2.9363,-2.9787,-2.9932,-2.9994,-2.9994,-2.9994,-2.9994,-2.9994,-2.9994,-2.9994,-2.9994,-2.9994,-2.9994,-2.9994,-2.9994,-2.9994,-3.0056,-3.017,-3.0408,-3.0615,-3.0833,-3.1135,-3.1332,-3.134,-3.1247,-3.1381,-3.1402,-3.1381,-3.1512,-3.1578,-3.1484,-3.1268,-3.0934,-3.0384,-2.9525,-2.9011,-2.8662,-2.8672,-2.8672,-2.8672,-2.8701,-2.8564,-2.8506,-2.8467,-2.8398,-2.8301,-2.8301,-2.8301,-2.8301,-2.8301,-2.8301,-2.8301,-2.8301,-2.8301,-2.8301,-2.8301,-2.8301,-2.8301,-2.8301,-2.8301,-2.8301,-2.8301,-2.8301,-2.8301,-2.8301,-2.8301,-2.8301,-2.8301,-2.8301,-2.831,-2.832,-2.8301,-2.8437,-2.8496,-2.8564,-2.8613,-2.8809,-2.8906,-2.8857,-2.8848,-2.8672,-2.8525,-2.8457,-2.8467,-2.8359,-2.834,-2.8301,-2.8301,-2.8301,-2.8301,-2.8301,-2.8301,-2.8301,-2.8301,-2.8301,-2.8301,-2.8301,-2.8301,-2.8301,-2.8301,-2.8301,-2.8301,-2.8301,-2.8301,-2.8301,-2.8301,-2.8262,-2.8203,-2.8232,-2.8281,-2.8301,-2.8301,-2.8262,-2.7989,-2.6691,-2.8918,-2.9363,-2.9818,-2.9994,-2.9994,-2.9994,-2.9994,-2.9994,-2.9994,-2.9994,-2.9994,-2.9994,-2.9994,-2.9994,-2.9994,-3.0046,-3.018,-3.045,-3.0719,-3.0915,-3.1236,-3.1381,-3.1485,-3.1547,-3.1671,-3.1498,-3.1567,-3.1805,-3.2033,-3.2033,-3.2184,-3.221,-3.1818,-3.1194,-3.0076,-2.9698,-2.9567,-2.9512,-2.9453,-2.9414,-2.9316,-2.9053,-2.8935,-2.8838,-2.8574,-2.8428,-2.8428,-2.832,-2.8301,-2.8301,-2.8301,-2.8301,-2.8301,-2.8301,-2.8301,-2.8301,-2.8301,-2.8301,-2.8301,-2.8301,-2.834,-2.831,-2.8301,-2.8301,-2.8301,-2.8301,-2.8359,-2.8418,-2.8398,-2.8389,-2.835,-2.8398,-2.8652,-2.8809,-2.8896,-2.8984,-2.9189,-2.9346,-2.9307,-2.917,-2.9023,-2.8896,-2.8769,-2.8652,-2.8496,-2.8408,-2.833,-2.8301,-2.832,-2.8301,-2.8301,-2.8301,-2.8301,-2.8301,-2.8301,-2.8301,-2.8301,-2.8301,-2.8301,-2.8301,-2.8301,-2.8301,-2.8301,-2.8301,-2.8301,-2.8301,-2.8301,-2.8291,-2.8301,-2.8301,-2.8301,-2.8291,-2.8291,-2.7921,-2.6821,-2.8876,-2.9342,-2.9808,-2.9994,-2.9994,-2.9994,-2.9994,-2.9994,-2.9994,-2.9994,-2.9994,-2.9994,-2.9994,-2.9994,-3.0036,-3.0149,-3.045,-3.0553,-3.0833,-3.1557,-3.1754,-3.2033,-3.2147,-3.2168,-3.2219,-3.2271,-3.2282,-3.225,-3.2499,-3.239,-3.2349,-3.2352,-3.193,-3.1237,-3.0522,-2.9954,-2.956,-2.956,-2.956,-2.956,-2.9616,-2.9443,-2.9346,-2.9326,-2.8935,-2.8721,-2.8691,-2.8535,-2.8408,-2.8359,-2.835,-2.833,-2.831,-2.8301,-2.8301,-2.8301,-2.8301,-2.8301,-2.8389,-2.8467,-2.8555,-2.8447,-2.8369,-2.8389,-2.831,-2.8301,-2.8428,-2.8643,-2.8711,-2.8818,-2.9072,-2.9141,-2.9307,-2.9365,-2.9434,-2.9473,-2.9609,-2.9736,-2.9756,-2.9531,-2.9355,-2.9326,-2.9228,-2.9092,-2.8926,-2.8769,-2.8701,-2.8486,-2.8437,-2.835,-2.831,-2.8301,-2.8301,-2.8301,-2.8301,-2.832,-2.831,-2.8301,-2.8301,-2.8301,-2.8301,-2.8301,-2.8301,-2.8301,-2.8301,-2.8301,-2.8301,-2.8301,-2.8301,-2.8301,-2.8301,-2.8301,-2.8291,-2.795,-2.7149,-2.8794,-2.9125,-2.9735,-2.9994,-2.9994,-2.9994,-2.9994,-2.9994,-2.9994,-2.9994,-2.9994,-2.9994,-2.9994,-2.9994,-3.0036,-3.0253,-3.0667,-3.0895,-3.1236,-3.1967,-3.2184,-3.2359,-3.2556,-3.2669,-3.2556,-3.2669,-3.2669,-3.2649,-3.2628,-3.2659,-3.2545,-3.219,-3.1604,-3.1291,-3.0764,-3.0386,-3.0098,-3.0127,-3.0156,-3.0117,-3.0049,-2.9912,-2.9785,-2.9668,-2.9414,-2.9141,-2.9072,-2.8896,-2.8652,-2.8574,-2.8506,-2.8437,-2.8379,-2.831,-2.8301,-2.8301,-2.8457,-2.8486,-2.8623,-2.8926,-2.8984,-2.8857,-2.874,-2.873,-2.873,-2.8828,-2.8926,-2.9072,-2.9131,-2.9297,-2.9521,-2.9619,-2.9707,-2.9756,-2.9873,-2.9902,-3.0127,-3.0264,-3.0264,-3.0029,-2.9861,-2.9822,-2.9714,-2.9607,-2.9394,-2.9303,-2.9156,-2.8896,-2.8701,-2.8643,-2.8613,-2.8613,-2.8564,-2.8574,-2.8506,-2.8379,-2.835,-2.8301,-2.835,-2.8418,-2.8301,-2.8301,-2.8301,-2.8301,-2.8301,-2.8301,-2.8301,-2.8301,-2.8301,-2.8301,-2.8301,-2.8301,-2.8301,-2.7906,-2.7457,-2.8597,-2.8752,-2.9591,-2.9963,-2.9994,-2.9994,-2.9994,-2.9994,-2.9994,-2.9994,-2.9994,-2.9994,-2.9994,-2.9994,-2.9994,-3.0305,-3.075,-3.1153,-3.164,-3.2029,-3.2411,-3.2597,-3.2649,-3.2669,-3.2669,-3.2669,-3.2669,-3.2669,-3.2669,-3.2612,-3.2487,-3.219,-3.1614,-3.1275,-3.1042,-3.0877,-3.0664,-3.0635,-3.0625,-3.0605,-3.0557,-3.0391,-3.0264,-3.0098,-2.9844,-2.9629,-2.9541,-2.9434,-2.9228,-2.9072,-2.8945,-2.8701,-2.8516,-2.8359,-2.834,-2.8467,-2.8789,-2.8887,-2.9014,-2.9346,-2.9531,-2.9473,-2.958,-2.959,-2.9453,-2.9346,-2.9404,-2.9502,-2.959,-2.9629,-2.9717,-2.9824,-2.9932,-3.0059,-3.0215,-3.041,-3.0684,-3.0781,-3.0781,-3.0605,-3.0361,-3.0205,-2.9971,-2.9844,-2.9922,-2.9949,-2.9851,-2.9756,-2.9541,-2.9268,-2.9238,-2.9209,-2.9121,-2.8965,-2.8838,-2.873,-2.8721,-2.8779,-2.8643,-2.8652,-2.8486,-2.8369,-2.8379,-2.8389,-2.832,-2.8301,-2.8301,-2.8301,-2.8301,-2.8301,-2.8301,-2.8301,-2.8291,-2.8237,-2.7672,-2.8317,-2.8669,-2.9259,-2.9694,-2.9973,-2.9994,-2.9994,-2.9994,-2.9994,-2.9994,-2.9994,-2.9994,-2.9994,-2.9994,-3.0005,-3.0491,-3.0967,-3.1402,-3.1899,-3.2313,-3.2587,-3.2649,-3.2669,-3.2669,-3.2669,-3.2669,-3.2669,-3.2669,-3.2669,-3.2555,-3.2258,-3.1913,-3.1556,-3.1276,-3.1054,-3.0947,-3.0947,-3.0898,-3.0898,-3.0898,-3.0898,-3.0713,-3.0635,-3.0518,-3.0244,-3.0059,-3.0,-2.9775,-2.956,-2.9434,-2.9385,-2.9258,-2.9248,-2.9199,-2.9199,-2.9209,-2.9336,-2.9394,-2.9463,-2.9785,-3.0019,-3.0098,-3.0264,-3.0106,-2.988,-2.9687,-2.9795,-2.9932,-3.0039,-3.0078,-3.0205,-3.0322,-3.0371,-3.0449,-3.0566,-3.0674,-3.0898,-3.0898,-3.0898,-3.084,-3.0615,-3.0557,-3.0322,-3.0371,-3.0439,-3.0478,-3.0469,-3.041,-3.0293,-2.999,-2.9834,-2.9795,-2.959,-2.9404,-2.9365,-2.9277,-2.9258,-2.9238,-2.9082,-2.8935,-2.8838,-2.8721,-2.8584,-2.8457,-2.8379,-2.832,-2.8301,-2.8301,-2.8301,-2.8301,-2.8301,-2.8301,-2.8291,-2.8237,-2.7565,-2.8079,-2.8411,-2.9042,-2.957,-2.9953,-2.9994,-2.9994,-2.9994,-2.9994,-2.9994,-2.9994,-2.9994,-2.9994,-2.9994,-3.0046,-3.047,-3.1309,-3.1391,-3.1826,-3.2509,-3.2669,-3.2669,-3.2669,-3.2669,-3.2669,-3.2669,-3.2669,-3.2669,-3.2669,-3.243,-3.2201,-3.2018,-3.1566,-3.1276,-3.1102,-3.0995,-3.0898,-3.0898,-3.0898,-3.0898,-3.0898,-3.0898,-3.0898,-3.084,-3.0557,-3.0488,-3.043,-3.0137,-3.0019,-2.9863,-2.9814,-2.9707,-2.9639,-2.9551,-2.9541,-2.9551,-2.9736,-2.9785,-2.9883,-3.0225,-3.04,-3.0527,-3.0713,-3.0566,-3.0381,-3.0244,-3.0332,-3.043,-3.0478,-3.0557,-3.0732,-3.0889,-3.0879,-3.0869,-3.0879,-3.0879,-3.0898,-3.0898,-3.0898,-3.0898,-3.0869,-3.0859,-3.085,-3.0898,-3.0879,-3.0781,-3.0732,-3.0723,-3.0644,-3.0478,-3.0361,-3.0322,-3.0068,-2.9814,-2.9805,-2.9746,-2.9619,-2.9587,-2.9424,-2.9287,-2.9199,-2.9101,-2.8984,-2.8711,-2.8418,-2.8389,-2.8359,-2.831,-2.8301,-2.832,-2.8359,-2.835,-2.834,-2.8291,-2.7232,-2.7844,-2.8017,-2.8928,-2.957,-2.9963,-2.9994,-2.9994,-2.9994,-2.9994,-2.9994,-2.9994,-2.9994,-2.9994,-2.9994,-3.0025,-3.046,-3.1071,-3.1329,-3.1764,-3.2607,-3.2669,-3.2669,-3.2669,-3.2669,-3.2669,-3.2669,-3.2669,-3.2669,-3.2669,-3.2487,-3.2373,-3.2248,-3.1787,-3.1383,-3.1218,-3.1054,-3.1005,-3.0898,-3.0898,-3.0898,-3.0898,-3.0898,-3.0898,-3.0898,-3.0859,-3.085,-3.0859,-3.0791,-3.0693,-3.04,-3.0205,-3.0059,-2.9922,-2.9805,-2.9795,-2.9853,-3.0127,-3.0215,-3.0322,-3.0586,-3.0742,-3.083,-3.0889,-3.082,-3.0684,-3.0615,-3.0674,-3.0693,-3.0723,-3.0723,-3.0859,-3.0898,-3.0898,-3.0898,-3.0898,-3.0898,-3.0898,-3.0898,-3.0898,-3.0898,-3.0898,-3.0898,-3.0898,-3.0898,-3.0898,-3.0898,-3.0898,-3.0898,-3.0859,-3.0771,-3.0732,-3.0703,-3.0498,-3.0254,-3.0225,-3.0137,-2.9912,-2.9851,-2.9775,-2.9687,-2.9639,-2.9531,-2.946,-2.9082,-2.875,-2.8525,-2.8437,-2.8457,-2.8496,-2.8496,-2.8506,-2.8447,-2.8418,-2.8428,-2.7088,-2.7624,-2.8007,-2.8918,-2.957,-2.9973,-2.9994,-2.9994,-2.9994,-2.9994,-2.9994,-2.9994,-2.9994,-2.9994,-2.9994,-2.9994,-3.0367,-3.0812,-3.1278,-3.1692,-3.223,-3.2494,-3.2669,-3.2669,-3.2669,-3.2669,-3.2669,-3.2669,-3.2669,-3.2669,-3.2612,-3.2498,-3.2305,-3.196,-3.1787,-3.1392,-3.1218,-3.1112,-3.0947,-3.0898,-3.0898,-3.0898,-3.0898,-3.0898,-3.0898,-3.0898,-3.0898,-3.0898,-3.0879,-3.083,-3.0723,-3.0723,-3.0664,-3.0596,-3.0557,-3.0557,-3.0596,-3.0586,-3.0635,-3.0684,-3.0781,-3.0869,-3.0898,-3.0898,-3.0898,-3.0879,-3.0898,-3.0898,-3.0898,-3.0898,-3.0898,-3.0898,-3.0898,-3.0898,-3.0898,-3.0898,-3.0898,-3.0898,-3.0898,-3.0898,-3.0898,-3.0898,-3.0898,-3.0898,-3.0898,-3.0898,-3.0898,-3.0898,-3.0898,-3.0898,-3.085,-3.084,-3.081,-3.083,-3.0684,-3.0625,-3.0537,-3.0322,-3.0351,-3.041,-3.0273,-3.0088,-2.9844,-2.9675,-2.9394,-2.9131,-2.8906,-2.8769,-2.8789,-2.8809,-2.8799,-2.8877,-2.8906,-2.8828,-2.8818,-2.7168,-2.7455,-2.7738,-2.8618,-2.9394,-2.9922,-2.9994,-2.9994,-2.9994,-2.9994,-2.9994,-2.9994,-2.9994,-2.9994,-2.9994,-2.9994,-3.0222,-3.0698,-3.1174,-3.1629,-3.2064,-3.2457,-3.2607,-3.2669,-3.2669,-3.2669,-3.2669,-3.2669,-3.2669,-3.2669,-3.2669,-3.2612,-3.243,-3.2315,-3.2018,-3.1498,-3.1383,-3.116,-3.0898,-3.0898,-3.0898,-3.0898,-3.0898,-3.0898,-3.0898,-3.0898,-3.0898,-3.0898,-3.0898,-3.0889,-3.0889,-3.0859,-3.0859,-3.082,-3.081,-3.085,-3.085,-3.0859,-3.0898,-3.0898,-3.0898,-3.0898,-3.0898,-3.0898,-3.0898,-3.0898,-3.0898,-3.0898,-3.0898,-3.0898,-3.0898,-3.0898,-3.0898,-3.0898,-3.0898,-3.0898,-3.0898,-3.0898,-3.0898,-3.0898,-3.0898,-3.0898,-3.0898,-3.0898,-3.0898,-3.0898,-3.0898,-3.0898,-3.0898,-3.0898,-3.0898,-3.0898,-3.0898,-3.0898,-3.0898,-3.0801,-3.0781,-3.0752,-3.084,-3.0898,-3.0723,-3.0449,-3.0107,-2.9824,-2.9726,-2.956,-2.9307,-2.9209,-2.9209,-2.9209,-2.9228,-2.9326,-2.9434,-2.9326,-2.9089,-2.7614,-2.7351,-2.7517,-2.8276,-2.9104,-2.986,-2.9973,-2.9994,-2.9994,-2.9994,-2.9994,-2.9994,-2.9994,-2.9994,-2.9994,-3.0015,-3.0294,-3.0646,-3.1133,-3.1588,-3.1961,-3.2489,-3.2607,-3.2669,-3.2669,-3.2669,-3.2669,-3.2612,-3.2612,-3.2612,-3.2498,-3.244,-3.2498,-3.2326,-3.2076,-3.174,-3.145,-3.116,-3.0947,-3.0898,-3.0898,-3.0898,-3.0898,-3.0898,-3.0898,-3.0898,-3.0898,-3.0898,-3.0898,-3.0898,-3.0898,-3.0898,-3.0898,-3.0898,-3.0898,-3.0898,-3.0898,-3.0898,-3.0898,-3.0898,-3.0898,-3.0898,-3.0898,-3.0898,-3.0898,-3.0898,-3.0898,-3.0898,-3.0898,-3.0898,-3.0898,-3.0898,-3.0898,-3.0898,-3.0898,-3.0898,-3.0898,-3.0898,-3.0898,-3.0898,-3.0898,-3.0898,-3.0898,-3.0898,-3.0898,-3.0898,-3.0898,-3.0898,-3.0898,-3.0898,-3.0898,-3.0898,-3.0898,-3.0898,-3.0898,-3.0898,-3.0898,-3.0898,-3.0898,-3.0898,-3.0898,-3.081,-3.0498,-3.0283,-3.0225,-3.0039,-2.9736,-2.9648,-2.9648,-2.9648,-2.9648,-2.9893,-3.0,-2.9736,-2.9339,-2.8191,-2.7469,-2.7841,-2.839,-2.8938,-2.9456,-2.9829,-2.9994,-2.9994,-2.9994,-2.9994,-2.9994,-2.9994,-2.9994,-2.9994,-2.9994,-3.0139,-3.0325,-3.0967,-3.1363,-3.1588,-3.2385,-3.2587,-3.2669,-3.2669,-3.2669,-3.2612,-3.2555,-3.243,-3.243,-3.2201,-3.2028,-3.2028,-3.2018,-3.1787,-3.1441,-3.1276,-3.116,-3.1005,-3.0898,-3.0898,-3.0898,-3.0898,-3.0898,-3.0898,-3.0898,-3.0898,-3.0898,-3.0898,-3.0898,-3.0898,-3.0898,-3.0898,-3.0898,-3.0898,-3.0898,-3.0898,-3.0898,-3.0898,-3.0898,-3.0898,-3.0898,-3.0898,-3.0898,-3.0898,-3.0898,-3.0898,-3.0898,-3.0898,-3.0898,-3.0898,-3.0898,-3.0898,-3.0898,-3.0898,-3.0898,-3.0898,-3.0898,-3.0898,-3.0898,-3.0898,-3.0898,-3.0898,-3.0898,-3.0898,-3.0898,-3.0898,-3.0898,-3.0898,-3.0898,-3.0898,-3.0898,-3.0898,-3.0898,-3.0898,-3.0898,-3.0898,-3.0898,-3.0898,-3.0898,-3.0898,-3.0889,-3.0879,-3.0732,-3.0576,-3.0391,-3.0127,-3.0078,-3.0088,-3.0088,-3.0146,-3.0488,-3.0596,-3.0273,-2.9717,-2.8735]},{"header":{"parameterUnit":"m.s-1","parameterCategory":1,"la1":31.0,"la2":29.5877,"lo1":-88.7671,"lo2":-86.6584,"dy":0.0162,"dx":0.0185,"nx":115,"ny":88,"refTime":"2026-03-03T12:00:00:Z","depth":0,"parameterNumber":3,"parameterNumberName":"V-component_of_WINDS"},"data":[0.0,0.0,0.0,0.0,0.0,0.0,0.0,0.0,0.0,0.0,0.0,0.0,0.0,0.0,0.0,0.0,0.0,0.0,0.0,0.0,0.0,0.0,0.0,0.0,0.0,0.0,0.0,0.0,0.0,0.0,0.0,0.0,0.0,0.0,0.0,0.0,0.0,0.0,0.0,0.0,0.0,0.0,0.0,0.0,0.0,0.0,0.0,0.0,0.0,0.0,0.0,0.0,0.0,0.0,0.0,0.0,0.0,0.0,0.0,0.0,0.0,0.0,0.0,0.0,0.0,0.0,0.0,0.0,0.0,0.0,0.0,0.0,0.0,0.0,0.0,0.0,0.0,0.0,0.0,0.0,0.0,0.0,0.0,0.0,0.0,0.0,0.0,0.0,0.0,0.0,0.0,0.0,0.0,0.0,0.0,0.0,0.0,0.0,0.0,0.0,0.0,0.0,0.0,0.0,0.0,0.0,0.0,0.0,0.0,0.0,0.0,0.0,0.0,0.0,0.0,0.0,0.0,0.0,0.0,0.0,0.0,0.0,0.0,0.0,0.0,0.0,0.0,0.0,0.0,0.0,0.0,0.0,0.0,0.0,0.0,0.0,0.0,0.0,0.0,0.0,0.0,0.0,0.0,0.0,0.0,0.0,0.0,0.0,0.0,0.0,0.0,0.0,0.0,0.0,0.0,0.0,0.0,0.0,0.0,0.0,0.0,0.0,0.0,0.0,0.0,0.0,0.0,0.0,0.0,0.0,0.0,0.0,0.0,0.0,0.0,0.0,0.0,0.0,0.0,0.0,0.0,0.0,0.0,0.0,0.0,0.0,0.0,0.0,0.0,0.0,0.0,0.0,0.0,0.0,0.0,0.0,0.0,0.0,0.0,0.0,0.0,0.0,0.0,0.0,0.0,0.0,0.0,0.0,0.0,0.0,0.0,0.0,0.0,0.0,0.0,0.0,0.0,0.0,0.0,0.0,0.0,0.0,0.0,0.0,0.0,0.0,0.0,0.0,0.0,0.0,0.0,0.0,0.0,0.0,0.0,0.0,0.0,0.0,0.0,0.0,0.0,0.0,0.0,0.0,0.0,0.0,0.0,0.0,0.0,0.0,0.0,0.0,0.0,0.0,0.0,0.0,0.0,0.0,0.0,0.0,0.0,0.0,0.0,0.0,0.0,0.0,0.0,0.0,0.0,0.0,0.0,0.0,0.0,0.0,0.0,0.0,0.0,0.0,0.0,0.0,0.0,0.0,0.0,0.0,0.0,0.0,0.0,0.0,0.0,0.0,0.0,0.0,0.0,0.0,0.0,0.0,0.0,0.0,0.0,0.0,0.0,0.0,0.0,0.0,0.0,0.0,0.0,0.0,0.0,0.0,0.0,0.0,0.0,0.0,0.0,0.0,0.0,0.0,0.0,0.0,0.0,0.0,0.0,0.0,0.0,0.0,0.0,0.0,0.0,0.0,0.0,0.0,0.0,0.0,0.0,0.0,0.0,0.0,0.0,0.0,0.0,0.0,0.0,0.0,0.0,0.0,0.0,0.0,0.0,0.0,0.0,0.0,0.0,0.0,0.0,0.0,0.0,0.0,0.0,0.0,0.0,0.0,0.0,0.0,0.0,0.0,0.0,0.0,0.0,0.0,0.0,0.0,0.0,0.0,0.0,0.0,0.0,0.0,0.0,0.0,0.0,0.0,0.0,0.0,0.0,0.0,0.0,0.0,0.0,0.0,0.0,0.0,0.0,0.0,0.0,0.0,0.0,0.0,0.0,0.0,0.0,0.0,0.0,0.0,0.0,0.0,0.0,0.0,0.0,0.0,0.0,0.0,0.0,0.0,0.0,0.0,0.0,0.0,0.0,0.0,0.0,0.0,0.0,0.0,0.0,0.0,0.0,0.0,0.0,0.0,0.0,0.0,0.0,0.0,0.0,0.0,0.0,0.0,0.0,0.0,0.0,0.0,0.0,0.0,0.0,0.0,0.0,0.0,0.0,0.0,0.0,0.0,0.0,0.0,0.0,0.0,0.0,0.0,0.0,0.0,0.0,0.0,0.0,0.0,0.0,0.0,0.0,0.0,0.0,0.0,0.0,0.0,0.0,0.0,0.0,0.0,0.0,0.0,0.0,0.0,0.0,0.0,0.0,0.0,0.0,0.0,0.0,0.0,0.0,0.0,0.0,0.0,0.0,0.0,0.0,0.0,0.0,0.0,0.0,0.0,0.0,0.0,0.0,0.0,0.0,0.0,0.0,0.0,0.0,0.0,0.0,0.0,0.0,0.0,0.0,0.0,0.0,0.0,0.0,0.0,0.0,0.0,0.0,0.0,0.0,0.0,0.0,0.0,0.0,0.0,0.0,0.0,0.0,0.0,0.0,0.0,0.0,0.0,0.0,0.0,0.0,0.0,0.0,0.0,0.0,0.0,0.0,0.0,0.0,0.0,0.0,0.0,0.0,0.0,0.0,0.0,0.0,0.0,0.0,0.0,0.0,0.0,0.0,0.0,0.0,0.0,0.0,0.0,0.0,0.0,0.0,0.0,0.0,0.0,0.0,0.0,0.0,0.0,0.0,0.0,0.0,0.0,0.0,0.0,0.0,0.0,0.0,0.0,0.0,0.0,0.0,0.0,0.0,0.0,0.0,0.0,0.0,0.0,0.0,0.0,0.0,0.0,0.0,0.0,0.0,0.0,0.0,0.0,0.0,0.0,0.0,0.0,0.0,0.0,0.0,0.0,0.0,0.0,0.0,0.0,0.0,0.0,0.0,0.0,0.0,0.0,0.0,0.0,0.0,0.0,0.0,0.0,0.0,0.0,0.0,0.0,0.0,0.0,0.0,0.0,0.0,0.0,0.0,0.0,0.0,0.0,0.0,0.0,0.0,0.0,0.0,0.0,0.0,0.0,0.0,0.0,0.0,0.0,0.0,0.0,0.0,0.0,0.0,0.0,0.0,0.0,0.0,0.0,0.0,0.0,0.0,0.0,0.0,0.0,0.0,0.0,0.0,0.0,0.0,0.0,0.0,0.0,0.0,0.0,0.0,0.0,0.0,0.0,0.0,0.0,0.0,0.0,0.0,0.0,0.0,0.0,0.0,0.0,0.0,0.0,0.0,0.0,0.0,0.0,0.0,0.0,0.0,0.0,0.0,0.0,0.0,0.0,0.0,0.0,0.0,0.0,0.0,0.0,0.0,0.0,0.0,0.0,0.0,0.0,0.0,0.0,0.0,0.0,0.0,0.0,0.0,0.0,0.0,0.0,0.0,0.0,0.0,0.0,0.0,0.0,0.0,0.0,0.0,0.0,0.0,0.0,0.0,0.0,0.0,0.0,0.0,0.0,0.0,0.0,0.0,0.0,0.0,0.0,0.0,0.0,0.0,0.0,0.0,0.0,0.0,0.0,0.0,0.0,0.0,0.0,0.0,0.0,0.0,0.0,0.0,0.0,0.0,0.0,0.0,0.0,0.0,0.0,0.0,0.0,0.0,0.0,0.0,0.0,0.0,0.0,0.0,0.0,0.0,0.0,0.0,0.0,0.0,0.0,0.0,0.0,0.0,0.0,0.0,0.0,0.0,0.0,0.0,0.0,0.0,0.0,0.0,0.0,0.0,0.0,0.0,0.0,0.0,0.0,0.0,0.0,0.0,0.0,0.0,0.0,0.0,0.0,0.0,0.0,0.0,0.0,0.0,0.0,0.0,0.0,0.0,0.0,0.0,0.0,0.0,0.0,0.0,0.0,0.0,0.0,0.0,0.0,0.0,0.0,0.0,0.0,0.0,0.0,0.0,0.0,0.0,0.0,0.0,0.0,0.0,0.0,0.0,0.0,0.0,0.0,0.0,0.0,0.0,0.0,0.0,0.0,0.0,0.0,0.0,0.0,0.0,0.0,0.0,0.0,0.0,0.0,0.0,0.0,0.0,0.0,0.0,0.0,0.0,0.0,0.0,0.0,0.0,0.0,0.0,0.0,0.0,0.0,0.0,0.0,0.0,0.0,0.0,0.0,0.0,0.0,0.0,0.0,0.0,0.0,0.0,0.0,0.0,0.0,0.0,0.0,0.0,0.0,0.0,0.0,0.0,0.0,0.0,0.0,0.0,0.0,0.0,0.0,0.0,0.0,0.0,0.0,0.0,0.0,0.0,0.0,0.0,0.0,0.0,0.0,0.0,0.0,0.0,0.0,0.0,0.0,0.0,0.0,0.0,0.0,0.0,0.0,0.0,0.0,0.0,0.0,0.0,0.0,0.0,0.0,0.0,0.0,0.0,0.0,0.0,0.0,0.0,0.0,1.1802,0.0,0.0,0.0,0.0,0.0,0.0,0.0,0.0,0.0,0.0,0.0,0.0,0.0,0.0,0.0,0.0,0.0,0.0,0.0,0.0,0.0,0.0,0.0,0.0,0.0,0.0,0.0,0.0,0.0,0.0,0.0,0.0,0.0,0.0,0.0,0.0,0.0,0.0,0.0,0.0,0.0,0.0,0.0,0.0,0.0,0.0,0.0,0.0,0.0,0.0,0.0,0.0,0.0,0.0,0.0,0.0,0.0,0.0,0.0,0.0,0.0,0.0,0.0,0.0,0.0,0.0,0.0,0.0,0.0,0.0,0.0,0.0,0.0,0.0,0.0,0.0,0.0,0.0,0.0,0.0,0.0,0.0,0.0,0.0,0.0,0.0,0.0,0.0,0.0,0.0,0.0,0.0,0.0,0.0,0.0,0.0,0.0,0.0,0.0,0.0,0.0,0.0,0.0,0.0,0.0,0.0,0.0,0.0,0.0,0.0,1.2959,1.2668,1.276,1.249,1.185,0.0,0.0,0.0,0.0,0.0,0.0,0.0,0.0,0.0,0.0,0.0,0.0,0.0,0.0,0.0,0.0,0.0,0.0,0.0,0.0,0.0,0.0,0.0,0.0,0.0,0.0,0.0,0.0,0.0,0.0,0.0,0.0,0.0,0.0,0.0,0.0,0.0,0.0,0.0,0.0,0.0,0.0,0.0,0.0,0.0,0.0,0.0,0.0,0.0,0.0,0.0,0.0,0.0,0.0,0.0,0.0,0.0,0.0,0.0,0.0,0.0,0.0,0.0,0.0,0.0,0.0,0.0,0.0,0.0,0.0,0.0,0.0,0.0,0.0,0.0,0.0,0.0,0.0,0.0,0.0,0.0,0.0,0.0,0.0,0.0,0.0,0.0,0.0,0.0,0.0,0.0,0.0,0.0,0.0,0.0,0.0,0.0,0.0,0.0,0.0,0.0,0.0,0.0,0.0,0.0,0.0,0.0,0.0,0.0,0.0,0.0,0.0,1.2996,1.2864,1.2549,0.0,0.0,0.0,0.0,0.0,0.0,0.0,0.0,0.0,0.0,0.0,0.0,0.0,0.0,0.0,0.0,0.0,0.0,0.0,0.0,0.0,0.0,0.0,0.0,0.0,0.0,0.0,0.0,0.0,0.0,0.0,0.0,0.0,0.0,0.0,0.0,0.0,0.0,0.0,0.0,0.0,0.0,0.0,0.0,0.0,0.0,0.0,0.0,0.0,0.0,0.0,0.0,0.0,0.0,0.0,0.0,0.0,0.0,0.0,0.0,0.0,0.0,0.0,0.0,0.0,0.0,0.0,0.0,0.0,0.0,0.0,0.0,0.0,0.0,0.0,0.0,0.0,0.0,0.0,0.0,0.0,0.0,0.0,0.0,0.0,0.0,0.0,0.0,0.0,0.0,0.0,0.0,0.0,0.0,0.0,0.0,0.0,0.0,0.0,0.0,0.0,0.0,0.0,0.0,0.0,0.0,0.0,0.0,0.0,0.0,1.2386,1.3587,1.3667,0.0,1.4513,0.0,0.0,0.0,0.0,0.0,0.0,0.0,0.0,0.0,0.0,0.0,0.0,0.0,0.0,0.0,0.0,0.0,0.0,0.0,0.0,0.0,0.0,0.0,0.0,0.0,0.0,0.0,0.0,0.0,0.0,0.0,0.0,0.0,0.0,0.0,0.0,0.0,0.0,0.0,0.0,0.0,0.0,0.0,0.0,0.0,0.0,0.0,0.0,0.0,0.0,0.0,0.0,0.0,0.0,0.0,0.0,0.0,0.0,0.0,0.0,0.0,0.0,0.0,0.0,0.0,0.0,0.0,0.0,0.0,0.0,0.0,0.0,0.0,0.0,0.0,0.0,0.0,0.0,0.0,0.0,0.0,0.0,0.0,0.0,0.0,0.0,0.0,0.0,0.0,0.0,0.0,0.0,0.0,0.0,0.0,0.0,0.0,0.0,0.0,0.0,0.0,0.0,0.0,0.0,0.0,0.0,0.0,0.0,0.0,0.0,1.322,1.3744,1.3784,1.4079,0.0,0.0,0.0,0.0,0.0,0.0,0.0,0.0,0.0,0.0,0.0,0.0,0.0,0.0,0.0,0.0,0.0,0.0,0.0,0.0,0.0,0.0,0.0,0.0,0.0,0.0,0.0,0.0,0.0,0.0,0.0,0.0,0.0,0.0,0.0,0.0,0.0,0.0,0.0,0.0,0.0,0.0,0.0,0.0,0.0,0.0,0.0,0.0,0.0,0.0,0.0,0.0,0.0,0.0,0.0,0.0,0.0,0.0,0.0,0.0,0.0,0.0,0.0,0.0,0.0,0.0,0.0,0.0,0.0,0.0,0.0,0.0,0.0,0.0,0.0,0.0,0.0,0.0,0.0,0.0,0.0,0.0,0.0,0.0,0.0,0.0,0.0,0.0,0.0,0.0,0.0,0.0,0.0,0.0,0.0,0.0,0.0,0.0,0.0,0.0,0.0,0.0,0.0,0.0,0.0,0.0,0.0,0.0,0.0,0.0,1.3316,0.0,1.4049,1.4094,1.4253,1.464,0.0,0.0,0.0,0.0,0.0,0.0,0.0,0.0,0.0,0.0,0.0,0.0,0.0,0.0,0.0,0.0,0.0,0.0,0.0,0.0,0.0,0.0,0.0,0.0,0.0,0.0,0.0,0.0,0.0,0.0,0.0,0.0,0.0,0.0,0.0,0.0,0.0,0.0,0.0,0.0,0.0,0.0,0.0,0.0,0.0,0.0,0.0,0.0,0.0,0.0,0.0,0.0,0.0,0.0,0.0,0.0,0.0,0.0,0.0,0.0,0.0,0.0,0.0,0.0,0.0,0.0,0.0,0.0,0.0,0.0,0.0,0.0,0.0,0.0,0.0,0.0,0.0,0.0,0.0,0.0,0.0,0.0,0.0,0.0,0.0,0.0,0.0,0.0,0.0,0.0,0.0,0.0,0.0,0.0,0.0,0.0,0.0,0.0,0.0,0.0,0.0,0.0,0.0,0.0,0.0,0.0,0.0,0.0,0.0,1.3805,1.3475,1.4734,1.4751,1.4764,0.0,0.0,0.0,0.0,0.0,0.0,0.0,0.0,0.0,0.0,0.0,0.0,0.0,0.0,0.0,0.0,0.0,0.0,0.0,0.0,0.0,0.0,0.0,0.0,0.0,0.0,0.0,0.0,0.0,0.0,0.0,0.0,0.0,0.0,0.0,0.0,0.0,0.0,0.0,0.0,0.0,0.0,0.0,0.0,0.0,0.0,0.0,0.0,0.0,0.0,0.0,0.0,0.0,0.0,0.0,0.0,0.0,0.0,0.0,0.0,0.0,0.0,0.0,0.0,0.0,0.0,0.0,0.0,0.0,0.0,0.0,0.0,0.0,0.0,0.0,0.0,0.0,0.0,0.0,0.0,0.0,0.0,0.0,0.0,0.0,0.0,0.0,0.0,0.0,0.0,0.0,0.0,0.0,0.0,0.0,0.0,0.0,0.0,0.0,0.0,0.0,0.0,0.0,0.0,0.0,0.0,0.0,0.0,0.0,1.3193,1.3488,1.4662,1.6669,1.5245,1.4742,0.0,0.0,0.0,0.0,0.0,0.0,0.0,0.0,0.0,0.0,0.0,0.0,0.0,0.0,0.0,0.0,0.0,0.0,0.0,0.0,0.0,0.0,0.0,0.0,0.0,0.0,0.0,0.0,0.0,0.0,0.0,0.0,0.0,0.0,0.0,0.0,0.0,0.0,0.0,0.0,0.0,0.0,0.0,0.0,0.0,0.0,0.0,0.0,0.0,0.0,0.0,0.0,0.0,0.0,0.0,0.0,0.0,0.0,0.0,0.0,0.0,0.0,0.0,0.0,0.0,0.0,0.0,0.0,0.0,0.0,0.0,0.0,0.0,0.0,0.0,0.0,0.0,0.0,0.0,0.0,0.0,0.0,0.0,0.0,0.0,0.0,0.0,0.0,0.0,0.0,0.0,0.0,0.0,0.0,0.0,0.0,0.0,0.0,0.0,0.0,0.0,0.0,0.0,0.0,0.0,0.0,0.0,0.0,0.0,1.261,0.0,1.5562,0.0,1.5166,1.4444,0.0,0.0,0.0,0.0,0.0,0.0,0.0,0.0,0.0,0.0,0.0,0.0,0.0,0.0,0.0,0.0,0.0,0.0,0.0,0.0,0.0,0.0,0.0,0.0,0.0,0.0,0.0,0.0,0.0,0.0,0.0,0.0,0.0,0.0,0.0,0.0,0.0,0.0,0.0,0.0,0.0,0.0,0.0,0.0,0.0,0.0,0.0,0.0,0.0,0.0,0.0,0.0,0.0,0.0,0.0,0.0,0.0,0.0,0.0,0.0,0.0,0.0,0.0,0.0,0.0,0.0,0.0,0.0,0.0,0.0,0.0,0.0,0.0,0.0,0.0,0.0,0.0,0.0,0.0,0.0,0.0,0.0,0.0,0.0,0.0,0.0,0.0,0.0,0.0,0.0,0.0,0.0,0.0,0.0,0.0,0.0,0.0,0.0,0.0,0.0,0.0,0.0,0.0,0.0,0.0,0.0,0.0,0.0,1.2629,1.4146,1.5719,1.5927,1.4636,1.4557,1.3905,0.0,0.0,0.0,0.0,0.0,0.0,0.0,0.0,0.0,0.0,0.0,0.0,0.0,0.0,0.0,0.0,0.0,0.0,0.0,0.0,0.0,0.0,0.0,0.0,0.0,0.0,0.0,0.0,0.0,0.0,0.0,0.0,0.0,0.0,0.0,0.0,0.0,0.0,0.0,0.0,0.0,0.0,0.0,0.0,0.0,0.0,0.0,0.0,0.0,0.0,0.0,0.0,0.0,0.0,0.0,0.0,0.0,0.0,0.0,0.0,0.0,0.0,0.0,0.0,0.0,0.0,0.0,0.0,0.0,0.0,0.0,0.0,0.0,0.0,0.0,0.0,0.0,0.0,0.0,0.0,0.0,0.0,0.0,0.0,0.0,0.0,0.0,0.0,0.0,0.0,0.0,0.0,0.0,0.0,0.0,0.0,0.0,0.0,0.0,0.0,0.0,0.0,0.0,0.0,0.0,0.0,0.0,0.0,0.0,1.4036,1.545,1.6298,1.6509,1.4945,1.4589,0.0,0.0,0.0,0.0,0.0,0.0,0.0,0.0,0.0,0.0,0.0,0.0,0.0,0.0,0.0,0.0,0.0,0.0,0.0,0.0,0.0,0.0,0.0,0.0,0.0,0.0,0.0,0.0,0.0,0.0,0.0,0.0,0.0,0.0,0.0,0.0,0.0,0.0,0.0,0.0,0.0,0.0,0.0,0.0,0.0,0.0,0.0,0.0,0.0,0.0,0.0,0.0,0.0,0.0,0.0,0.0,0.0,0.0,0.0,0.0,0.0,0.0,0.0,0.0,0.0,0.0,0.0,0.0,0.0,0.0,0.0,0.0,0.0,0.0,0.0,0.0,0.0,0.0,0.0,0.0,0.0,0.0,0.0,0.0,0.0,0.0,0.0,0.0,0.0,0.0,0.0,0.0,0.0,0.0,0.0,0.0,0.0,0.0,0.0,0.0,0.0,0.0,0.0,0.0,0.0,0.0,0.0,0.0,0.0,1.5321,1.6614,1.7391,1.7482,1.6017,1.5485,1.5999,0.0,0.0,0.0,0.0,0.0,0.0,0.0,0.0,0.0,0.0,0.0,0.0,0.0,0.0,0.0,0.0,0.0,0.0,0.0,0.0,0.0,0.0,0.0,0.0,0.0,0.0,0.0,0.0,0.0,0.0,0.0,0.0,0.0,0.0,0.0,0.0,0.0,0.0,0.0,0.0,0.0,0.0,0.0,0.0,0.0,0.0,0.0,0.0,0.0,0.0,0.0,0.0,0.0,0.0,0.0,0.0,0.0,0.0,0.0,0.0,0.0,0.0,0.0,0.0,0.0,0.0,0.0,0.0,0.0,0.0,0.0,0.0,0.0,0.0,0.0,0.0,0.0,0.0,0.0,0.0,0.0,0.0,0.0,0.0,0.0,0.0,0.0,0.0,0.0,0.0,0.0,0.0,0.0,0.0,0.0,0.0,0.0,0.0,0.0,0.0,0.0,0.0,0.0,0.0,0.0,0.0,0.0,0.0,1.7747,1.9098,1.9127,1.7766,1.7548,1.6592,0.0,0.0,0.0,0.0,0.0,0.0,0.0,0.0,0.0,0.0,0.0,0.0,0.0,0.0,0.0,0.0,0.0,0.0,0.0,0.0,0.0,0.0,0.0,0.0,0.0,0.0,0.0,0.0,0.0,0.0,0.0,0.0,0.0,0.0,0.0,0.0,0.0,0.0,0.0,0.0,0.0,0.0,0.0,0.0,0.0,0.0,0.0,0.0,0.0,0.0,0.0,0.0,0.0,0.0,0.0,0.0,0.0,0.0,0.0,0.0,0.0,0.0,0.0,0.0,0.0,0.0,0.0,0.0,0.0,0.0,0.0,0.0,0.0,0.0,0.0,0.0,0.0,0.0,0.0,0.0,0.0,0.0,0.0,0.0,0.0,0.0,0.0,0.0,0.0,0.0,0.0,0.0,0.0,0.0,0.0,0.0,0.0,0.0,0.0,0.0,0.0,0.0,0.0,0.0,0.0,0.0,0.0,0.0,0.0,2.0799,2.1788,2.148,1.9887,1.834,1.7726,0.0,0.0,0.0,0.0,0.0,0.0,0.0,0.0,0.0,0.0,0.0,0.0,0.0,0.0,0.0,0.0,0.0,0.0,0.0,0.0,0.0,0.0,0.0,0.0,0.0,0.0,0.0,0.0,0.0,0.0,0.0,0.0,0.0,0.0,0.0,0.0,0.0,0.0,0.0,0.0,0.0,0.0,0.0,0.0,0.0,0.0,0.0,0.0,0.0,0.0,0.0,0.0,0.0,0.0,0.0,0.0,0.0,0.0,0.0,0.0,0.0,0.0,0.0,0.0,0.0,0.0,0.0,0.0,0.0,0.0,0.0,0.0,0.0,0.0,0.0,0.0,0.0,0.0,0.0,0.0,0.0,0.0,0.0,0.0,0.0,0.0,0.0,0.0,0.0,0.0,0.0,0.0,0.0,0.0,0.0,0.0,0.0,0.0,0.0,0.0,0.0,0.0,0.0,0.0,0.0,0.0,0.0,0.0,1.9079,2.1504,2.2635,2.2586,2.1283,2.0377,1.9556,0.0,0.0,0.0,0.0,0.0,0.0,0.0,0.0,0.0,0.0,0.0,0.0,0.0,0.0,0.0,0.0,0.0,0.0,0.0,0.0,0.0,0.0,0.0,0.0,0.0,0.0,0.0,0.0,0.0,0.0,0.0,0.0,0.0,0.0,0.0,0.0,0.0,0.0,0.0,0.0,0.0,0.0,0.0,0.0,0.0,0.0,0.0,0.0,0.0,0.0,0.0,0.0,0.0,0.0,0.0,0.0,0.0,0.0,0.0,0.0,0.0,0.0,0.0,0.0,0.0,0.0,0.0,0.0,0.0,0.0,0.0,0.0,0.0,0.0,0.0,0.0,0.0,0.0,0.0,0.0,0.0,0.0,0.0,0.0,0.0,0.0,0.0,0.0,0.0,0.0,0.0,0.0,0.0,0.0,0.0,0.0,0.0,0.0,0.0,0.0,0.0,0.0,0.0,0.0,0.0,0.0,0.0,0.0,1.9336,2.1047,2.2635,2.3048,2.2226,2.2765,2.1502,0.0,0.0,0.0,0.0,0.0,0.0,0.0,0.0,0.0,0.0,0.0,0.0,0.0,0.0,0.0,0.0,0.0,0.0,0.0,0.0,0.0,0.0,0.0,0.0,0.0,0.0,0.0,0.0,0.0,0.0,0.0,0.0,0.0,0.0,0.0,0.0,0.0,0.0,0.0,0.0,0.0,0.0,0.0,0.0,0.0,0.0,0.0,0.0,0.0,0.0,0.0,0.0,0.0,0.0,0.0,0.0,0.0,0.0,0.0,0.0,0.0,0.0,0.0,0.0,0.0,0.0,0.0,0.0,0.0,0.0,0.0,0.0,0.0,0.0,0.0,0.0,0.0,0.0,0.0,0.0,0.0,0.0,0.0,0.0,0.0,0.0,0.0,0.0,0.0,0.0,0.0,0.0,0.0,0.0,0.0,0.0,0.0,0.0,0.0,0.0,0.0,0.0,0.0,0.0,0.0,0.0,0.0,0.0,2.0689,2.2813,2.4312,2.4463,2.3129,2.2651,2.1449,0.0,0.0,0.0,0.0,0.0,0.0,0.0,0.0,0.0,0.0,0.0,0.0,0.0,0.0,0.0,0.0,0.0,0.0,0.0,0.0,0.0,0.0,0.0,0.0,0.0,0.0,0.0,0.0,0.0,0.0,0.0,0.0,0.0,0.0,0.0,0.0,0.0,0.0,0.0,0.0,0.0,0.0,0.0,0.0,0.0,0.0,0.0,0.0,1.3996,0.0,0.0,0.0,0.0,0.0,0.0,0.0,0.0,0.0,0.0,0.0,0.0,0.0,0.0,0.0,0.0,0.0,0.0,0.0,0.0,0.0,0.0,0.0,0.0,0.0,0.0,0.0,0.0,0.0,0.0,0.0,0.0,0.0,0.0,0.0,0.0,0.0,0.0,0.0,0.0,0.0,0.0,0.0,0.0,0.0,0.0,0.0,0.0,0.0,0.0,0.0,0.0,0.0,0.0,0.0,0.0,0.0,0.0,0.0,2.1279,2.2811,2.4308,2.4391,2.297,2.3129,2.2209,0.0,0.0,0.0,0.0,0.0,0.0,0.0,0.0,0.0,0.0,0.0,0.0,0.0,0.0,0.0,0.0,0.0,0.0,0.0,0.0,0.0,0.0,0.0,0.0,0.0,0.0,0.0,0.0,0.0,0.0,0.0,0.0,0.0,0.0,0.0,0.0,0.0,0.0,0.0,0.0,0.0,0.0,0.0,0.0,0.0,0.0,0.0,0.0,0.0,0.0,0.0,0.0,0.0,0.0,0.0,0.0,0.0,0.0,0.0,0.0,0.0,0.0,0.0,0.0,0.0,0.0,0.0,0.0,0.0,0.0,0.0,0.0,0.0,0.0,0.0,0.0,0.0,0.0,0.0,0.0,0.0,0.0,0.0,0.0,0.0,0.0,0.0,0.0,0.0,0.0,0.0,0.0,0.0,0.0,0.0,0.0,0.0,0.0,0.0,0.0,0.0,0.0,0.0,0.0,0.0,0.0,0.0,2.0101,2.1467,2.2228,2.3819,2.3932,2.2381,2.3833,2.319,2.012,0.0,0.0,0.0,0.0,0.0,0.0,0.0,0.0,0.0,0.0,0.0,0.0,0.0,0.0,0.0,0.0,0.0,0.0,0.0,0.0,0.0,0.0,0.0,0.0,0.0,0.0,0.0,0.0,0.0,0.0,0.0,0.0,0.0,0.0,0.0,0.0,0.0,0.0,1.2756,1.4069,0.0,0.0,0.0,0.0,0.0,0.0,0.0,0.0,1.4656,0.0,0.0,0.0,0.0,0.0,0.0,0.0,0.0,0.0,0.0,0.0,0.0,0.0,0.0,0.0,0.0,0.0,0.0,0.0,0.0,0.0,0.0,0.0,0.0,0.0,0.0,0.0,0.0,0.0,0.0,0.0,0.0,0.0,0.0,0.0,0.0,0.0,0.0,0.0,0.0,0.0,0.0,0.0,0.0,0.0,0.0,0.0,0.0,0.0,0.0,0.0,0.0,0.0,0.0,0.0,0.0,2.0484,2.0968,2.1552,2.2299,2.4325,2.4425,2.2448,2.4325,2.3716,2.0217,0.0,0.0,0.0,0.0,0.0,0.0,0.0,0.0,0.0,0.0,0.0,0.0,0.0,0.0,0.0,0.0,0.0,0.0,0.0,0.0,0.0,0.0,0.0,0.0,0.0,0.0,0.0,0.0,0.0,0.0,0.0,0.0,0.0,0.0,0.0,0.0,0.0,0.0,0.0,1.6701,1.7231,0.0,0.0,0.0,0.0,0.0,0.0,0.0,0.0,1.5146,0.0,0.0,0.0,0.0,0.0,0.0,0.0,0.0,0.0,0.0,0.0,0.0,0.0,0.0,0.0,0.0,0.0,0.0,0.0,0.0,0.0,0.0,0.0,0.0,0.0,0.0,0.0,0.0,0.0,0.0,0.0,0.0,0.0,0.0,0.0,0.0,0.0,0.0,0.0,0.0,0.0,0.0,0.0,0.0,0.0,0.0,0.0,0.0,0.0,0.0,0.0,0.0,0.0,0.0,0.0,2.0422,2.1336,2.2141,2.2868,2.3917,2.3765,2.2364,2.3327,2.2651,0.0,0.0,0.0,0.0,0.0,0.0,0.0,0.0,0.0,0.0,0.0,0.0,0.0,0.0,0.0,0.0,0.0,0.0,0.0,0.0,0.0,0.0,0.0,0.0,0.0,0.0,0.0,0.0,0.0,0.0,0.0,0.0,0.0,0.0,0.0,0.0,0.0,0.0,0.0,0.0,1.732,1.7935,1.8307,0.0,0.0,0.0,0.0,0.0,0.0,1.6035,1.5561,0.0,0.0,0.0,0.0,0.0,0.0,0.0,0.0,0.0,0.0,0.0,0.0,0.0,0.0,0.0,0.0,0.0,0.0,0.0,0.0,0.0,0.0,0.0,0.0,0.0,0.0,0.0,0.0,0.0,0.0,0.0,0.0,0.0,0.0,0.0,0.0,0.0,0.0,0.0,0.0,0.0,0.0,0.0,0.0,0.0,0.0,0.0,0.0,0.0,0.0,0.0,0.0,0.0,0.0,0.0,2.0199,2.1437,2.2513,2.3359,2.3528,2.319,2.2347,2.2885,2.2195,0.0,0.0,0.0,0.0,0.0,0.0,0.0,0.0,0.0,0.0,0.0,0.0,0.0,0.0,0.0,0.0,0.0,0.0,0.0,0.0,0.0,0.0,0.0,0.0,0.0,0.0,0.0,0.0,0.0,0.0,0.0,0.0,0.0,0.0,0.0,0.0,0.0,0.0,0.0,0.0,0.0,1.8848,1.9299,1.8741,0.0,0.0,0.0,0.0,1.8572,1.7591,0.0,0.0,0.0,0.0,0.0,0.0,0.0,0.0,0.0,0.0,0.0,0.0,0.0,0.0,0.0,0.0,0.0,0.0,0.0,0.0,0.0,0.0,0.0,0.0,0.0,0.0,0.0,0.0,0.0,0.0,0.0,0.0,0.0,0.0,0.0,0.0,0.0,0.0,0.0,0.0,0.0,0.0,0.0,0.0,0.0,0.0,0.0,0.0,0.0,0.0,0.0,0.0,0.0,0.0,0.0,0.0,2.0847,2.1201,2.202,2.3325,2.4034,2.3697,2.2381,2.4831,2.4239,0.0,0.0,0.0,0.0,0.0,0.0,0.0,0.0,0.0,0.0,0.0,0.0,0.0,0.0,0.0,0.0,0.0,0.0,0.0,0.0,0.0,0.0,0.0,0.0,0.0,0.0,0.0,0.0,0.0,0.0,0.0,0.0,0.0,0.0,0.0,0.0,0.0,0.0,0.0,0.0,0.0,2.1566,2.1004,2.0251,1.9963,0.0,0.0,2.0132,2.1552,2.1075,0.0,0.0,0.0,0.0,0.0,0.0,0.0,0.0,0.0,0.0,0.0,0.0,0.0,0.0,0.0,0.0,0.0,0.0,0.0,0.0,0.0,0.0,0.0,0.0,0.0,0.0,0.0,0.0,0.0,0.0,0.0,0.0,0.0,0.0,0.0,0.0,0.0,0.0,0.0,0.0,0.0,0.0,0.0,0.0,0.0,0.0,0.0,0.0,0.0,0.0,0.0,0.0,0.0,0.0,0.0,1.8783,2.1646,2.1823,2.2733,2.4543,2.4137,2.3562,2.2922,2.3765,2.2699,0.0,0.0,0.0,0.0,0.0,0.0,0.0,0.0,0.0,0.0,0.0,0.0,0.0,0.0,0.0,0.0,0.0,0.0,0.0,0.0,0.0,0.0,0.0,0.0,0.0,0.0,0.0,0.0,0.0,0.0,0.0,0.0,0.0,0.0,0.0,0.0,0.0,0.0,0.0,0.0,0.0,0.0,2.2293,2.2141,0.0,0.0,0.0,2.2144,2.2835,0.0,0.0,0.0,0.0,0.0,0.0,0.0,0.0,0.0,0.0,0.0,0.0,0.0,0.0,0.0,0.0,0.0,0.0,0.0,0.0,0.0,0.0,0.0,0.0,0.0,0.0,0.0,0.0,0.0,0.0,0.0,0.0,0.0,0.0,0.0,0.0,0.0,0.0,0.0,0.0,0.0,0.0,0.0,0.0,0.0,0.0,0.0,0.0,0.0,0.0,0.0,0.0,0.0,0.0,0.0,0.0,0.0,2.2212,2.2313,2.3378,2.5474,2.434,2.3596,2.3393,2.3209,0.0,0.0,0.0,0.0,0.0,0.0,0.0,0.0,0.0,0.0,0.0,0.0,0.0,0.0,0.0,0.0,0.0,0.0,0.0,0.0,0.0,0.0,0.0,0.0,0.0,0.0,0.0,0.9664,0.0,0.0,0.0,0.0,0.0,0.0,0.0,0.0,0.0,0.0,0.0,0.0,0.0,0.0,2.1316,2.3393,2.3678,2.3596,0.0,0.0,2.4002,2.4205,2.3291,2.207,0.0,0.0,0.0,0.0,0.0,0.0,0.0,0.0,0.0,0.0,0.0,0.0,0.0,0.0,0.0,0.0,0.0,0.0,0.0,0.0,0.0,0.0,0.0,0.0,0.0,0.0,0.0,0.0,0.0,0.0,0.0,0.0,0.0,0.0,0.0,0.0,0.0,0.0,0.0,0.0,0.0,0.0,0.0,0.0,0.0,0.0,0.0,0.0,0.0,0.0,0.0,0.0,0.0,0.0,0.0,2.2178,2.2313,2.3378,2.549,2.4829,2.4101,2.3444,2.4695,2.3646,0.0,0.0,0.0,0.0,0.0,0.0,0.0,0.0,0.0,0.0,0.0,0.0,0.0,0.0,0.0,0.0,0.0,0.0,0.0,0.0,0.0,0.0,0.0,0.0,0.0,0.0,0.0,0.0,0.0,0.0,0.0,0.0,0.0,0.0,0.0,0.0,0.0,0.0,0.0,0.0,0.0,2.2716,2.422,2.4423,2.4897,0.0,0.0,2.5693,2.6353,2.6369,2.5135,2.1698,0.0,0.0,0.0,0.0,0.0,0.0,0.0,0.0,0.0,0.0,0.0,0.0,0.0,0.0,0.0,0.0,0.0,0.0,0.0,0.0,0.0,0.0,0.0,0.0,0.0,0.0,0.0,0.0,0.0,0.0,0.0,0.0,0.0,0.0,0.0,0.0,0.0,0.0,0.0,0.0,0.0,0.0,0.0,0.0,0.0,0.0,0.0,0.0,0.0,0.0,0.0,0.0,0.0,1.9287,2.2245,2.275,2.4052,2.6133,2.5558,2.4831,2.4101,2.4611,2.3156,0.0,0.0,0.0,0.0,0.0,0.0,0.0,0.0,0.0,0.0,0.0,0.0,0.0,0.0,0.0,0.0,0.0,0.0,0.0,0.0,0.0,0.0,0.0,0.0,0.0,0.0,0.0,0.0,1.3193,1.3641,1.3658,0.0,0.0,0.0,0.0,0.0,0.0,0.0,0.0,0.0,0.0,2.3156,2.5523,2.5862,0.0,0.0,2.6454,2.6539,2.7249,2.6234,2.4863,2.3458,2.231,0.0,0.0,0.0,0.0,0.0,0.0,0.0,0.0,0.0,0.0,0.0,0.0,0.0,0.0,0.0,0.0,0.0,0.0,0.0,0.0,0.0,0.0,0.0,0.0,0.0,0.0,0.0,0.0,0.0,0.0,0.0,0.0,0.0,0.0,0.0,0.0,0.0,0.0,0.0,0.0,0.0,0.0,0.0,0.0,0.0,0.0,0.0,0.0,0.0,0.0,0.0,0.0,1.9507,2.2262,2.3038,2.4458,2.664,2.5981,2.5355,2.4847,2.4609,2.3052,0.0,0.0,0.0,0.0,0.0,0.0,0.0,0.0,0.0,0.0,0.0,0.0,0.0,0.0,0.0,0.0,0.0,0.0,0.0,0.0,0.0,0.0,0.0,0.0,0.0,0.0,0.0,0.0,1.4327,1.4419,1.4208,0.0,0.0,0.0,0.0,0.0,0.0,0.0,0.0,0.0,0.0,2.3951,2.664,2.7232,2.7385,2.7385,2.7182,2.7215,2.7722,2.6488,2.5252,2.4609,0.0,0.0,0.0,0.0,0.0,0.0,0.0,0.0,0.0,0.0,0.0,0.0,0.0,0.0,0.0,0.0,0.0,0.0,0.0,0.0,0.0,0.0,0.0,0.0,0.0,0.0,0.0,0.0,0.0,0.0,1.7629,0.0,0.0,0.0,0.0,0.0,0.0,0.0,0.0,0.0,0.0,0.0,0.0,0.0,0.0,0.0,0.0,0.0,0.0,0.0,0.0,0.0,0.0,2.001,2.2262,2.3088,2.4492,2.659,2.5964,2.5609,2.5542,2.488,2.3765,2.2178,0.0,0.0,0.0,0.0,0.0,0.0,0.0,0.0,0.0,0.0,0.0,0.0,0.0,0.0,0.0,0.0,0.0,0.0,0.0,0.0,0.0,0.0,0.0,0.0,0.0,0.0,1.5436,1.4909,1.4233,0.0,0.0,0.0,0.0,0.0,0.0,0.0,0.0,0.0,0.0,2.3562,2.527,2.7469,2.845,2.8891,2.8925,2.8298,2.779,2.7841,2.7756,2.6995,0.0,0.0,0.0,0.0,0.0,0.0,0.0,0.0,0.0,0.0,0.0,0.0,0.0,0.0,0.0,0.0,0.0,0.0,0.0,0.0,0.0,0.0,0.0,0.0,0.0,0.0,0.0,2.1271,2.1076,0.0,0.0,0.0,0.0,0.0,0.0,0.0,0.0,0.0,0.0,0.0,2.4847,2.5117,0.0,0.0,0.0,0.0,0.0,0.0,0.0,0.0,0.0,0.0,0.0,0.0,2.0741,2.297,2.4239,2.5456,2.6674,2.6454,2.6099,2.5609,2.5339,2.4069,2.1647,0.0,0.0,0.0,0.0,0.0,0.0,0.0,0.0,0.0,0.0,0.0,0.0,0.0,0.0,0.0,0.0,0.0,0.0,0.0,0.0,0.0,0.0,0.0,0.0,0.0,1.4814,0.0,0.0,0.0,0.0,0.0,0.0,0.0,0.0,0.0,0.0,0.0,2.2073,2.3562,2.5456,2.7334,2.9075,2.9127,2.9179,0.0,0.0,0.0,0.0,0.0,0.0,0.0,0.0,0.0,0.0,0.0,0.0,0.0,0.0,2.649,2.2349,2.0737,2.0281,2.1011,0.0,0.0,0.0,0.0,0.0,0.0,0.0,0.0,0.0,0.0,0.0,0.0,0.0,0.0,2.4007,0.0,2.3547,0.0,0.0,0.0,0.0,0.0,0.0,0.0,0.0,2.5372,2.6488,2.7858,2.7621,2.6996,0.0,2.5574,2.3545,0.0,0.0,0.0,0.0,0.0,0.0,0.0,0.0,2.1654,2.3376,2.4847,2.5964,2.6657,2.6708,2.6454,2.5998,2.5744,2.4325,2.1681,2.0399,1.927,0.0,0.0,0.0,0.0,0.0,0.0,0.0,0.0,0.0,0.0,0.0,0.0,0.0,0.0,0.0,0.0,0.0,0.0,0.0,0.0,0.0,0.0,0.0,1.5855,0.0,0.0,0.0,0.0,0.0,0.0,0.0,0.0,0.0,1.8685,2.1427,2.3864,2.5117,2.6962,2.8687,2.9939,0.0,0.0,0.0,0.0,0.0,0.0,0.0,2.8213,2.9211,2.8366,2.7385,2.686,2.8213,2.9127,2.8349,0.0,0.0,2.5248,2.393,2.3719,2.4448,2.4775,2.5144,2.5852,2.6215,2.6526,0.0,0.0,0.0,0.0,0.0,0.0,0.0,0.0,2.5847,2.6251,0.0,2.6099,0.0,0.0,0.0,0.0,0.0,2.5423,0.0,0.0,2.8991,3.0108,3.0057,2.9381,2.9061,2.9061,2.8993,2.7453,2.4525,2.1004,0.0,0.0,0.0,0.0,0.0,0.0,2.2753,2.3562,2.5033,2.6082,2.6793,2.6759,2.6725,2.6674,2.5981,2.4611,2.2567,2.2953,2.1989,1.9215,1.8939,0.0,0.0,0.0,0.0,0.0,0.0,0.0,0.0,0.0,0.0,0.0,0.0,0.0,0.0,0.0,0.0,0.0,0.0,0.0,0.0,1.7794,0.0,0.0,0.0,0.0,0.0,0.0,0.0,0.0,0.0,0.0,2.2533,2.3173,2.4374,2.6488,0.0,0.0,0.0,0.0,3.1224,3.1258,3.0683,3.0226,3.0241,3.0192,3.0176,3.0207,0.0,0.0,2.9382,3.0905,3.1599,2.9568,3.04,3.1159,3.0694,2.9023,2.8112,2.8798,2.8393,2.8343,2.9351,3.0044,3.0596,3.061,0.0,0.0,0.0,0.0,2.86,2.9479,3.1103,3.0598,3.0211,2.9854,2.9144,0.0,0.0,0.0,0.0,0.0,0.0,2.8619,2.9161,2.9803,3.0378,3.0869,3.0649,3.0565,3.0567,3.0023,2.9076,2.7673,2.6065,2.326,1.9473,0.0,0.0,0.0,0.0,2.5017,2.5795,2.7266,2.813,2.8333,2.7774,2.7232,2.6708,2.5981,2.5304,2.4663,2.3327,2.2479,2.209,2.0056,0.0,0.0,0.0,0.0,0.0,0.0,0.0,0.0,0.0,0.0,0.0,0.0,0.0,0.0,0.0,0.0,0.0,0.0,0.0,1.7754,1.7822,1.8014,0.0,0.0,0.0,0.0,0.0,0.0,0.0,0.0,0.0,2.5981,2.6911,2.7639,0.0,0.0,3.0855,3.1562,3.1853,3.2175,3.2679,3.2594,0.0,0.0,3.2002,3.185,3.2374,3.2645,3.2628,3.2205,3.2662,3.2882,3.2205,3.2719,3.3162,3.2967,3.1737,3.0994,3.1533,3.1391,3.1651,3.3136,3.3341,3.3326,3.4945,3.2391,3.0922,3.097,3.2036,3.1901,3.2611,3.3829,3.366,3.3203,3.2476,3.2036,3.092,2.933,2.9025,0.0,0.0,0.0,3.114,3.1833,3.1546,3.1952,3.2865,3.2357,3.207,3.2019,3.1326,3.0581,2.9873,2.9397,2.7266,2.3697,0.0,0.0,2.3458,2.5152,2.6251,2.6708,2.7622,2.8231,2.8501,2.8366,2.7926,2.7165,2.6708,2.6201,2.5625,2.4611,2.3833,2.341,2.1969,2.0433,0.0,0.0,0.0,0.0,0.0,0.0,0.0,0.0,0.0,0.0,0.0,1.5419,0.0,0.0,0.0,0.0,1.7489,1.8851,1.961,1.9629,0.0,0.0,0.0,0.0,0.0,0.0,0.0,2.5253,2.5846,2.6826,2.8872,2.9803,3.0194,2.9924,3.114,3.2222,3.2679,0.0,3.2899,3.3355,3.3389,3.3389,3.3389,3.3034,3.2983,3.3711,3.41,3.4264,3.4264,3.4286,3.4264,3.429,3.4478,3.4692,3.4877,3.4302,3.3747,3.3753,3.3618,3.3946,3.5211,3.5078,3.4997,3.8041,3.7702,3.4273,3.3237,3.3897,3.4506,3.481,3.4912,3.552,3.5402,3.4781,3.4624,3.415,3.3355,3.2767,0.0,3.2513,3.3237,3.388,3.4472,3.3812,3.4184,3.5329,3.4011,3.3419,3.3474,3.275,3.2039,3.1393,3.136,3.0649,2.9264,2.791,2.708,2.681,2.6911,2.6979,2.6979,2.7046,2.7368,2.7976,2.8704,2.8687,2.7824,2.7789,2.7131,2.5812,2.6218,2.5609,2.3731,2.4118,2.2832,1.9502,0.0,0.0,0.0,0.0,0.0,0.0,0.0,0.0,0.0,0.0,0.0,0.0,0.0,0.0,0.0,1.9993,0.0,2.2595,2.244,0.0,0.0,0.0,2.1011,2.2651,2.3985,2.5083,2.5879,0.0,0.0,3.121,3.1972,3.2226,3.1546,3.2594,3.3423,3.3491,3.3491,3.3491,3.3643,3.3609,3.3592,3.3728,3.3677,3.3863,3.4489,3.5165,3.5498,3.5515,3.5515,3.5566,3.5515,3.56,3.5683,3.6139,3.6322,3.6463,3.5314,3.5295,3.55,3.5943,3.6041,3.6041,3.9242,3.8667,3.7753,3.7499,3.7635,3.7246,3.7398,3.7889,3.7533,3.7263,3.7026,3.5853,3.4619,3.3423,3.3795,3.3964,3.3998,3.4742,3.4856,3.4489,3.4303,3.4134,3.3914,3.3575,3.3694,3.4167,3.3491,3.3051,3.2882,3.2882,3.2408,3.1565,3.1698,3.0359,2.7689,2.8686,2.9279,2.9296,2.9837,2.9939,2.9565,2.9753,2.9194,2.7858,2.7789,2.7367,2.6471,2.5506,2.5049,2.505,2.4171,2.3241,2.2378,2.0866,0.0,0.0,0.0,0.0,0.0,0.0,0.0,0.0,0.0,1.8121,1.5528,0.0,1.9321,0.0,2.1059,2.2829,2.4703,2.3352,0.0,0.0,2.4763,2.4474,2.7097,2.7165,2.7536,2.889,3.0159,3.1207,3.1955,3.3152,3.3918,3.3749,3.3525,3.3609,3.4134,3.4235,3.4438,3.4928,3.5042,3.5076,3.5042,3.5076,3.5143,3.5334,3.5498,3.56,3.5616,3.5616,3.5616,3.5616,3.5616,3.5644,3.5778,3.5871,3.6007,3.6047,3.6788,3.7476,3.7612,3.7612,3.7629,4.0857,4.046,4.046,4.046,4.0358,3.8971,3.8616,3.8954,3.8565,3.821,3.7872,3.7347,3.6671,3.596,3.6677,3.6829,3.6518,3.6586,3.6231,3.5504,3.5148,3.4754,3.4382,3.4366,3.4421,3.4472,3.4083,3.3897,3.388,3.388,3.3508,3.2835,3.3525,3.2527,2.9956,3.0649,3.092,3.0615,3.0666,3.0514,3.0123,3.0429,3.0023,2.8889,2.8821,2.8297,2.7215,2.6404,2.571,2.5118,2.4628,2.3919,2.2953,2.2177,2.1199,0.0,0.0,0.0,0.0,0.0,0.0,0.0,0.0,0.0,0.0,0.0,2.0769,2.1199,2.3147,2.4902,2.6143,2.5704,2.6131,2.8112,2.7233,2.73,2.9279,2.9381,2.9751,3.0937,3.1732,3.2442,3.3207,3.4003,3.4624,3.4945,3.4636,3.4518,3.4873,3.4996,3.5148,3.5532,3.5887,3.6146,3.6146,3.6394,3.6518,3.6231,3.6417,3.6614,3.6614,3.6614,3.6535,3.6231,3.6129,3.6181,3.6365,3.641,3.6632,3.7453,3.8272,3.8582,3.8042,3.7898,3.7933,4.2303,4.2303,4.2303,4.2303,4.2151,4.0223,3.936,3.9276,3.9174,3.8717,3.8075,3.8717,3.8937,3.8903,3.9537,3.9462,3.8819,3.8193,3.755,3.6914,3.6231,3.5859,3.5752,3.5752,3.5368,3.4658,3.4624,3.4573,3.4527,3.459,3.4269,3.3588,3.4286,3.3981,3.2767,3.2632,3.2175,3.1343,3.0615,3.0243,3.026,3.0852,3.0852,3.014,2.9987,2.9277,2.7891,2.7705,2.6793,2.4948,2.5389,2.4866,2.3004,2.3321,2.2962,0.0,2.1403,0.0,0.0,0.0,0.0,0.0,0.0,0.0,0.0,2.2224,2.2388,2.309,2.5637,2.7332,2.7538,2.8577,2.9321,2.9553,2.9484,2.9721,3.0446,3.1106,3.1715,3.2378,3.3085,3.3812,3.4336,3.4573,3.4928,3.5622,3.5718,3.5791,3.5887,3.5819,3.5802,3.5853,3.6485,3.6924,3.6975,3.7449,3.7618,3.7151,3.7381,3.7905,3.7821,3.7838,3.7669,3.7094,3.6924,3.7046,3.7384,3.7494,3.7858,3.8698,3.9221,3.9134,3.8272,3.8061,3.8008,4.2303,4.2303,4.2303,4.2303,4.2252,4.1847,4.1339,4.073,4.0163,3.9462,3.8802,3.892,3.865,3.8142,3.8244,3.8261,3.8108,3.7973,3.7838,3.7669,3.755,3.7144,3.6609,3.6592,3.6163,3.5414,3.538,3.5081,3.4544,3.5115,3.5013,3.432,3.5047,3.5245,3.4957,0.0,0.0,0.0,3.136,3.0987,3.1004,3.1123,3.0835,3.0125,2.9516,0.0,2.7858,2.7232,2.6725,2.6319,2.642,0.0,0.0,0.0,0.0,0.0,0.0,0.0,0.0,0.0,0.0,0.0,2.4475,2.3928,2.2536,2.4403,2.5808,2.6092,2.764,2.9133,3.0359,3.0133,3.0635,3.2307,3.2019,3.1972,3.2696,3.2899,3.3051,3.3186,3.3846,3.4336,3.4539,3.5013,3.569,3.6434,3.6552,3.6823,3.7381,3.6924,3.6806,3.7347,3.7601,3.7686,3.7702,3.7838,3.8007,3.7736,3.777,3.7939,3.799,3.7973,3.7922,3.7686,3.7702,3.7709,3.781,3.8123,3.8427,3.8676,3.882,3.8944,3.9295,3.9659,3.9968,4.3464,0.0,4.342,4.3447,0.0,4.3031,4.2625,4.2252,4.1491,4.0764,4.007,3.9706,3.9351,3.8971,3.8971,3.8988,3.8971,3.8599,3.8447,3.843,3.8075,3.7719,3.7371,3.7371,3.7127,3.6715,3.6366,3.5994,3.5661,3.5622,3.5211,3.4527,3.5228,3.5414,3.5064,3.4675,3.3783,3.231,3.1582,3.119,3.119,3.119,3.1021,3.0632,0.0,0.0,0.0,0.0,0.0,0.0,0.0,0.0,0.0,0.0,0.0,2.5625,2.5687,2.5378,2.4592,2.5555,2.6352,2.6724,2.7487,2.7148,2.5341,2.7806,2.9248,2.887,3.0555,3.1756,3.1901,3.1871,3.2249,3.3237,3.3068,3.3136,3.3795,3.3931,3.4083,3.4472,3.4827,3.5182,3.5571,3.5926,3.6485,3.7195,3.7371,3.7601,3.821,3.7804,3.7618,3.8311,3.8447,3.8447,3.8481,3.8785,3.8819,3.8582,3.8734,3.8937,3.8971,3.8996,3.887,3.8548,3.8447,3.843,3.8471,3.8653,3.8903,3.9299,3.9715,4.0123,4.0541,4.0237,3.9843,4.4598,4.4598,4.4598,4.4598,4.4547,4.3893,4.3623,4.3555,0.0,0.0,0.0,4.0773,4.0485,4.0485,4.0367,4.0299,4.0248,3.9537,3.9216,3.9157,3.8565,3.8227,3.8108,3.8108,3.8024,3.7872,3.728,3.6931,3.6778,3.6129,3.5453,3.481,3.5318,3.5233,3.4539,3.4489,3.385,3.253,3.1765,3.1393,3.1396,3.1258,3.119,3.119,3.0497,2.982,2.923,2.8569,2.7638,2.6488,2.6979,2.7029,2.6471,2.7418,2.801,2.8027,2.8654,2.8705,2.8077,2.8873,2.9211,2.8804,2.9954,3.0116,2.8835,3.0854,3.193,3.1226,3.3107,3.3917,3.3034,3.3407,3.3765,3.3761,3.3931,3.4269,3.481,3.503,3.5402,3.587,3.6039,3.6248,3.6857,3.6958,3.7286,3.7905,3.8091,3.8362,3.892,3.8717,3.8548,3.9056,3.9191,3.9191,3.9259,3.9622,3.9825,3.9292,3.9665,4.0079,4.0113,4.0113,3.9859,3.93,3.9191,3.9191,3.9216,3.9321,3.9525,4.0085,4.0808,4.137,4.1265,4.039,3.9687,4.4598,4.4598,4.4598,4.4598,4.4598,4.4496,4.4429,4.4299,4.2895,4.2252,4.2117,4.2033,4.1982,4.1931,4.1322,4.1052,4.1001,4.0273,3.9943,0.0,3.9842,3.9445,3.8853,3.8836,3.8514,3.7939,3.7804,3.7415,3.6846,3.6694,3.6214,3.5549,3.5549,3.525,3.4556,3.4489,3.4083,3.3254,3.2513,3.2141,3.2124,3.1549,3.119,3.1157,3.0514,3.0055,2.9956,2.9837,2.9683,2.9463,2.9565,2.9567,2.9447,2.9094,2.884,2.884,2.8942,2.8942,2.8873,3.0127,3.1393,3.251,3.281,3.2327,3.0961,3.1701,3.2465,3.2947,3.3458,3.3756,3.4143,3.4346,3.4714,3.5267,3.5893,3.6372,3.6457,3.6941,3.733,3.7449,3.7577,3.7527,3.7702,3.7753,3.8007,3.865,3.8836,3.9089,3.9673,3.9876,3.9842,3.9926,3.9943,3.996,3.9893,3.9994,4.0028,3.9994,3.9994,4.0113,4.0113,4.0113,4.0028,3.9943,3.9876,3.9893,3.9893,4.028,4.0401,4.0587,4.0808,4.0926,4.0949,4.0655,4.0879,4.4598,4.4598,4.4598,4.4598,4.4598,4.4598,4.4598,4.4547,4.387,4.3284,4.2861,4.2472,4.2303,4.2269,4.1931,4.1779,4.1779,4.1424,4.1068,4.0696,4.0722,4.0316,3.9656,3.9605,3.9419,3.9073,3.8684,3.8311,3.7973,3.7601,3.7212,3.6857,3.6451,3.5876,3.5126,3.5098,3.4945,3.4551,3.3474,3.2882,3.2882,3.256,3.2391,3.2408,3.1681,3.1292,3.1292,3.0903,3.07,3.07,3.1089,3.1106,3.0734,3.1123,3.119,3.0838,3.1176,3.1376,3.1396,3.2002,3.2696,3.3355,3.3778,3.3728,3.3034,3.3581,3.4024,3.4248,3.504,3.5655,3.5824,3.6124,3.6485,3.68,3.7195,3.7398,3.7415,3.7669,3.7905,3.7898,3.7898,3.8058,3.8447,3.8497,3.8768,3.9453,3.9605,3.9757,4.0062,4.0113,4.0113,4.0096,4.0096,4.0096,4.0113,4.0113,4.0113,4.0113,4.0113,4.0113,4.0113,4.0113,4.0113,4.0113,4.0113,4.0113,4.0113,4.0254,4.0402,4.0434,4.0676,4.0772,4.0802,4.0972,4.1521,4.4598,4.4598,4.4598,4.4598,4.4598,4.4598,4.4598,4.4598,4.4581,4.4231,4.3639,4.3047,4.2838,4.2794,4.2642,4.254,4.2523,4.2371,4.1982,4.1491,4.1441,4.1052,4.0392,4.035,4.0282,4.0062,3.952,3.9157,3.8937,3.843,3.8058,3.7872,3.733,3.6738,3.6124,3.5938,3.5893,3.5791,3.4573,3.3829,3.3643,3.3491,3.3389,3.3355,3.2831,3.2547,3.253,3.1985,3.1698,3.1715,3.2239,3.229,3.1782,3.278,3.3152,3.2699,3.3068,3.3453,3.3626,3.3643,3.3728,3.3914,3.4607,3.4996,3.504,3.5544,3.5731,3.557,3.6632,3.7369,3.7194,3.7513,3.7898,3.7898,3.8075,3.8142,3.8159,3.8278,3.8396,3.8396,3.8379,3.865,3.9073,3.9242,3.9445,3.9926,4.0113,4.0113,4.0113,4.0113,4.0113,4.0113,4.0113,4.0113,4.0113,4.0113,4.0113,4.0113,4.0113,4.0113,4.0113,4.0113,4.0113,4.0113,4.0113,4.0113,4.0113,4.0096,4.0121,4.0171,4.0402,4.0587,4.0611,4.0949,4.1521,4.4615,4.4598,4.4637,4.4598,4.4649,4.4649,4.4666,4.4649,4.4598,4.4581,4.4479,4.4412,4.4344,4.4293,4.3623,4.3291,4.3267,4.2608,4.2286,4.2202,4.2202,4.1796,4.1153,4.1102,4.073,4.0197,4.0045,3.9673,3.9073,3.8937,3.8565,3.799,3.7838,3.777,3.7577,3.7009,3.6694,3.6677,3.5842,3.5081,3.4404,3.3744,3.3389,3.3389,3.3355,3.3305,3.3355,3.3237,3.3182,3.3199,3.3288,3.3288,3.3237,3.3372,3.3389,3.3339,3.3389,3.3694,3.432,3.4387,3.4709,3.5346,3.6079,3.6558,3.6575,3.7208,3.7373,3.6943,3.7384,3.7865,3.7828,3.7939,3.8058,3.8142,3.8565,3.8886,3.8954,3.9478,3.991,3.991,3.9723,3.9926,3.9893,3.991,3.9977,4.0062,4.0113,4.0113,4.0113,4.0113,4.0113,4.0113,4.0113,4.0113,4.0113,4.0113,4.0113,4.0113,4.0113,4.0113,4.0113,4.0113,4.0113,4.0113,4.0113,4.0113,4.0113,4.0113,4.0113,4.0113,4.0171,4.0196,4.0221,4.0556,4.1116,4.5597,4.5597,4.5698,4.5814,4.5889,4.5889,4.5889,4.5855,4.5432,4.5229,4.5162,4.4801,4.4598,4.4598,4.4231,4.4096,4.4079,4.3775,4.3386,4.298,4.2963,4.2574,4.1897,4.1847,4.1457,4.0781,4.0747,4.0375,3.9749,3.9656,3.9283,3.8616,3.8548,3.8328,3.7922,3.7584,3.7449,3.7449,3.7104,3.6823,3.6417,3.5334,3.4687,3.4704,3.4687,3.4704,3.4726,3.4704,3.4687,3.4687,3.4687,3.4704,3.4726,3.4704,3.4704,3.4687,3.4687,3.4822,3.5126,3.5588,3.5977,3.6299,3.7009,3.7449,3.7466,3.8125,3.8413,3.821,3.8379,3.8548,3.8582,3.8937,3.9174,3.9249,3.9462,3.9656,3.9673,3.991,4.0113,4.0113,4.0113,4.0113,4.0113,4.0113,4.0113,4.0113,4.0113,4.0113,4.0113,4.0113,4.0113,4.0113,4.0113,4.0113,4.0113,4.0113,4.0113,4.0113,4.0113,4.0113,4.0113,4.0113,4.0113,4.0113,4.0113,4.0113,4.0113,4.0113,4.0113,4.0113,4.0113,4.0113,4.0113,4.0254,4.0683,4.6293,4.6324,4.6424,4.6591,4.671,4.6786,4.6786,4.6735,4.621,4.6007,4.594,4.5444,4.5224,4.5156,4.4801,4.4598,4.4598,4.4598,4.4282,4.3775,4.3713,4.3335,4.2642,4.2608,4.2219,4.161,4.1508,4.1136,4.0451,4.018,3.9825,3.9368,3.9276,3.9039,3.8531,3.8328,3.821,3.8193,3.8,3.7898,3.7736,3.68,3.6124,3.5943,3.5701,3.5616,3.5616,3.5616,3.5616,3.56,3.5616,3.5616,3.5616,3.5616,3.5684,3.5943,3.6124,3.6225,3.6225,3.6772,3.71,3.7144,3.7787,3.821,3.8328,3.887,3.9259,3.93,3.9317,3.9292,3.936,3.9791,4.0079,4.0113,4.0113,4.0113,4.0096,4.0113,4.0113,4.0113,4.0113,4.0113,4.0113,4.0113,4.0113,4.0113,4.0113,4.0113,4.0113,4.0113,4.0113,4.0113,4.0113,4.0113,4.0113,4.0113,4.0113,4.0113,4.0113,4.0113,4.0113,4.0113,4.0113,4.0113,4.0113,4.0113,4.0113,4.0113,4.0113,4.0113,4.0113,4.0113,4.0113,4.0121,4.0246,4.6293,4.6357,4.6458,4.6599,4.6561,4.6794,4.6836,4.6938,4.6786,4.6752,4.6752,4.665,4.665,4.6515,4.528,4.4649,4.4615,4.4615,4.4564,4.4451,4.4496,4.4113,4.3403,4.3341,4.298,4.2303,4.2252,4.1863,4.1136,4.0502,4.0096,4.0062,4.0062,4.0011,3.9808,3.9225,3.8954,3.8903,3.8362,3.799,3.7973,3.7872,3.7432,3.6829,3.6045,3.5718,3.5684,3.565,3.565,3.5633,3.5718,3.5684,3.565,3.5667,3.6028,3.6688,3.7381,3.7753,3.7719,3.7804,3.7855,3.7956,3.8531,3.8937,3.8988,3.9554,3.9926,4.0028,3.996,3.9977,3.9977,4.0011,4.0113,4.0113,4.0113,4.0113,4.0113,4.0113,4.0113,4.0113,4.0113,4.0113,4.0113,4.0113,4.0113,4.0113,4.0113,4.018,4.0231,4.018,4.0197,4.018,4.0163,4.0113,4.0113,4.0113,4.0113,4.0113,4.0113,4.0113,4.0113,4.0113,4.0113,4.0113,4.0113,4.0113,4.0113,4.0113,4.0113,4.0113,4.0113,4.0113,4.0113,4.0113,4.0171,4.7493,4.7745,4.79,4.8023,4.8098,4.8176,4.8206,4.8156,4.7716,4.7513,4.7411,4.7022,4.6786,4.6752,4.6244,4.5737,4.528,4.4835,4.4598,4.4598,4.4598,4.4434,4.4225,4.4164,4.3775,4.3098,4.2997,4.2642,4.1948,4.1636,4.1255,4.0865,4.0798,4.0578,4.0146,3.9842,3.9706,3.969,3.9436,3.9292,3.9208,3.8853,3.8464,3.8176,3.7483,3.7094,3.707,3.707,3.7053,3.7094,3.7094,3.7094,3.7053,3.707,3.7172,3.7483,3.7753,3.7898,3.7973,3.8345,3.8599,3.865,3.9276,3.969,3.974,3.9943,4.0113,4.0113,4.0113,4.0113,4.0113,4.0113,4.0113,4.0113,4.0113,4.0113,4.0113,4.0113,4.0113,4.0113,4.0113,4.0113,4.0113,4.0113,4.0113,4.0146,4.0476,4.0747,4.0798,4.0798,4.0798,4.0696,4.0409,4.0265,4.0798,4.035,4.0113,4.0113,4.0113,4.0163,4.018,4.0197,4.0214,4.0231,4.0197,4.0113,4.0113,4.0113,4.0113,4.0113,4.0113,4.0113,4.0113,4.0113,4.0113,4.8131,4.8373,4.8532,4.8658,4.8736,4.8798,4.8829,4.8779,4.8402,4.8183,4.8081,4.7703,4.7496,4.7445,4.7259,4.6904,4.6363,4.5652,4.519,4.4959,4.4942,4.4823,4.4632,4.4598,4.4299,4.3792,4.3477,4.3149,4.2675,4.2405,4.2033,4.1593,4.1559,4.1187,4.0561,4.0443,4.0367,4.0163,4.0113,4.0096,4.0045,3.9622,3.9343,3.9276,3.8853,3.8362,3.7956,3.7898,3.7898,3.7898,3.7898,3.7898,3.7922,3.8125,3.8261,3.8278,3.8497,3.8616,3.865,3.9073,3.9343,3.9385,3.9791,4.0113,4.0113,4.0316,4.0451,4.0502,4.0739,4.0823,4.0823,4.084,4.0637,4.0248,4.0113,4.0113,4.0113,4.0113,4.0113,4.0113,4.0113,4.0113,4.0146,4.0333,4.0451,4.0426,4.1085,4.1525,4.1559,4.1559,4.1559,4.1508,4.1187,4.1153,4.1441,4.1255,4.1111,4.1094,4.0925,4.0756,4.0587,4.0536,4.0417,4.04,4.0282,4.0163,4.0113,4.0113,4.0113,4.0113,4.0113,4.0113,4.0113,4.0113,4.0113,4.8001,4.8066,4.813,4.826,4.8324,4.8483,4.8498,4.853,4.8673,4.8652,4.8649,4.879,4.8734,4.8734,4.8142,4.7855,4.7699,4.709,4.6397,4.5771,4.5703,4.5365,4.4835,4.4767,4.4649,4.4462,4.3792,4.3443,4.3403,4.2844,4.2472,4.232,4.233,4.1931,4.1221,4.1187,4.0865,4.0434,4.0299,4.0197,4.0113,4.0062,3.9994,4.0028,3.996,3.9326,3.8091,3.8058,3.8125,3.8058,3.8058,3.7973,3.8193,3.865,3.9029,3.9114,3.9639,3.9994,4.0011,4.0011,3.9977,4.0011,4.0113,4.0248,4.035,4.0832,4.1204,4.1288,4.1728,4.2151,4.2117,4.2083,4.161,4.0451,4.0383,4.0383,4.0214,4.013,4.0113,4.0113,4.018,4.0146,4.0282,4.0764,4.117,4.1322,4.183,4.232,4.2303,4.2303,4.2303,4.2286,4.2033,4.1897,4.21,4.2286,4.2303,4.2286,4.2049,4.1847,4.161,4.1474,4.1068,4.0933,4.0316,4.0163,4.0113,4.0113,4.0113,4.0113,4.0113,4.0113,4.0113,4.0113,4.0113,4.8147,4.8179,4.8324,4.8403,4.842,4.8483,4.8483,4.8483,4.8595,4.8578,4.8595,4.8642,4.8721,4.8798,4.861,4.8571,4.8646,4.8376,4.7648,4.6633,4.6464,4.6329,4.6024,4.5585,4.5094,4.4649,4.435,4.4198,4.4147,4.3988,4.3623,4.3166,4.3064,4.2658,4.1999,4.1948,4.1796,4.1619,4.1102,4.0849,4.0798,4.0367,4.0113,4.0113,4.0096,3.9817,3.9453,3.9436,3.9419,3.936,3.9394,3.9394,3.9428,3.9622,3.9774,3.9791,3.996,4.0113,4.0113,4.0113,4.0113,4.0197,4.057,4.0815,4.0916,4.1542,4.1931,4.1948,4.2168,4.2303,4.2303,4.2303,4.2144,4.1687,4.161,4.1305,4.0815,4.0426,4.0146,4.0163,4.0527,4.0815,4.0984,4.1491,4.1931,4.2016,4.2608,4.3064,4.3064,4.3064,4.3064,4.3064,4.2777,4.2642,4.2912,4.3132,4.32,4.3132,4.2946,4.2794,4.2591,4.2252,4.1847,4.1322,4.0705,4.0316,4.0231,4.0197,4.0248,4.013,4.0113,4.0113,4.0113,4.0113,4.0113,4.8115,4.8147,4.826,4.8308,4.8292,4.834,4.8308,4.8324,4.8356,4.8371,4.842,4.8547,4.8627,4.8707,4.8832,4.8894,4.8909,4.897,4.8511,4.7648,4.7293,4.709,4.6735,4.6041,4.5483,4.5026,4.4733,4.4598,4.4598,4.4581,4.4361,4.3927,4.3842,4.347,4.2794,4.2692,4.2625,4.2269,4.1847,4.161,4.1508,4.1136,4.0925,4.0942,4.0899,4.0925,4.0942,4.0925,4.0671,4.0231,4.0113,4.0113,4.0113,4.0096,4.0113,4.0113,4.0096,4.0113,4.0113,4.0113,4.0248,4.051,4.0933,4.1339,4.1644,4.2286,4.2692,4.2709,4.3014,4.3159,4.3166,4.3149,4.3149,4.3159,4.2557,4.2016,4.1339,4.1052,4.0807,4.0798,4.1153,4.1525,4.1745,4.2236,4.2675,4.2811,4.3369,4.3842,4.3859,4.3859,4.3842,4.3775,4.3639,4.3639,4.3792,4.3927,4.4045,4.3927,4.3785,4.365,4.3481,4.3014,4.2574,4.2016,4.1416,4.1035,4.0916,4.0696,4.0629,4.0434,4.0248,4.0113,4.0113,4.0113,4.0163,4.8001,4.8001,4.8001,4.8033,4.8033,4.8033,4.8033,4.8033,4.813,4.8195,4.8292,4.8549,4.8627,4.861,4.8815,4.8894,4.8849,4.8956,4.8968,4.868,4.8257,4.7648,4.6955,4.6363,4.5991,4.5686,4.5173,4.4869,4.497,4.4835,4.4666,4.4666,4.453,4.4215,4.3606,4.346,4.3183,4.2709,4.2455,4.2354,4.2354,4.2202,4.2168,4.2168,4.2134,4.21,4.2066,4.2033,4.1534,4.04,4.0265,4.0231,4.013,4.013,4.0248,4.0282,4.0214,4.035,4.0282,4.0468,4.0654,4.1204,4.1457,4.1593,4.2354,4.3031,4.3487,4.3521,4.4028,4.4445,4.4429,4.4412,4.4429,4.4378,4.325,4.2236,4.1559,4.1897,4.1762,4.1508,4.1863,4.2354,4.2388,4.3031,4.3386,4.3589,4.4062,4.4333,4.4445,4.4367,4.453,4.4429,4.4209,4.4225,4.4215,4.4231,4.4333,4.4282,4.4209,4.4158,4.4022,4.3555,4.3166,4.2625,4.2168,4.1847,4.1559,4.1356,4.1102,4.0925,4.0654,4.0282,4.035,4.0603,4.0722,4.8001,4.8001,4.8001,4.8001,4.8001,4.8001,4.8001,4.8001,4.8033,4.8115,4.8195,4.8292,4.8436,4.8515,4.8721,4.8849,4.8832,4.894,4.9018,4.8984,4.8849,4.8308,4.7733,4.7428,4.7005,4.6532,4.6227,4.621,4.616,4.5635,4.5415,4.5382,4.4902,4.4519,4.4327,4.4265,4.4225,4.391,4.3369,4.3132,4.3047,4.2591,4.2303,4.2303,4.2337,4.2354,4.2303,4.2303,4.1897,4.1035,4.0916,4.0629,4.0299,4.0654,4.0899,4.095,4.1399,4.1704,4.166,4.1644,4.1779,4.2016,4.2422,4.2885,4.3098,4.3826,4.4198,4.4299,4.4502,4.4598,4.4598,4.4598,4.4598,4.4468,4.3673,4.3014,4.2733,4.2472,4.2202,4.2117,4.2675,4.3031,4.3284,4.369,4.4181,4.4248,4.4384,4.4598,4.4598,4.4598,4.4598,4.4598,4.4479,4.453,4.4564,4.4564,4.4564,4.4547,4.4496,4.4462,4.4198,4.3842,4.3504,4.3132,4.2794,4.2472,4.2236,4.2016,4.1745,4.1491,4.1457,4.1339,4.1576,4.1796,4.1745,4.8001,4.8001,4.8001,4.8001,4.8001,4.8001,4.8001,4.8001,4.8001,4.8033,4.8115,4.8163,4.8227,4.8308,4.8644,4.8738,4.8707,4.8909,4.9001,4.9018,4.8984,4.8748,4.8376,4.8108,4.7682,4.7276,4.6955,4.6769,4.6701,4.6346,4.6194,4.6024,4.5415,4.506,4.5026,4.4733,4.4598,4.4496,4.4113,4.391,4.3859,4.3487,4.3318,4.3267,4.325,4.325,4.3278,4.3267,4.2794,4.1931,4.1644,4.1457,4.1119,4.1407,4.166,4.1677,4.2083,4.2269,4.2303,4.2303,4.2455,4.2726,4.3189,4.3555,4.3876,4.435,4.4598,4.4581,4.4598,4.4598,4.4598,4.4598,4.4598,4.4519,4.4164,4.3792,4.346,4.3335,4.3081,4.3064,4.3403,4.391,4.3893,4.4344,4.4513,4.4581,4.453,4.4598,4.4598,4.4598,4.4598,4.4598,4.4598,4.4598,4.4598,4.4598,4.4598,4.4598,4.4598,4.4598,4.4445,4.4113,4.4012,4.3741,4.342,4.3132,4.2912,4.2692,4.2455,4.232,4.2405,4.2354,4.2405,4.2625,4.2625,4.8001,4.8001,4.8001,4.8001,4.8001,4.8001,4.8001,4.8001,4.8001,4.8001,4.8066,4.813,4.8163,4.8049,4.8549,4.8675,4.8547,4.8815,4.8956,4.9018,4.9018,4.8934,4.8832,4.8392,4.8108,4.7922,4.7327,4.7208,4.7208,4.7056,4.6904,4.6735,4.6177,4.5855,4.5669,4.5173,4.4767,4.4784,4.4598,4.4434,4.4445,4.4361,4.431,4.431,4.431,4.4344,4.4395,4.4395,4.3876,4.2634,4.2455,4.2303,4.2286,4.2286,4.2405,4.2472,4.2625,4.2726,4.2608,4.2777,4.2878,4.3436,4.3527,4.3809,4.435,4.4564,4.4598,4.4598,4.4598,4.4598,4.4598,4.4598,4.4598,4.4581,4.4564,4.4215,4.3876,4.4164,4.4299,4.3663,4.4198,4.4513,4.4598,4.4598,4.4598,4.4598,4.4598,4.4598,4.4598,4.4598,4.4598,4.4598,4.4598,4.4598,4.4598,4.4598,4.4598,4.4598,4.4598,4.4598,4.4598,4.4445,4.4513,4.4361,4.4005,4.3758,4.3623,4.3386,4.3166,4.3132,4.32,4.2912,4.2692,4.3064,4.3217,4.8001,4.8001,4.8001,4.8001,4.8001,4.8001,4.8001,4.8001,4.8001,4.8066,4.8147,4.8195,4.8163,4.8163,4.842,4.8547,4.8515,4.8721,4.8894,4.9018,4.9018,4.9018,4.8984,4.8765,4.8765,4.8663,4.8612,4.8494,4.8392,4.7902,4.7682,4.7581,4.6972,4.6566,4.6447,4.5855,4.5466,4.5365,4.4942,4.4716,4.4682,4.4682,4.4649,4.4615,4.4598,4.4598,4.4598,4.4598,4.4429,4.4028,4.3487,4.2963,4.2658,4.2929,4.3166,4.3301,4.3724,4.4039,4.4073,4.3988,4.4141,4.4181,4.4231,4.4401,4.453,4.4598,4.4598,4.4598,4.4598,4.4598,4.4598,4.4598,4.4649,4.4666,4.4682,4.4632,4.4445,4.4513,4.4462,4.4412,4.4445,4.4598,4.4598,4.4598,4.4598,4.4598,4.4598,4.4598,4.4598,4.4598,4.4598,4.4598,4.4598,4.4598,4.4598,4.4598,4.4598,4.4598,4.4598,4.4598,4.4598,4.4598,4.4598,4.4598,4.453,4.4316,4.4079,4.4164,4.3978,4.4005,4.3972,4.3802,4.3684,4.3826,4.3792,4.8001,4.8001,4.8001,4.8001,4.8001,4.8001,4.8001,4.8001,4.8001,4.8017,4.8082,4.8115,4.8115,4.8115,4.8292,4.8356,4.842,4.8564,4.8769,4.8863,4.8925,4.8956,4.9001,4.9018,4.9018,4.9001,4.8984,4.9018,4.8883,4.8646,4.8426,4.8376,4.7699,4.7361,4.7208,4.6583,4.6244,4.6177,4.5855,4.5483,4.5179,4.5111,4.4886,4.4666,4.4598,4.4598,4.4598,4.4598,4.4598,4.4496,4.4181,4.3809,4.3487,4.3707,4.3927,4.4062,4.4282,4.4598,4.4581,4.4598,4.4564,4.4598,4.4598,4.4598,4.4598,4.4598,4.4598,4.4598,4.4598,4.4598,4.4598,4.4598,4.4699,4.5043,4.5094,4.5229,4.5444,4.5055,4.4598,4.4598,4.4581,4.4598,4.4598,4.4801,4.4716,4.475,4.4666,4.4649,4.4615,4.4615,4.4598,4.4598,4.4598,4.4598,4.4598,4.4598,4.4598,4.4598,4.4598,4.4598,4.4598,4.4598,4.4598,4.4598,4.4598,4.4598,4.4445,4.4598,4.4598,4.4429,4.4361,4.453,4.4513,4.4293,4.4242,4.8001,4.8001,4.8001,4.8001,4.8001,4.8001,4.8001,4.8001,4.8001,4.8001,4.8001,4.8001,4.8033,4.8033,4.8115,4.8163,4.826,4.8436,4.8627,4.8738,4.8738,4.8801,4.8877,4.8925,4.8956,4.8987,4.897,4.9001,4.9018,4.9001,4.8866,4.8866,4.8426,4.8105,4.7919,4.7378,4.6972,4.6938,4.6701,4.638,4.5974,4.5855,4.5517,4.4976,4.4857,4.475,4.4666,4.4598,4.4649,4.475,4.4666,4.4682,4.475,4.4632,4.4598,4.4564,4.4581,4.4581,4.4598,4.4598,4.4598,4.4598,4.4767,4.4801,4.4807,4.5021,4.5055,4.4902,4.484,4.4886,4.4784,4.5089,4.5348,4.5703,4.5872,4.6177,4.6397,4.5664,4.5224,4.5089,4.5309,4.5393,4.5275,4.5297,4.5106,4.4919,4.4852,4.4818,4.4852,4.4716,4.475,4.4733,4.4767,4.4632,4.4598,4.4682,4.4682,4.475,4.4716,4.4716,4.4682,4.4598,4.4598,4.4598,4.4598,4.4598,4.4598,4.4598,4.4598,4.4598,4.4598,4.4598,4.4598,4.4598,4.4598,4.8001,4.8001,4.8001,4.8001,4.8001,4.8001,4.8001,4.8001,4.8001,4.8001,4.8001,4.8001,4.8001,4.8001,4.8033,4.8082,4.8195,4.8373,4.8483,4.8564,4.8564,4.8595,4.8658,4.8769,4.8832,4.888,4.8925,4.897,4.9001,4.9018,4.9018,4.8968,4.8849,4.8765,4.8545,4.8139,4.7733,4.7648,4.7293,4.6904,4.6684,4.6498,4.6227,4.5585,4.5517,4.5263,4.4835,4.4699,4.4857,4.5382,4.4908,4.501,4.528,4.501,4.475,4.4615,4.4682,4.475,4.4733,4.4716,4.4632,4.4733,4.5162,4.55,4.5652,4.5974,4.5906,4.5652,4.5517,4.5517,4.5534,4.5872,4.6392,4.6583,4.6633,4.6718,4.6802,4.6667,4.643,4.646,4.646,4.6244,4.6041,4.594,4.5906,4.5754,4.5635,4.5754,4.5906,4.5483,4.506,4.501,4.4959,4.4784,4.4598,4.4733,4.4818,4.497,4.5004,4.5021,4.4919,4.4682,4.4615,4.4801,4.4716,4.4598,4.4598,4.4598,4.4598,4.4598,4.4598,4.4615,4.4598,4.4598,4.4598,4.8001,4.8001,4.8001,4.8001,4.8001,4.8001,4.8001,4.8001,4.8001,4.8001,4.8001,4.8001,4.8001,4.8001,4.8001,4.8033,4.8115,4.8196,4.8276,4.8324,4.8356,4.842,4.8483,4.8595,4.8627,4.869,4.8801,4.8956,4.897,4.9001,4.9018,4.9001,4.9018,4.9018,4.8951,4.8663,4.8477,4.8359,4.8088,4.7716,4.7361,4.7073,4.6583,4.638,4.6278,4.6075,4.5872,4.5766,4.5918,4.6126,4.5923,4.5957,4.6024,4.5889,4.5376,4.4886,4.4959,4.5162,4.5263,4.5432,4.5771,4.5816,4.6092,4.6244,4.6329,4.6515,4.6633,4.6413,4.6261,4.6261,4.6278,4.6633,4.6938,4.7293,4.7378,4.7547,4.78,4.7885,4.7834,4.7682,4.7141,4.6786,4.665,4.6616,4.6718,4.6633,4.6481,4.6633,4.6904,4.6312,4.5635,4.5686,4.5686,4.5585,4.5382,4.5365,4.5348,4.5427,4.5478,4.5466,4.5449,4.5331,4.5229,4.5263,4.506,4.4902,4.4615,4.4632,4.4615,4.4649,4.4733,4.4784,4.4649,4.4598,4.4682,4.8001,4.8001,4.8001,4.8001,4.8001,4.8001,4.8001,4.8001,4.8001,4.8001,4.8001,4.8001,4.8001,4.8001,4.8001,4.8001,4.8001,4.8017,4.8099,4.8147,4.8179,4.826,4.8356,4.842,4.8435,4.8468,4.8644,4.8832,4.8909,4.897,4.9001,4.9018,4.9018,4.9018,4.8968,4.8917,4.9001,4.9018,4.8984,4.8646,4.8122,4.7581,4.7141,4.7039,4.7022,4.6938,4.665,4.6599,4.6769,4.6887,4.6853,4.6802,4.6955,4.687,4.6273,4.5393,4.5618,4.5838,4.6041,4.6312,4.6549,4.6532,4.6887,4.7005,4.7022,4.7073,4.7056,4.7022,4.7022,4.7022,4.7039,4.7192,4.7547,4.7919,4.8173,4.8308,4.8629,4.8765,4.8697,4.8342,4.7682,4.7479,4.7496,4.7581,4.775,4.7564,4.7394,4.7428,4.7547,4.6904,4.643,4.6515,4.6566,4.6549,4.6447,4.6329,4.6278,4.621,4.6244,4.6244,4.6244,4.621,4.6075,4.5906,4.5703,4.5483,4.5106,4.4886,4.5145,4.5246,4.5077,4.5145,4.5415,4.5213,4.506,4.8001,4.8001,4.8001,4.8001,4.8001,4.8001,4.8001,4.8001,4.8001,4.8001,4.8001,4.8001,4.8001,4.8001,4.8001,4.8001,4.8001,4.8001,4.8017,4.8066,4.8066,4.8066,4.8099,4.8179,4.8227,4.8292,4.8452,4.8627,4.8769,4.8877,4.897,4.9001,4.9018,4.9018,4.9018,4.9018,4.9018,4.9018,4.9018,4.8951,4.8815,4.8663,4.8291,4.7953,4.775,4.7564,4.7141,4.7107,4.7242,4.7682,4.7175,4.7192,4.753,4.7141,4.6836,4.6583,4.6616,4.665,4.6701,4.6921,4.7056,4.7208,4.7462,4.7703,4.7784,4.7784,4.7784,4.7753,4.7753,4.7784,4.7885,4.8308,4.868,4.8731,4.8731,4.8781,4.9018,4.9018,4.9018,4.8968,4.8325,4.846,4.8578,4.868,4.8765,4.8528,4.8342,4.8325,4.8189,4.7614,4.7259,4.7361,4.7394,4.7394,4.7428,4.7327,4.7259,4.7124,4.7124,4.7107,4.709,4.7056,4.6786,4.6616,4.638,4.621,4.5974,4.5889,4.5974,4.5957,4.5889,4.6177,4.6549,4.616,4.5585,4.8001,4.8001,4.8001,4.8001,4.8001,4.8001,4.8001,4.8001,4.8001,4.8001,4.8001,4.8001,4.8001,4.8001,4.8001,4.8001,4.8001,4.8001,4.8001,4.8001,4.8001,4.8001,4.8033,4.8049,4.8082,4.8147,4.8227,4.8324,4.8549,4.8755,4.8925,4.9001,4.9001,4.9018,4.9018,4.9018,4.9018,4.9018,4.9018,4.9018,4.9018,4.8984,4.8849,4.8562,4.8528,4.8291,4.8088,4.8054,4.8156,4.8477,4.8139,4.8173,4.8409,4.824,4.8054,4.8071,4.8054,4.7868,4.7547,4.78,4.7902,4.8037,4.8308,4.8511,4.8528,4.8494,4.8511,4.8528,4.8497,4.8511,4.8511,4.8815,4.8934,4.9018,4.9018,4.9018,4.9018,4.9018,4.9018,4.9018,4.9018,4.9018,4.9018,4.8968,4.8934,4.8815,4.868,4.868,4.8697,4.8528,4.8291,4.8223,4.824,4.8223,4.8291,4.8291,4.8274,4.8189,4.8206,4.8156,4.8037,4.7902,4.7581,4.7225,4.6921,4.6802,4.6802,4.6684,4.6549,4.665,4.6769,4.6972,4.7124,4.6769,4.6252,4.7835,4.8001,4.8001,4.8001,4.8001,4.8001,4.8001,4.8001,4.8001,4.8001,4.8001,4.8001,4.8001,4.8001,4.8001,4.8001,4.8001,4.8001,4.8001,4.8001,4.8001,4.8001,4.8001,4.8001,4.8001,4.8034,4.8115,4.8345,4.8592,4.8785,4.899,4.8956,4.8925,4.897,4.9001,4.9018,4.9018,4.9018,4.9018,4.9018,4.9018,4.9018,4.9001,4.8984,4.9001,4.9018,4.9018,4.8951,4.8951,4.8934,4.89,4.8832,4.8883,4.8832,4.8781,4.8798,4.8781,4.8612,4.8409,4.8545,4.8951,4.9018,4.9018,4.89,4.8934,4.9018,4.9001,4.8917,4.8917,4.8951,4.9001,4.9001,4.9001,4.9018,4.9018,4.9018,4.9018,4.9018,4.9018,4.9018,4.9018,4.9018,4.9018,4.9018,4.9001,4.9001,4.9001,4.9018,4.8984,4.8968,4.8866,4.868,4.868,4.8663,4.8731,4.8866,4.8984,4.9018,4.9018,4.8934,4.8646,4.8477,4.8257,4.7885,4.7547,4.7699,4.7868,4.7479,4.7141,4.753,4.7784,4.7581,4.7479,4.7192,4.699,4.7371,4.8001,4.8001,4.8001,4.8001,4.8001,4.8001,4.8001,4.8001,4.8001,4.8001,4.8001,4.8001,4.8001,4.8001,4.8001,4.8001,4.8001,4.8067,4.8067,4.8034,4.8183,4.8266,4.8315,4.8199,4.8199,4.8381,4.8746,4.906,4.9243,4.9136,4.8887,4.9188,4.9046,4.899,4.9055,4.9018,4.9018,4.9018,4.9018,4.9018,4.9018,4.9018,4.9018,4.9018,4.9018,4.9018,4.9018,4.9018,4.9018,4.9018,4.9018,4.9018,4.9018,4.9018,4.9018,4.9018,4.89,4.8866,4.8866,4.8968,4.9018,4.9018,4.9018,4.9018,4.9018,4.9018,4.9018,4.9018,4.9018,4.9018,4.9018,4.9018,4.9018,4.9018,4.9018,4.9018,4.9018,4.9018,4.9018,4.9018,4.9018,4.9018,4.9018,4.9018,4.9018,4.9018,4.9018,4.9018,4.8984,4.9001,4.8917,4.8934,4.8934,4.8951,4.9018,4.9018,4.9018,4.9018,4.9018,4.8917,4.8815,4.868,4.8646,4.8376,4.8663,4.8765,4.824,4.8054,4.8612,4.8765,4.8359,4.8071,4.7834,4.7727,4.7338,4.7984,4.8001,4.8001,4.8001,4.8001,4.8001,4.8001,4.8001,4.8001,4.8001,4.8001,4.8001,4.8001,4.8001,4.8001,4.8001,4.8001,4.8282,4.858,4.8696,4.8945,4.9144,4.9276,4.9375,4.9309,4.9342,4.9425,4.9791,4.9892,4.9876,4.9858,5.0003,4.9779,4.9656,4.9277,4.9137,4.9086,4.9052,4.9035,4.9018,4.9018,4.9018,4.9018,4.9018,4.9018,4.9018,4.9018,4.9018,4.9018,4.9018,4.9018,4.9018,4.9018,4.9018,4.9018,4.9018,4.9018,4.9018,4.9018,4.9018,4.9018,4.9018,4.9018,4.9018,4.9018,4.9018,4.9018,4.9018,4.9018,4.9018,4.9018,4.9018,4.9018,4.9052,4.9086,4.9221,4.9323,4.9323,4.9475,4.9204,4.9018,4.9018,4.9018,4.9018,4.9018,4.9018,4.9018,4.9018,4.9018,4.9018,4.9018,4.9018,4.9018,4.9018,4.9018,4.9018,4.9018,4.9018,4.9018,4.9018,4.9001,4.89,4.9001,4.9018,4.8951,4.8866,4.8731,4.8765,4.8934,4.9001,4.89,4.8663,4.8409,4.8453,4.699,4.7669,4.7901,4.8001,4.8001,4.8001,4.8001,4.8001,4.8001,4.8001,4.8001,4.8001,4.8001,4.8001,4.8001,4.8001,4.81,4.8282,4.8663,4.8995,4.9342,4.9706,5.002,5.0154,5.0005,5.022,5.0253,5.022,5.0553,5.0535,5.0754,5.1025,5.1229,5.0944,5.0249,4.9871,4.9644,4.9661,4.9661,4.9661,4.9712,4.9475,4.9373,4.9306,4.9187,4.9018,4.9018,4.9018,4.9018,4.9018,4.9018,4.9018,4.9018,4.9018,4.9018,4.9018,4.9018,4.9018,4.9018,4.9018,4.9018,4.9018,4.9018,4.9018,4.9018,4.9018,4.9018,4.9018,4.9018,4.9035,4.9052,4.9018,4.9255,4.9357,4.9475,4.956,4.9898,5.0067,4.9982,4.9965,4.9661,4.9407,4.9289,4.9306,4.912,4.9086,4.9018,4.9018,4.9018,4.9018,4.9018,4.9018,4.9018,4.9018,4.9018,4.9018,4.9018,4.9018,4.9018,4.9018,4.9018,4.9018,4.9018,4.9018,4.9018,4.9018,4.8951,4.8849,4.89,4.8984,4.9018,4.9018,4.8951,4.8724,4.9159,4.6278,4.699,4.7719,4.8001,4.8001,4.8001,4.8001,4.8001,4.8001,4.8001,4.8001,4.8001,4.8001,4.8001,4.8001,4.8084,4.8299,4.873,4.916,4.9475,4.9988,5.022,5.0386,5.0485,5.0684,5.0285,5.0518,5.0899,5.1264,5.1264,5.163,5.2051,5.2177,5.1915,5.1058,5.1053,5.1083,5.1116,5.1014,5.0947,5.0777,5.0321,5.0118,4.9949,4.9492,4.9238,4.9238,4.9052,4.9018,4.9018,4.9018,4.9018,4.9018,4.9018,4.9018,4.9018,4.9018,4.9018,4.9018,4.9018,4.9086,4.9035,4.9018,4.9018,4.9018,4.9018,4.912,4.9221,4.9187,4.9171,4.9103,4.9187,4.9627,4.9898,5.005,5.0202,5.0557,5.0828,5.076,5.0524,5.027,5.005,4.983,4.9627,4.9357,4.9204,4.9069,4.9018,4.9052,4.9018,4.9018,4.9018,4.9018,4.9018,4.9018,4.9018,4.9018,4.9018,4.9018,4.9018,4.9018,4.9018,4.9018,4.9018,4.9018,4.9018,4.9018,4.9001,4.9018,4.9018,4.9018,4.9001,4.9001,4.9101,4.9399,4.6212,4.6957,4.7703,4.8001,4.8001,4.8001,4.8001,4.8001,4.8001,4.8001,4.8001,4.8001,4.8001,4.8001,4.8067,4.8249,4.873,4.8895,4.9342,5.0502,5.0817,5.1264,5.1446,5.1479,5.1562,5.1645,5.1661,5.1612,5.2009,5.1962,5.2148,5.2537,5.2749,5.2504,5.1815,5.1492,5.12,5.12,5.12,5.12,5.1168,5.0997,5.0828,5.0794,5.0118,4.9746,4.9695,4.9424,4.9204,4.912,4.9103,4.9069,4.9035,4.9018,4.9018,4.9018,4.9018,4.9018,4.9171,4.9306,4.9458,4.9272,4.9137,4.9171,4.9035,4.9018,4.9238,4.961,4.9729,4.9915,5.0355,5.0473,5.076,5.0862,5.098,5.1048,5.1285,5.1505,5.1539,5.115,5.0845,5.0794,5.0625,5.0388,5.0101,4.983,4.9712,4.934,4.9255,4.9103,4.9035,4.9018,4.9018,4.9018,4.9018,4.9052,4.9035,4.9018,4.9018,4.9018,4.9018,4.9018,4.9018,4.9018,4.9018,4.9018,4.9018,4.9018,4.9018,4.9018,4.9018,4.9018,4.9001,4.9152,4.9487,4.6079,4.6609,4.7587,4.8001,4.8001,4.8001,4.8001,4.8001,4.8001,4.8001,4.8001,4.8001,4.8001,4.8001,4.8067,4.8415,4.9077,4.9442,4.9988,5.1282,5.163,5.1912,5.2227,5.2409,5.2227,5.2409,5.2409,5.2376,5.2343,5.2393,5.2464,5.2659,5.299,5.2858,5.2489,5.2234,5.2131,5.2181,5.2232,5.2164,5.2046,5.1809,5.1589,5.1386,5.0947,5.0473,5.0355,5.005,4.9627,4.9492,4.9373,4.9255,4.9154,4.9035,4.9018,4.9018,4.9289,4.934,4.9576,5.0101,5.0202,4.9982,4.9779,4.9763,4.9763,4.9932,5.0101,5.0355,5.0456,5.0744,5.1133,5.1302,5.1454,5.1539,5.1742,5.1792,5.2181,5.2418,5.2418,5.2012,5.1591,5.1523,5.1337,5.1151,5.0913,5.0627,5.0373,5.005,4.9712,4.961,4.956,4.956,4.9475,4.9492,4.9373,4.9154,4.9103,4.9018,4.9103,4.9221,4.9018,4.9018,4.9018,4.9018,4.9018,4.9018,4.9018,4.9018,4.9018,4.9018,4.9018,4.9018,4.9018,4.9199,4.9406,4.5765,4.6013,4.7355,4.7951,4.8001,4.8001,4.8001,4.8001,4.8001,4.8001,4.8001,4.8001,4.8001,4.8001,4.8001,4.8498,4.921,4.9856,5.0634,5.1382,5.1995,5.2293,5.2376,5.2409,5.2409,5.2409,5.2409,5.2409,5.2409,5.2445,5.2499,5.2659,5.3007,5.3094,5.3095,5.3078,5.3112,5.3061,5.3044,5.301,5.2926,5.2638,5.2418,5.2131,5.1691,5.1319,5.1166,5.098,5.0625,5.0355,5.0135,4.9712,4.939,4.912,4.9086,4.9306,4.9864,5.0033,5.0253,5.0828,5.115,5.1048,5.1234,5.1251,5.1014,5.0828,5.093,5.1099,5.1251,5.1319,5.1471,5.1657,5.1843,5.2063,5.2334,5.2672,5.3145,5.3315,5.3315,5.301,5.2587,5.2317,5.1911,5.1691,5.1826,5.1743,5.1574,5.1539,5.1166,5.0693,5.0642,5.0591,5.0439,5.0168,4.9949,4.9763,4.9746,4.9847,4.961,4.9627,4.934,4.9137,4.9154,4.9171,4.9052,4.9018,4.9018,4.9018,4.9018,4.9018,4.9018,4.9018,4.9001,4.9032,4.9286,4.5317,4.5881,4.6825,4.752,4.7968,4.8001,4.8001,4.8001,4.8001,4.8001,4.8001,4.8001,4.8001,4.8001,4.8017,4.8796,4.9558,5.0253,5.1048,5.1711,5.2277,5.2376,5.2409,5.2409,5.2409,5.2409,5.2409,5.2409,5.2409,5.248,5.264,5.285,5.3041,5.323,5.3382,5.3467,5.3467,5.3518,5.3518,5.3518,5.3518,5.3196,5.3061,5.2858,5.2384,5.2063,5.1961,5.1572,5.12,5.098,5.0896,5.0676,5.0659,5.0574,5.0574,5.0591,5.0811,5.0913,5.1031,5.1589,5.1995,5.2131,5.2418,5.2013,5.1624,5.142,5.1606,5.1843,5.2029,5.2097,5.2317,5.252,5.2604,5.2739,5.2942,5.3129,5.3518,5.3518,5.3518,5.3416,5.3027,5.2926,5.252,5.2604,5.2723,5.279,5.2773,5.2672,5.2469,5.1944,5.1674,5.1606,5.1251,5.093,5.0862,5.071,5.0676,5.0642,5.0371,5.0118,4.9949,4.9746,4.9509,4.9289,4.9154,4.9052,4.9018,4.9018,4.9018,4.9018,4.9018,4.9018,4.9001,4.9032,4.9346,4.4937,4.5467,4.6477,4.7322,4.7934,4.8001,4.8001,4.8001,4.8001,4.8001,4.8001,4.8001,4.8001,4.8001,4.8084,4.8763,5.0104,5.0237,5.0932,5.2026,5.2409,5.2409,5.2409,5.2409,5.2409,5.2409,5.2409,5.2409,5.2409,5.2535,5.2676,5.2764,5.3058,5.323,5.3332,5.3416,5.3518,5.3518,5.3518,5.3518,5.3518,5.3518,5.3518,5.3416,5.2926,5.2807,5.2706,5.2198,5.1995,5.1725,5.164,5.1454,5.1336,5.1183,5.1166,5.1183,5.1505,5.1589,5.1758,5.235,5.2655,5.2875,5.3196,5.2942,5.2621,5.2384,5.2536,5.2706,5.279,5.2926,5.323,5.3501,5.3484,5.3467,5.3484,5.3484,5.3518,5.3518,5.3518,5.3518,5.3467,5.345,5.3433,5.3518,5.3484,5.3315,5.323,5.3213,5.3078,5.279,5.2587,5.252,5.208,5.164,5.1623,5.1522,5.1302,5.1117,5.0963,5.0727,5.0574,5.0405,5.0202,4.9729,4.9221,4.9171,4.912,4.9035,4.9018,4.9052,4.912,4.9103,4.9086,4.9001,4.9509,4.4669,4.4837,4.6295,4.7322,4.7951,4.8001,4.8001,4.8001,4.8001,4.8001,4.8001,4.8001,4.8001,4.8001,4.805,4.8746,4.9723,5.0137,5.0833,5.231,5.2409,5.2409,5.2409,5.2409,5.2409,5.2409,5.2409,5.2409,5.2409,5.2499,5.257,5.2624,5.2903,5.3144,5.3264,5.3382,5.3433,5.3518,5.3518,5.3518,5.3518,5.3518,5.3518,5.3518,5.345,5.3433,5.345,5.3331,5.3162,5.2655,5.2317,5.2063,5.1826,5.1623,5.1606,5.1708,5.2181,5.2334,5.252,5.2976,5.3247,5.3399,5.3501,5.3382,5.3145,5.3027,5.3129,5.3162,5.3213,5.3213,5.345,5.3518,5.3518,5.3518,5.3518,5.3518,5.3518,5.3518,5.3518,5.3518,5.3518,5.3518,5.3518,5.3518,5.3518,5.3518,5.3518,5.3518,5.345,5.3298,5.323,5.3179,5.2824,5.2401,5.235,5.2198,5.1809,5.1574,5.1572,5.142,5.1336,5.115,5.0898,5.0371,4.9796,4.9407,4.9255,4.9289,4.9357,4.9357,4.9373,4.9272,4.9221,4.9238,4.9632,4.4208,4.4821,4.6278,4.7322,4.7968,4.8001,4.8001,4.8001,4.8001,4.8001,4.8001,4.8001,4.8001,4.8001,4.8001,4.8597,4.9309,5.0055,5.0717,5.1578,5.2127,5.2409,5.2409,5.2409,5.2409,5.2409,5.2409,5.2409,5.2409,5.2445,5.2516,5.2589,5.2799,5.2903,5.3161,5.3264,5.3348,5.3467,5.3518,5.3518,5.3518,5.3518,5.3518,5.3518,5.3518,5.3518,5.3518,5.3484,5.3399,5.3213,5.3213,5.3112,5.2993,5.2926,5.2926,5.2993,5.2976,5.3061,5.3145,5.3315,5.3467,5.3518,5.3518,5.3518,5.3484,5.3518,5.3518,5.3518,5.3518,5.3518,5.3518,5.3518,5.3518,5.3518,5.3518,5.3518,5.3518,5.3518,5.3518,5.3518,5.3518,5.3518,5.3518,5.3518,5.3518,5.3518,5.3518,5.3518,5.3518,5.3433,5.3416,5.3365,5.3399,5.3145,5.3044,5.2892,5.252,5.257,5.2672,5.2435,5.2114,5.1691,5.1269,5.0913,5.0456,5.0067,4.983,4.9864,4.9898,4.9881,5.0016,5.0067,4.9932,4.9915,5.0167,4.383,4.439,4.5798,4.704,4.7885,4.8001,4.8001,4.8001,4.8001,4.8001,4.8001,4.8001,4.8001,4.8001,4.8001,4.8365,4.9127,4.9889,5.0618,5.1313,5.1943,5.231,5.2409,5.2409,5.2409,5.2409,5.2409,5.2409,5.2409,5.2409,5.2445,5.2535,5.2605,5.2764,5.3076,5.3144,5.3298,5.3518,5.3518,5.3518,5.3518,5.3518,5.3518,5.3518,5.3518,5.3518,5.3518,5.3518,5.3501,5.3501,5.345,5.345,5.3382,5.3365,5.3433,5.3433,5.345,5.3518,5.3518,5.3518,5.3518,5.3518,5.3518,5.3518,5.3518,5.3518,5.3518,5.3518,5.3518,5.3518,5.3518,5.3518,5.3518,5.3518,5.3518,5.3518,5.3518,5.3518,5.3518,5.3518,5.3518,5.3518,5.3518,5.3518,5.3518,5.3518,5.3518,5.3518,5.3518,5.3518,5.3518,5.3518,5.3518,5.3518,5.3348,5.3315,5.3264,5.3416,5.3518,5.3213,5.2739,5.2147,5.1657,5.1488,5.12,5.076,5.0591,5.0591,5.0591,5.0625,5.0794,5.098,5.0794,5.0638,5.0991,4.3664,4.3929,4.5251,4.6576,4.7785,4.7968,4.8001,4.8001,4.8001,4.8001,4.8001,4.8001,4.8001,4.8001,4.8034,4.8481,4.9044,4.9823,5.0551,5.1148,5.1993,5.231,5.2409,5.2409,5.2409,5.2409,5.2445,5.2445,5.2445,5.2516,5.2551,5.2516,5.2622,5.2729,5.2955,5.3127,5.3298,5.3467,5.3518,5.3518,5.3518,5.3518,5.3518,5.3518,5.3518,5.3518,5.3518,5.3518,5.3518,5.3518,5.3518,5.3518,5.3518,5.3518,5.3518,5.3518,5.3518,5.3518,5.3518,5.3518,5.3518,5.3518,5.3518,5.3518,5.3518,5.3518,5.3518,5.3518,5.3518,5.3518,5.3518,5.3518,5.3518,5.3518,5.3518,5.3518,5.3518,5.3518,5.3518,5.3518,5.3518,5.3518,5.3518,5.3518,5.3518,5.3518,5.3518,5.3518,5.3518,5.3518,5.3518,5.3518,5.3518,5.3518,5.3518,5.3518,5.3518,5.3518,5.3518,5.3518,5.3365,5.2824,5.2452,5.235,5.2029,5.1505,5.1352,5.1352,5.1352,5.1352,5.1775,5.1961,5.1505,5.1463,5.1922,4.3959,4.4556,4.5433,4.6311,4.7139,4.7736,4.8001,4.8001,4.8001,4.8001,4.8001,4.8001,4.8001,4.8001,4.8001,4.8233,4.8531,4.9558,5.007,5.0551,5.1827,5.2277,5.2409,5.2409,5.2409,5.2445,5.248,5.2535,5.2535,5.2676,5.2781,5.2781,5.2764,5.2903,5.311,5.323,5.3298,5.3433,5.3518,5.3518,5.3518,5.3518,5.3518,5.3518,5.3518,5.3518,5.3518,5.3518,5.3518,5.3518,5.3518,5.3518,5.3518,5.3518,5.3518,5.3518,5.3518,5.3518,5.3518,5.3518,5.3518,5.3518,5.3518,5.3518,5.3518,5.3518,5.3518,5.3518,5.3518,5.3518,5.3518,5.3518,5.3518,5.3518,5.3518,5.3518,5.3518,5.3518,5.3518,5.3518,5.3518,5.3518,5.3518,5.3518,5.3518,5.3518,5.3518,5.3518,5.3518,5.3518,5.3518,5.3518,5.3518,5.3518,5.3518,5.3518,5.3518,5.3518,5.3518,5.3518,5.3501,5.3484,5.323,5.2959,5.2638,5.2181,5.2097,5.2114,5.2114,5.2215,5.2807,5.2993,5.2435,5.2259,5.2649]}]]